<?xml version="1.0" encoding="UTF-8" standalone="no" ?>
<gpx xmlns="http://www.topografix.com/GPX/1/1" xmlns:xsi="http://www.w3.org/2001/XMLSchema-instance" xsi:schemaLocation="http://www.topografix.com/GPX/1/1 http://www.topografix.com/GPX/1/1/gpx.xsd" version="1.1" creator="VisuGPX - https://www.visugpx.com">
  <metadata>
    <name>Trace-GPS-21KM-Foulées-Crossey-2010</name>
    <desc><![CDATA[Trace GPS du parcours 21km ( Enregistré avec un Etrex Vista HCX ) ]]></desc>
  </metadata>
  <trk>
    <name><![CDATA[Trace-GPS-21KM-Foulées-Crossey-2010_1]]></name>
    <trkseg>
      <trkpt lat="45.37975" lon="5.64037">
        <ele>458.68615722656</ele>
        <time>2010-10-17T06:42:29Z</time>
      </trkpt>
      <trkpt lat="45.37977" lon="5.64013">
        <ele>458.68615722656</ele>
        <time>2010-10-17T06:42:53Z</time>
      </trkpt>
      <trkpt lat="45.37973" lon="5.64013">
        <ele>459.16687011719</ele>
        <time>2010-10-17T06:45:07Z</time>
      </trkpt>
      <trkpt lat="45.37963" lon="5.64007">
        <ele>459.16687011719</ele>
        <time>2010-10-17T06:45:25Z</time>
      </trkpt>
      <trkpt lat="45.37955" lon="5.64002">
        <ele>442.82446289062</ele>
        <time>2010-10-17T06:45:57Z</time>
      </trkpt>
      <trkpt lat="45.37938" lon="5.63992">
        <ele>438.01782226562</ele>
        <time>2010-10-17T06:46:13Z</time>
      </trkpt>
      <trkpt lat="45.37928" lon="5.63982">
        <ele>433.21130371094</ele>
        <time>2010-10-17T06:52:32Z</time>
      </trkpt>
      <trkpt lat="45.3793" lon="5.63963">
        <ele>433.21130371094</ele>
        <time>2010-10-17T06:52:36Z</time>
      </trkpt>
      <trkpt lat="45.37932" lon="5.63949">
        <ele>433.21130371094</ele>
        <time>2010-10-17T06:52:39Z</time>
      </trkpt>
      <trkpt lat="45.37936" lon="5.63932">
        <ele>432.25</ele>
        <time>2010-10-17T06:52:43Z</time>
      </trkpt>
      <trkpt lat="45.37939" lon="5.63919">
        <ele>432.25</ele>
        <time>2010-10-17T06:52:46Z</time>
      </trkpt>
      <trkpt lat="45.37942" lon="5.63905">
        <ele>432.25</ele>
        <time>2010-10-17T06:52:49Z</time>
      </trkpt>
      <trkpt lat="45.37945" lon="5.63891">
        <ele>432.73071289062</ele>
        <time>2010-10-17T06:52:52Z</time>
      </trkpt>
      <trkpt lat="45.37948" lon="5.63879">
        <ele>432.25</ele>
        <time>2010-10-17T06:52:55Z</time>
      </trkpt>
      <trkpt lat="45.37952" lon="5.63867">
        <ele>432.25</ele>
        <time>2010-10-17T06:52:58Z</time>
      </trkpt>
      <trkpt lat="45.37955" lon="5.6385">
        <ele>431.76916503906</ele>
        <time>2010-10-17T06:53:02Z</time>
      </trkpt>
      <trkpt lat="45.37956" lon="5.63834">
        <ele>431.76916503906</ele>
        <time>2010-10-17T06:53:05Z</time>
      </trkpt>
      <trkpt lat="45.37958" lon="5.63817">
        <ele>431.76916503906</ele>
        <time>2010-10-17T06:53:08Z</time>
      </trkpt>
      <trkpt lat="45.3796" lon="5.63804">
        <ele>431.76916503906</ele>
        <time>2010-10-17T06:53:11Z</time>
      </trkpt>
      <trkpt lat="45.37962" lon="5.63791">
        <ele>430.80798339844</ele>
        <time>2010-10-17T06:53:14Z</time>
      </trkpt>
      <trkpt lat="45.37964" lon="5.63779">
        <ele>431.28857421875</ele>
        <time>2010-10-17T06:53:17Z</time>
      </trkpt>
      <trkpt lat="45.37968" lon="5.63762">
        <ele>431.28857421875</ele>
        <time>2010-10-17T06:53:21Z</time>
      </trkpt>
      <trkpt lat="45.3797" lon="5.63749">
        <ele>431.76916503906</ele>
        <time>2010-10-17T06:53:24Z</time>
      </trkpt>
      <trkpt lat="45.37974" lon="5.63737">
        <ele>430.32727050781</ele>
        <time>2010-10-17T06:53:27Z</time>
      </trkpt>
      <trkpt lat="45.37977" lon="5.6372">
        <ele>430.80798339844</ele>
        <time>2010-10-17T06:53:31Z</time>
      </trkpt>
      <trkpt lat="45.37981" lon="5.63708">
        <ele>430.80798339844</ele>
        <time>2010-10-17T06:53:34Z</time>
      </trkpt>
      <trkpt lat="45.37985" lon="5.63696">
        <ele>431.28857421875</ele>
        <time>2010-10-17T06:53:37Z</time>
      </trkpt>
      <trkpt lat="45.37989" lon="5.63684">
        <ele>430.80798339844</ele>
        <time>2010-10-17T06:53:40Z</time>
      </trkpt>
      <trkpt lat="45.37992" lon="5.63671">
        <ele>430.32727050781</ele>
        <time>2010-10-17T06:53:43Z</time>
      </trkpt>
      <trkpt lat="45.37997" lon="5.63662">
        <ele>430.32727050781</ele>
        <time>2010-10-17T06:53:46Z</time>
      </trkpt>
      <trkpt lat="45.38" lon="5.63648">
        <ele>430.32727050781</ele>
        <time>2010-10-17T06:53:49Z</time>
      </trkpt>
      <trkpt lat="45.38003" lon="5.63638">
        <ele>430.32727050781</ele>
        <time>2010-10-17T06:53:52Z</time>
      </trkpt>
      <trkpt lat="45.38008" lon="5.63626">
        <ele>429.36596679688</ele>
        <time>2010-10-17T06:53:55Z</time>
      </trkpt>
      <trkpt lat="45.38013" lon="5.63613">
        <ele>429.36596679688</ele>
        <time>2010-10-17T06:53:58Z</time>
      </trkpt>
      <trkpt lat="45.38019" lon="5.63599">
        <ele>429.36596679688</ele>
        <time>2010-10-17T06:54:01Z</time>
      </trkpt>
      <trkpt lat="45.38023" lon="5.63588">
        <ele>429.36596679688</ele>
        <time>2010-10-17T06:54:04Z</time>
      </trkpt>
      <trkpt lat="45.38027" lon="5.63575">
        <ele>429.36596679688</ele>
        <time>2010-10-17T06:54:07Z</time>
      </trkpt>
      <trkpt lat="45.38031" lon="5.63561">
        <ele>428.88537597656</ele>
        <time>2010-10-17T06:54:10Z</time>
      </trkpt>
      <trkpt lat="45.38036" lon="5.63549">
        <ele>428.88537597656</ele>
        <time>2010-10-17T06:54:13Z</time>
      </trkpt>
      <trkpt lat="45.3804" lon="5.63538">
        <ele>428.88537597656</ele>
        <time>2010-10-17T06:54:16Z</time>
      </trkpt>
      <trkpt lat="45.38045" lon="5.63525">
        <ele>428.40466308594</ele>
        <time>2010-10-17T06:54:19Z</time>
      </trkpt>
      <trkpt lat="45.38052" lon="5.63513">
        <ele>428.88537597656</ele>
        <time>2010-10-17T06:54:22Z</time>
      </trkpt>
      <trkpt lat="45.38056" lon="5.63501">
        <ele>427.92395019531</ele>
        <time>2010-10-17T06:54:25Z</time>
      </trkpt>
      <trkpt lat="45.3806" lon="5.63489">
        <ele>428.40466308594</ele>
        <time>2010-10-17T06:54:28Z</time>
      </trkpt>
      <trkpt lat="45.38062" lon="5.63475">
        <ele>427.92395019531</ele>
        <time>2010-10-17T06:54:31Z</time>
      </trkpt>
      <trkpt lat="45.38064" lon="5.63461">
        <ele>428.40466308594</ele>
        <time>2010-10-17T06:54:34Z</time>
      </trkpt>
      <trkpt lat="45.38066" lon="5.63448">
        <ele>426.96276855469</ele>
        <time>2010-10-17T06:54:37Z</time>
      </trkpt>
      <trkpt lat="45.38069" lon="5.63435">
        <ele>426.96276855469</ele>
        <time>2010-10-17T06:54:40Z</time>
      </trkpt>
      <trkpt lat="45.38071" lon="5.63421">
        <ele>426.96276855469</ele>
        <time>2010-10-17T06:54:43Z</time>
      </trkpt>
      <trkpt lat="45.38071" lon="5.63405">
        <ele>425.52075195312</ele>
        <time>2010-10-17T06:54:46Z</time>
      </trkpt>
      <trkpt lat="45.3807" lon="5.63391">
        <ele>425.52075195312</ele>
        <time>2010-10-17T06:54:49Z</time>
      </trkpt>
      <trkpt lat="45.38068" lon="5.63379">
        <ele>424.55944824219</ele>
        <time>2010-10-17T06:54:52Z</time>
      </trkpt>
      <trkpt lat="45.38064" lon="5.63366">
        <ele>422.63671875</ele>
        <time>2010-10-17T06:54:55Z</time>
      </trkpt>
      <trkpt lat="45.3806" lon="5.63354">
        <ele>421.19482421875</ele>
        <time>2010-10-17T06:54:58Z</time>
      </trkpt>
      <trkpt lat="45.38055" lon="5.63341">
        <ele>420.71411132812</ele>
        <time>2010-10-17T06:55:01Z</time>
      </trkpt>
      <trkpt lat="45.38049" lon="5.63329">
        <ele>420.2333984375</ele>
        <time>2010-10-17T06:55:04Z</time>
      </trkpt>
      <trkpt lat="45.38043" lon="5.63318">
        <ele>417.83020019531</ele>
        <time>2010-10-17T06:55:07Z</time>
      </trkpt>
      <trkpt lat="45.38038" lon="5.63304">
        <ele>417.83020019531</ele>
        <time>2010-10-17T06:55:10Z</time>
      </trkpt>
      <trkpt lat="45.38033" lon="5.63292">
        <ele>416.38818359375</ele>
        <time>2010-10-17T06:55:13Z</time>
      </trkpt>
      <trkpt lat="45.38025" lon="5.63281">
        <ele>414.46545410156</ele>
        <time>2010-10-17T06:55:16Z</time>
      </trkpt>
      <trkpt lat="45.3802" lon="5.63269">
        <ele>414.46545410156</ele>
        <time>2010-10-17T06:55:19Z</time>
      </trkpt>
      <trkpt lat="45.38014" lon="5.63256">
        <ele>413.98486328125</ele>
        <time>2010-10-17T06:55:22Z</time>
      </trkpt>
      <trkpt lat="45.38009" lon="5.63244">
        <ele>412.54284667969</ele>
        <time>2010-10-17T06:55:25Z</time>
      </trkpt>
      <trkpt lat="45.38005" lon="5.63232">
        <ele>411.58166503906</ele>
        <time>2010-10-17T06:55:28Z</time>
      </trkpt>
      <trkpt lat="45.38002" lon="5.63219">
        <ele>411.10095214844</ele>
        <time>2010-10-17T06:55:31Z</time>
      </trkpt>
      <trkpt lat="45.38002" lon="5.63205">
        <ele>409.65905761719</ele>
        <time>2010-10-17T06:55:34Z</time>
      </trkpt>
      <trkpt lat="45.38004" lon="5.63189">
        <ele>407.736328125</ele>
        <time>2010-10-17T06:55:37Z</time>
      </trkpt>
      <trkpt lat="45.38006" lon="5.63174">
        <ele>406.77490234375</ele>
        <time>2010-10-17T06:55:40Z</time>
      </trkpt>
      <trkpt lat="45.38007" lon="5.63159">
        <ele>405.3330078125</ele>
        <time>2010-10-17T06:55:43Z</time>
      </trkpt>
      <trkpt lat="45.3801" lon="5.63144">
        <ele>404.37170410156</ele>
        <time>2010-10-17T06:55:46Z</time>
      </trkpt>
      <trkpt lat="45.38013" lon="5.63128">
        <ele>403.89111328125</ele>
        <time>2010-10-17T06:55:49Z</time>
      </trkpt>
      <trkpt lat="45.38014" lon="5.63116">
        <ele>403.89111328125</ele>
        <time>2010-10-17T06:55:52Z</time>
      </trkpt>
      <trkpt lat="45.38017" lon="5.63102">
        <ele>404.85229492188</ele>
        <time>2010-10-17T06:55:55Z</time>
      </trkpt>
      <trkpt lat="45.38018" lon="5.6309">
        <ele>404.37170410156</ele>
        <time>2010-10-17T06:55:58Z</time>
      </trkpt>
      <trkpt lat="45.38017" lon="5.63077">
        <ele>404.85229492188</ele>
        <time>2010-10-17T06:56:01Z</time>
      </trkpt>
      <trkpt lat="45.38018" lon="5.63065">
        <ele>404.85229492188</ele>
        <time>2010-10-17T06:56:04Z</time>
      </trkpt>
      <trkpt lat="45.38018" lon="5.63052">
        <ele>404.37170410156</ele>
        <time>2010-10-17T06:56:07Z</time>
      </trkpt>
      <trkpt lat="45.38021" lon="5.63039">
        <ele>404.85229492188</ele>
        <time>2010-10-17T06:56:10Z</time>
      </trkpt>
      <trkpt lat="45.38024" lon="5.63025">
        <ele>403.89111328125</ele>
        <time>2010-10-17T06:56:13Z</time>
      </trkpt>
      <trkpt lat="45.38028" lon="5.63014">
        <ele>404.37170410156</ele>
        <time>2010-10-17T06:56:16Z</time>
      </trkpt>
      <trkpt lat="45.38032" lon="5.63003">
        <ele>404.85229492188</ele>
        <time>2010-10-17T06:56:19Z</time>
      </trkpt>
      <trkpt lat="45.38037" lon="5.62991">
        <ele>406.29431152344</ele>
        <time>2010-10-17T06:56:23Z</time>
      </trkpt>
      <trkpt lat="45.38041" lon="5.62979">
        <ele>407.25561523438</ele>
        <time>2010-10-17T06:56:27Z</time>
      </trkpt>
      <trkpt lat="45.38047" lon="5.62968">
        <ele>407.25561523438</ele>
        <time>2010-10-17T06:56:31Z</time>
      </trkpt>
      <trkpt lat="45.38052" lon="5.62954">
        <ele>408.69763183594</ele>
        <time>2010-10-17T06:56:35Z</time>
      </trkpt>
      <trkpt lat="45.38055" lon="5.62943">
        <ele>409.17834472656</ele>
        <time>2010-10-17T06:56:38Z</time>
      </trkpt>
      <trkpt lat="45.38057" lon="5.62929">
        <ele>410.1396484375</ele>
        <time>2010-10-17T06:56:42Z</time>
      </trkpt>
      <trkpt lat="45.38058" lon="5.62917">
        <ele>410.62023925781</ele>
        <time>2010-10-17T06:56:45Z</time>
      </trkpt>
      <trkpt lat="45.3806" lon="5.62902">
        <ele>411.58166503906</ele>
        <time>2010-10-17T06:56:49Z</time>
      </trkpt>
      <trkpt lat="45.38063" lon="5.62888">
        <ele>412.06225585938</ele>
        <time>2010-10-17T06:56:53Z</time>
      </trkpt>
      <trkpt lat="45.38063" lon="5.62875">
        <ele>412.54284667969</ele>
        <time>2010-10-17T06:56:56Z</time>
      </trkpt>
      <trkpt lat="45.38064" lon="5.6286">
        <ele>413.50427246094</ele>
        <time>2010-10-17T06:57:00Z</time>
      </trkpt>
      <trkpt lat="45.38062" lon="5.62848">
        <ele>413.50427246094</ele>
        <time>2010-10-17T06:57:04Z</time>
      </trkpt>
      <trkpt lat="45.38062" lon="5.62833">
        <ele>414.46545410156</ele>
        <time>2010-10-17T06:57:08Z</time>
      </trkpt>
      <trkpt lat="45.38062" lon="5.62818">
        <ele>414.94616699219</ele>
        <time>2010-10-17T06:57:12Z</time>
      </trkpt>
      <trkpt lat="45.38061" lon="5.62805">
        <ele>415.42687988281</ele>
        <time>2010-10-17T06:57:16Z</time>
      </trkpt>
      <trkpt lat="45.38062" lon="5.62789">
        <ele>416.38818359375</ele>
        <time>2010-10-17T06:57:21Z</time>
      </trkpt>
      <trkpt lat="45.38059" lon="5.62774">
        <ele>416.86889648438</ele>
        <time>2010-10-17T06:57:25Z</time>
      </trkpt>
      <trkpt lat="45.3806" lon="5.62759">
        <ele>416.86889648438</ele>
        <time>2010-10-17T06:57:30Z</time>
      </trkpt>
      <trkpt lat="45.3806" lon="5.6274">
        <ele>418.31079101562</ele>
        <time>2010-10-17T06:57:35Z</time>
      </trkpt>
      <trkpt lat="45.38061" lon="5.62726">
        <ele>419.27221679688</ele>
        <time>2010-10-17T06:57:39Z</time>
      </trkpt>
      <trkpt lat="45.38063" lon="5.62708">
        <ele>420.71411132812</ele>
        <time>2010-10-17T06:57:44Z</time>
      </trkpt>
      <trkpt lat="45.38065" lon="5.62692">
        <ele>421.67541503906</ele>
        <time>2010-10-17T06:57:48Z</time>
      </trkpt>
      <trkpt lat="45.38067" lon="5.62676">
        <ele>422.15600585938</ele>
        <time>2010-10-17T06:57:53Z</time>
      </trkpt>
      <trkpt lat="45.3807" lon="5.62659">
        <ele>423.11743164062</ele>
        <time>2010-10-17T06:57:58Z</time>
      </trkpt>
      <trkpt lat="45.38073" lon="5.62643">
        <ele>425.04016113281</ele>
        <time>2010-10-17T06:58:03Z</time>
      </trkpt>
      <trkpt lat="45.38079" lon="5.6263">
        <ele>426.00134277344</ele>
        <time>2010-10-17T06:58:08Z</time>
      </trkpt>
      <trkpt lat="45.38084" lon="5.62611">
        <ele>426.48205566406</ele>
        <time>2010-10-17T06:58:13Z</time>
      </trkpt>
      <trkpt lat="45.38088" lon="5.62596">
        <ele>428.40466308594</ele>
        <time>2010-10-17T06:58:18Z</time>
      </trkpt>
      <trkpt lat="45.38095" lon="5.62585">
        <ele>427.92395019531</ele>
        <time>2010-10-17T06:58:23Z</time>
      </trkpt>
      <trkpt lat="45.38105" lon="5.62575">
        <ele>427.443359375</ele>
        <time>2010-10-17T06:58:28Z</time>
      </trkpt>
      <trkpt lat="45.38116" lon="5.62564">
        <ele>427.92395019531</ele>
        <time>2010-10-17T06:58:32Z</time>
      </trkpt>
      <trkpt lat="45.38125" lon="5.62556">
        <ele>427.443359375</ele>
        <time>2010-10-17T06:58:36Z</time>
      </trkpt>
      <trkpt lat="45.38134" lon="5.62546">
        <ele>426.96276855469</ele>
        <time>2010-10-17T06:58:41Z</time>
      </trkpt>
      <trkpt lat="45.38146" lon="5.62539">
        <ele>426.96276855469</ele>
        <time>2010-10-17T06:58:45Z</time>
      </trkpt>
      <trkpt lat="45.38154" lon="5.62531">
        <ele>426.00134277344</ele>
        <time>2010-10-17T06:58:49Z</time>
      </trkpt>
      <trkpt lat="45.38166" lon="5.6252">
        <ele>426.00134277344</ele>
        <time>2010-10-17T06:58:54Z</time>
      </trkpt>
      <trkpt lat="45.38177" lon="5.6251">
        <ele>426.00134277344</ele>
        <time>2010-10-17T06:58:58Z</time>
      </trkpt>
      <trkpt lat="45.38188" lon="5.62501">
        <ele>426.00134277344</ele>
        <time>2010-10-17T06:59:02Z</time>
      </trkpt>
      <trkpt lat="45.38198" lon="5.62491">
        <ele>426.00134277344</ele>
        <time>2010-10-17T06:59:06Z</time>
      </trkpt>
      <trkpt lat="45.38207" lon="5.62482">
        <ele>426.00134277344</ele>
        <time>2010-10-17T06:59:10Z</time>
      </trkpt>
      <trkpt lat="45.38215" lon="5.62468">
        <ele>426.48205566406</ele>
        <time>2010-10-17T06:59:14Z</time>
      </trkpt>
      <trkpt lat="45.38221" lon="5.62454">
        <ele>426.96276855469</ele>
        <time>2010-10-17T06:59:19Z</time>
      </trkpt>
      <trkpt lat="45.38226" lon="5.62438">
        <ele>428.40466308594</ele>
        <time>2010-10-17T06:59:24Z</time>
      </trkpt>
      <trkpt lat="45.38229" lon="5.62427">
        <ele>429.36596679688</ele>
        <time>2010-10-17T06:59:28Z</time>
      </trkpt>
      <trkpt lat="45.38236" lon="5.62416">
        <ele>430.32727050781</ele>
        <time>2010-10-17T06:59:32Z</time>
      </trkpt>
      <trkpt lat="45.38246" lon="5.62405">
        <ele>430.32727050781</ele>
        <time>2010-10-17T06:59:36Z</time>
      </trkpt>
      <trkpt lat="45.38256" lon="5.62397">
        <ele>430.32727050781</ele>
        <time>2010-10-17T06:59:40Z</time>
      </trkpt>
      <trkpt lat="45.38265" lon="5.6239">
        <ele>430.32727050781</ele>
        <time>2010-10-17T06:59:44Z</time>
      </trkpt>
      <trkpt lat="45.38275" lon="5.62387">
        <ele>430.32727050781</ele>
        <time>2010-10-17T06:59:48Z</time>
      </trkpt>
      <trkpt lat="45.38285" lon="5.6238">
        <ele>430.32727050781</ele>
        <time>2010-10-17T06:59:52Z</time>
      </trkpt>
      <trkpt lat="45.38297" lon="5.62372">
        <ele>430.80798339844</ele>
        <time>2010-10-17T06:59:56Z</time>
      </trkpt>
      <trkpt lat="45.38307" lon="5.62368">
        <ele>430.32727050781</ele>
        <time>2010-10-17T07:00:00Z</time>
      </trkpt>
      <trkpt lat="45.38317" lon="5.62361">
        <ele>429.84655761719</ele>
        <time>2010-10-17T07:00:04Z</time>
      </trkpt>
      <trkpt lat="45.38329" lon="5.62352">
        <ele>429.36596679688</ele>
        <time>2010-10-17T07:00:08Z</time>
      </trkpt>
      <trkpt lat="45.38338" lon="5.62345">
        <ele>429.84655761719</ele>
        <time>2010-10-17T07:00:12Z</time>
      </trkpt>
      <trkpt lat="45.38349" lon="5.62338">
        <ele>429.84655761719</ele>
        <time>2010-10-17T07:00:16Z</time>
      </trkpt>
      <trkpt lat="45.38359" lon="5.6233">
        <ele>429.84655761719</ele>
        <time>2010-10-17T07:00:20Z</time>
      </trkpt>
      <trkpt lat="45.3837" lon="5.62323">
        <ele>429.84655761719</ele>
        <time>2010-10-17T07:00:24Z</time>
      </trkpt>
      <trkpt lat="45.3838" lon="5.62315">
        <ele>429.36596679688</ele>
        <time>2010-10-17T07:00:28Z</time>
      </trkpt>
      <trkpt lat="45.38389" lon="5.62308">
        <ele>429.84655761719</ele>
        <time>2010-10-17T07:00:32Z</time>
      </trkpt>
      <trkpt lat="45.38387" lon="5.62294">
        <ele>430.80798339844</ele>
        <time>2010-10-17T07:00:37Z</time>
      </trkpt>
      <trkpt lat="45.38387" lon="5.62281">
        <ele>431.76916503906</ele>
        <time>2010-10-17T07:00:42Z</time>
      </trkpt>
      <trkpt lat="45.3839" lon="5.62267">
        <ele>432.73071289062</ele>
        <time>2010-10-17T07:00:47Z</time>
      </trkpt>
      <trkpt lat="45.38391" lon="5.62257">
        <ele>434.17260742188</ele>
        <time>2010-10-17T07:00:52Z</time>
      </trkpt>
      <trkpt lat="45.38405" lon="5.62249">
        <ele>433.69189453125</ele>
        <time>2010-10-17T07:00:56Z</time>
      </trkpt>
      <trkpt lat="45.38415" lon="5.62243">
        <ele>434.6533203125</ele>
        <time>2010-10-17T07:01:00Z</time>
      </trkpt>
      <trkpt lat="45.38424" lon="5.62237">
        <ele>434.17260742188</ele>
        <time>2010-10-17T07:01:04Z</time>
      </trkpt>
      <trkpt lat="45.38434" lon="5.6223">
        <ele>434.6533203125</ele>
        <time>2010-10-17T07:01:08Z</time>
      </trkpt>
      <trkpt lat="45.38445" lon="5.62224">
        <ele>435.13391113281</ele>
        <time>2010-10-17T07:01:13Z</time>
      </trkpt>
      <trkpt lat="45.38457" lon="5.62218">
        <ele>435.61450195312</ele>
        <time>2010-10-17T07:01:19Z</time>
      </trkpt>
      <trkpt lat="45.38465" lon="5.62211">
        <ele>436.57592773438</ele>
        <time>2010-10-17T07:01:23Z</time>
      </trkpt>
      <trkpt lat="45.38476" lon="5.622">
        <ele>437.537109375</ele>
        <time>2010-10-17T07:01:29Z</time>
      </trkpt>
      <trkpt lat="45.38491" lon="5.62184">
        <ele>437.537109375</ele>
        <time>2010-10-17T07:01:36Z</time>
      </trkpt>
      <trkpt lat="45.38502" lon="5.6217">
        <ele>438.01782226562</ele>
        <time>2010-10-17T07:01:41Z</time>
      </trkpt>
      <trkpt lat="45.38512" lon="5.62158">
        <ele>437.05651855469</ele>
        <time>2010-10-17T07:01:46Z</time>
      </trkpt>
      <trkpt lat="45.38521" lon="5.62149">
        <ele>437.05651855469</ele>
        <time>2010-10-17T07:01:51Z</time>
      </trkpt>
      <trkpt lat="45.38531" lon="5.62133">
        <ele>437.537109375</ele>
        <time>2010-10-17T07:01:55Z</time>
      </trkpt>
      <trkpt lat="45.38537" lon="5.62121">
        <ele>437.05651855469</ele>
        <time>2010-10-17T07:01:59Z</time>
      </trkpt>
      <trkpt lat="45.38547" lon="5.62114">
        <ele>436.57592773438</ele>
        <time>2010-10-17T07:02:03Z</time>
      </trkpt>
      <trkpt lat="45.38557" lon="5.62104">
        <ele>436.09521484375</ele>
        <time>2010-10-17T07:02:07Z</time>
      </trkpt>
      <trkpt lat="45.38564" lon="5.62094">
        <ele>435.13391113281</ele>
        <time>2010-10-17T07:02:11Z</time>
      </trkpt>
      <trkpt lat="45.38568" lon="5.62077">
        <ele>434.6533203125</ele>
        <time>2010-10-17T07:02:16Z</time>
      </trkpt>
      <trkpt lat="45.38573" lon="5.62059">
        <ele>435.61450195312</ele>
        <time>2010-10-17T07:02:21Z</time>
      </trkpt>
      <trkpt lat="45.38578" lon="5.6204">
        <ele>435.13391113281</ele>
        <time>2010-10-17T07:02:26Z</time>
      </trkpt>
      <trkpt lat="45.38581" lon="5.62021">
        <ele>435.61450195312</ele>
        <time>2010-10-17T07:02:30Z</time>
      </trkpt>
      <trkpt lat="45.38584" lon="5.62007">
        <ele>435.61450195312</ele>
        <time>2010-10-17T07:02:34Z</time>
      </trkpt>
      <trkpt lat="45.38588" lon="5.61995">
        <ele>435.61450195312</ele>
        <time>2010-10-17T07:02:38Z</time>
      </trkpt>
      <trkpt lat="45.38592" lon="5.61976">
        <ele>435.61450195312</ele>
        <time>2010-10-17T07:02:43Z</time>
      </trkpt>
      <trkpt lat="45.38597" lon="5.61963">
        <ele>435.61450195312</ele>
        <time>2010-10-17T07:02:47Z</time>
      </trkpt>
      <trkpt lat="45.38602" lon="5.61948">
        <ele>435.61450195312</ele>
        <time>2010-10-17T07:02:51Z</time>
      </trkpt>
      <trkpt lat="45.38604" lon="5.6193">
        <ele>435.13391113281</ele>
        <time>2010-10-17T07:02:57Z</time>
      </trkpt>
      <trkpt lat="45.38615" lon="5.61917">
        <ele>436.09521484375</ele>
        <time>2010-10-17T07:03:03Z</time>
      </trkpt>
      <trkpt lat="45.38624" lon="5.61912">
        <ele>434.6533203125</ele>
        <time>2010-10-17T07:03:08Z</time>
      </trkpt>
      <trkpt lat="45.38639" lon="5.6191">
        <ele>435.13391113281</ele>
        <time>2010-10-17T07:03:12Z</time>
      </trkpt>
      <trkpt lat="45.38651" lon="5.61909">
        <ele>434.6533203125</ele>
        <time>2010-10-17T07:03:15Z</time>
      </trkpt>
      <trkpt lat="45.38664" lon="5.61909">
        <ele>435.13391113281</ele>
        <time>2010-10-17T07:03:19Z</time>
      </trkpt>
      <trkpt lat="45.38675" lon="5.61905">
        <ele>434.6533203125</ele>
        <time>2010-10-17T07:03:23Z</time>
      </trkpt>
      <trkpt lat="45.38687" lon="5.61901">
        <ele>434.17260742188</ele>
        <time>2010-10-17T07:03:27Z</time>
      </trkpt>
      <trkpt lat="45.38698" lon="5.61899">
        <ele>434.17260742188</ele>
        <time>2010-10-17T07:03:31Z</time>
      </trkpt>
      <trkpt lat="45.38708" lon="5.61901">
        <ele>434.17260742188</ele>
        <time>2010-10-17T07:03:35Z</time>
      </trkpt>
      <trkpt lat="45.38718" lon="5.619">
        <ele>433.21130371094</ele>
        <time>2010-10-17T07:03:38Z</time>
      </trkpt>
      <trkpt lat="45.38727" lon="5.619">
        <ele>432.25</ele>
        <time>2010-10-17T07:03:42Z</time>
      </trkpt>
      <trkpt lat="45.38738" lon="5.61908">
        <ele>431.76916503906</ele>
        <time>2010-10-17T07:03:46Z</time>
      </trkpt>
      <trkpt lat="45.38747" lon="5.6192">
        <ele>431.28857421875</ele>
        <time>2010-10-17T07:03:50Z</time>
      </trkpt>
      <trkpt lat="45.38755" lon="5.6193">
        <ele>430.32727050781</ele>
        <time>2010-10-17T07:03:54Z</time>
      </trkpt>
      <trkpt lat="45.38766" lon="5.61932">
        <ele>428.88537597656</ele>
        <time>2010-10-17T07:03:57Z</time>
      </trkpt>
      <trkpt lat="45.38779" lon="5.61931">
        <ele>428.88537597656</ele>
        <time>2010-10-17T07:04:01Z</time>
      </trkpt>
      <trkpt lat="45.38788" lon="5.61938">
        <ele>428.40466308594</ele>
        <time>2010-10-17T07:04:05Z</time>
      </trkpt>
      <trkpt lat="45.38797" lon="5.61949">
        <ele>427.92395019531</ele>
        <time>2010-10-17T07:04:09Z</time>
      </trkpt>
      <trkpt lat="45.38805" lon="5.6196">
        <ele>428.40466308594</ele>
        <time>2010-10-17T07:04:13Z</time>
      </trkpt>
      <trkpt lat="45.38812" lon="5.6197">
        <ele>428.40466308594</ele>
        <time>2010-10-17T07:04:17Z</time>
      </trkpt>
      <trkpt lat="45.38819" lon="5.61981">
        <ele>427.92395019531</ele>
        <time>2010-10-17T07:04:21Z</time>
      </trkpt>
      <trkpt lat="45.3883" lon="5.61995">
        <ele>428.88537597656</ele>
        <time>2010-10-17T07:04:26Z</time>
      </trkpt>
      <trkpt lat="45.38842" lon="5.62007">
        <ele>428.88537597656</ele>
        <time>2010-10-17T07:04:32Z</time>
      </trkpt>
      <trkpt lat="45.38861" lon="5.62016">
        <ele>429.36596679688</ele>
        <time>2010-10-17T07:04:39Z</time>
      </trkpt>
      <trkpt lat="45.38874" lon="5.62011">
        <ele>428.88537597656</ele>
        <time>2010-10-17T07:04:44Z</time>
      </trkpt>
      <trkpt lat="45.38881" lon="5.61999">
        <ele>429.36596679688</ele>
        <time>2010-10-17T07:04:49Z</time>
      </trkpt>
      <trkpt lat="45.38892" lon="5.61986">
        <ele>430.32727050781</ele>
        <time>2010-10-17T07:04:55Z</time>
      </trkpt>
      <trkpt lat="45.38906" lon="5.61973">
        <ele>430.80798339844</ele>
        <time>2010-10-17T07:04:59Z</time>
      </trkpt>
      <trkpt lat="45.38915" lon="5.61967">
        <ele>430.80798339844</ele>
        <time>2010-10-17T07:05:02Z</time>
      </trkpt>
      <trkpt lat="45.38925" lon="5.61963">
        <ele>431.28857421875</ele>
        <time>2010-10-17T07:05:07Z</time>
      </trkpt>
      <trkpt lat="45.38935" lon="5.6196">
        <ele>431.28857421875</ele>
        <time>2010-10-17T07:05:13Z</time>
      </trkpt>
      <trkpt lat="45.38949" lon="5.61958">
        <ele>432.25</ele>
        <time>2010-10-17T07:05:19Z</time>
      </trkpt>
      <trkpt lat="45.38963" lon="5.6195">
        <ele>431.76916503906</ele>
        <time>2010-10-17T07:05:24Z</time>
      </trkpt>
      <trkpt lat="45.38975" lon="5.61946">
        <ele>431.76916503906</ele>
        <time>2010-10-17T07:05:31Z</time>
      </trkpt>
      <trkpt lat="45.38985" lon="5.61948">
        <ele>432.25</ele>
        <time>2010-10-17T07:05:36Z</time>
      </trkpt>
      <trkpt lat="45.38999" lon="5.6195">
        <ele>432.25</ele>
        <time>2010-10-17T07:05:43Z</time>
      </trkpt>
      <trkpt lat="45.3901" lon="5.61947">
        <ele>431.76916503906</ele>
        <time>2010-10-17T07:05:47Z</time>
      </trkpt>
      <trkpt lat="45.39023" lon="5.61952">
        <ele>432.25</ele>
        <time>2010-10-17T07:05:51Z</time>
      </trkpt>
      <trkpt lat="45.39033" lon="5.61954">
        <ele>431.76916503906</ele>
        <time>2010-10-17T07:05:55Z</time>
      </trkpt>
      <trkpt lat="45.39042" lon="5.61964">
        <ele>431.28857421875</ele>
        <time>2010-10-17T07:06:01Z</time>
      </trkpt>
      <trkpt lat="45.39053" lon="5.61966">
        <ele>433.21130371094</ele>
        <time>2010-10-17T07:06:06Z</time>
      </trkpt>
      <trkpt lat="45.39064" lon="5.61972">
        <ele>433.21130371094</ele>
        <time>2010-10-17T07:06:11Z</time>
      </trkpt>
      <trkpt lat="45.39075" lon="5.61982">
        <ele>433.69189453125</ele>
        <time>2010-10-17T07:06:15Z</time>
      </trkpt>
      <trkpt lat="45.39082" lon="5.6199">
        <ele>434.17260742188</ele>
        <time>2010-10-17T07:06:19Z</time>
      </trkpt>
      <trkpt lat="45.39093" lon="5.62001">
        <ele>434.6533203125</ele>
        <time>2010-10-17T07:06:24Z</time>
      </trkpt>
      <trkpt lat="45.39102" lon="5.62009">
        <ele>435.61450195312</ele>
        <time>2010-10-17T07:06:28Z</time>
      </trkpt>
      <trkpt lat="45.39109" lon="5.62018">
        <ele>436.57592773438</ele>
        <time>2010-10-17T07:06:34Z</time>
      </trkpt>
      <trkpt lat="45.39118" lon="5.62028">
        <ele>436.09521484375</ele>
        <time>2010-10-17T07:06:38Z</time>
      </trkpt>
      <trkpt lat="45.39128" lon="5.62037">
        <ele>436.09521484375</ele>
        <time>2010-10-17T07:06:42Z</time>
      </trkpt>
      <trkpt lat="45.39137" lon="5.62044">
        <ele>436.09521484375</ele>
        <time>2010-10-17T07:06:47Z</time>
      </trkpt>
      <trkpt lat="45.39135" lon="5.62059">
        <ele>438.49853515625</ele>
        <time>2010-10-17T07:06:54Z</time>
      </trkpt>
      <trkpt lat="45.39136" lon="5.62074">
        <ele>440.42126464844</ele>
        <time>2010-10-17T07:07:00Z</time>
      </trkpt>
      <trkpt lat="45.39135" lon="5.62095">
        <ele>441.86315917969</ele>
        <time>2010-10-17T07:07:06Z</time>
      </trkpt>
      <trkpt lat="45.3913" lon="5.62108">
        <ele>442.34387207031</ele>
        <time>2010-10-17T07:07:12Z</time>
      </trkpt>
      <trkpt lat="45.39124" lon="5.62122">
        <ele>442.82446289062</ele>
        <time>2010-10-17T07:07:17Z</time>
      </trkpt>
      <trkpt lat="45.39116" lon="5.62136">
        <ele>443.30505371094</ele>
        <time>2010-10-17T07:07:22Z</time>
      </trkpt>
      <trkpt lat="45.39108" lon="5.62156">
        <ele>443.78576660156</ele>
        <time>2010-10-17T07:07:28Z</time>
      </trkpt>
      <trkpt lat="45.39102" lon="5.62169">
        <ele>444.26647949219</ele>
        <time>2010-10-17T07:07:32Z</time>
      </trkpt>
      <trkpt lat="45.39099" lon="5.62186">
        <ele>444.7470703125</ele>
        <time>2010-10-17T07:07:38Z</time>
      </trkpt>
      <trkpt lat="45.39097" lon="5.62209">
        <ele>445.70837402344</ele>
        <time>2010-10-17T07:07:45Z</time>
      </trkpt>
      <trkpt lat="45.39095" lon="5.62225">
        <ele>446.66967773438</ele>
        <time>2010-10-17T07:07:50Z</time>
      </trkpt>
      <trkpt lat="45.39091" lon="5.62251">
        <ele>448.11181640625</ele>
        <time>2010-10-17T07:07:58Z</time>
      </trkpt>
      <trkpt lat="45.39093" lon="5.62268">
        <ele>449.07299804688</ele>
        <time>2010-10-17T07:08:03Z</time>
      </trkpt>
      <trkpt lat="45.39101" lon="5.62282">
        <ele>450.03442382812</ele>
        <time>2010-10-17T07:08:08Z</time>
      </trkpt>
      <trkpt lat="45.39113" lon="5.6228">
        <ele>452.43762207031</ele>
        <time>2010-10-17T07:08:14Z</time>
      </trkpt>
      <trkpt lat="45.39124" lon="5.62278">
        <ele>453.87963867188</ele>
        <time>2010-10-17T07:08:20Z</time>
      </trkpt>
      <trkpt lat="45.39134" lon="5.62277">
        <ele>455.32153320312</ele>
        <time>2010-10-17T07:08:26Z</time>
      </trkpt>
      <trkpt lat="45.39152" lon="5.62271">
        <ele>458.68615722656</ele>
        <time>2010-10-17T07:08:37Z</time>
      </trkpt>
      <trkpt lat="45.39162" lon="5.62269">
        <ele>459.64758300781</ele>
        <time>2010-10-17T07:08:42Z</time>
      </trkpt>
      <trkpt lat="45.39171" lon="5.62267">
        <ele>461.57019042969</ele>
        <time>2010-10-17T07:08:48Z</time>
      </trkpt>
      <trkpt lat="45.39182" lon="5.62267">
        <ele>463.49279785156</ele>
        <time>2010-10-17T07:08:54Z</time>
      </trkpt>
      <trkpt lat="45.39192" lon="5.62258">
        <ele>464.93481445312</ele>
        <time>2010-10-17T07:09:00Z</time>
      </trkpt>
      <trkpt lat="45.39201" lon="5.62257">
        <ele>466.37670898438</ele>
        <time>2010-10-17T07:09:07Z</time>
      </trkpt>
      <trkpt lat="45.39211" lon="5.62255">
        <ele>467.81872558594</ele>
        <time>2010-10-17T07:09:15Z</time>
      </trkpt>
      <trkpt lat="45.3922" lon="5.62248">
        <ele>469.74133300781</ele>
        <time>2010-10-17T07:09:22Z</time>
      </trkpt>
      <trkpt lat="45.39228" lon="5.62245">
        <ele>471.18334960938</ele>
        <time>2010-10-17T07:09:28Z</time>
      </trkpt>
      <trkpt lat="45.39238" lon="5.62239">
        <ele>471.66394042969</ele>
        <time>2010-10-17T07:09:35Z</time>
      </trkpt>
      <trkpt lat="45.39247" lon="5.62234">
        <ele>473.10607910156</ele>
        <time>2010-10-17T07:09:42Z</time>
      </trkpt>
      <trkpt lat="45.39255" lon="5.62229">
        <ele>474.54797363281</ele>
        <time>2010-10-17T07:09:49Z</time>
      </trkpt>
      <trkpt lat="45.39265" lon="5.62224">
        <ele>475.50927734375</ele>
        <time>2010-10-17T07:09:56Z</time>
      </trkpt>
      <trkpt lat="45.39273" lon="5.6222">
        <ele>477.43188476562</ele>
        <time>2010-10-17T07:10:03Z</time>
      </trkpt>
      <trkpt lat="45.39283" lon="5.62212">
        <ele>478.39318847656</ele>
        <time>2010-10-17T07:10:09Z</time>
      </trkpt>
      <trkpt lat="45.39292" lon="5.62206">
        <ele>479.3544921875</ele>
        <time>2010-10-17T07:10:14Z</time>
      </trkpt>
      <trkpt lat="45.39301" lon="5.62202">
        <ele>481.27722167969</ele>
        <time>2010-10-17T07:10:20Z</time>
      </trkpt>
      <trkpt lat="45.39309" lon="5.62196">
        <ele>481.7578125</ele>
        <time>2010-10-17T07:10:25Z</time>
      </trkpt>
      <trkpt lat="45.39318" lon="5.62188">
        <ele>483.19982910156</ele>
        <time>2010-10-17T07:10:32Z</time>
      </trkpt>
      <trkpt lat="45.39326" lon="5.6218">
        <ele>484.64184570312</ele>
        <time>2010-10-17T07:10:39Z</time>
      </trkpt>
      <trkpt lat="45.39334" lon="5.62171">
        <ele>486.564453125</ele>
        <time>2010-10-17T07:10:46Z</time>
      </trkpt>
      <trkpt lat="45.39348" lon="5.62162">
        <ele>488.48718261719</ele>
        <time>2010-10-17T07:10:55Z</time>
      </trkpt>
      <trkpt lat="45.39357" lon="5.62149">
        <ele>489.92907714844</ele>
        <time>2010-10-17T07:11:03Z</time>
      </trkpt>
      <trkpt lat="45.39369" lon="5.62137">
        <ele>492.33239746094</ele>
        <time>2010-10-17T07:11:16Z</time>
      </trkpt>
      <trkpt lat="45.39376" lon="5.62124">
        <ele>494.73559570312</ele>
        <time>2010-10-17T07:11:24Z</time>
      </trkpt>
      <trkpt lat="45.39383" lon="5.62117">
        <ele>496.177734375</ele>
        <time>2010-10-17T07:11:33Z</time>
      </trkpt>
      <trkpt lat="45.39405" lon="5.6211">
        <ele>500.50354003906</ele>
        <time>2010-10-17T07:11:50Z</time>
      </trkpt>
      <trkpt lat="45.3942" lon="5.62114">
        <ele>502.90673828125</ele>
        <time>2010-10-17T07:11:59Z</time>
      </trkpt>
      <trkpt lat="45.39431" lon="5.62111">
        <ele>504.34887695312</ele>
        <time>2010-10-17T07:12:09Z</time>
      </trkpt>
      <trkpt lat="45.39438" lon="5.621">
        <ele>506.75207519531</ele>
        <time>2010-10-17T07:12:20Z</time>
      </trkpt>
      <trkpt lat="45.39448" lon="5.62095">
        <ele>508.67468261719</ele>
        <time>2010-10-17T07:12:29Z</time>
      </trkpt>
      <trkpt lat="45.39457" lon="5.62084">
        <ele>510.59729003906</ele>
        <time>2010-10-17T07:12:37Z</time>
      </trkpt>
      <trkpt lat="45.39468" lon="5.62086">
        <ele>511.55871582031</ele>
        <time>2010-10-17T07:12:45Z</time>
      </trkpt>
      <trkpt lat="45.39477" lon="5.62085">
        <ele>512.52001953125</ele>
        <time>2010-10-17T07:12:51Z</time>
      </trkpt>
      <trkpt lat="45.39489" lon="5.62085">
        <ele>514.44262695312</ele>
        <time>2010-10-17T07:13:00Z</time>
      </trkpt>
      <trkpt lat="45.39499" lon="5.62075">
        <ele>515.40405273438</ele>
        <time>2010-10-17T07:13:08Z</time>
      </trkpt>
      <trkpt lat="45.39508" lon="5.62069">
        <ele>516.84594726562</ele>
        <time>2010-10-17T07:13:15Z</time>
      </trkpt>
      <trkpt lat="45.39516" lon="5.62065">
        <ele>518.28784179688</ele>
        <time>2010-10-17T07:13:22Z</time>
      </trkpt>
      <trkpt lat="45.39526" lon="5.62056">
        <ele>519.72985839844</ele>
        <time>2010-10-17T07:13:30Z</time>
      </trkpt>
      <trkpt lat="45.39537" lon="5.62054">
        <ele>520.69128417969</ele>
        <time>2010-10-17T07:13:37Z</time>
      </trkpt>
      <trkpt lat="45.39552" lon="5.62053">
        <ele>523.5751953125</ele>
        <time>2010-10-17T07:13:48Z</time>
      </trkpt>
      <trkpt lat="45.39563" lon="5.62056">
        <ele>526.45910644531</ele>
        <time>2010-10-17T07:13:58Z</time>
      </trkpt>
      <trkpt lat="45.39577" lon="5.62057">
        <ele>528.86254882812</ele>
        <time>2010-10-17T07:14:10Z</time>
      </trkpt>
      <trkpt lat="45.39592" lon="5.62061">
        <ele>531.26574707031</ele>
        <time>2010-10-17T07:14:22Z</time>
      </trkpt>
      <trkpt lat="45.39601" lon="5.62063">
        <ele>534.63037109375</ele>
        <time>2010-10-17T07:14:35Z</time>
      </trkpt>
      <trkpt lat="45.39614" lon="5.62068">
        <ele>537.03369140625</ele>
        <time>2010-10-17T07:14:47Z</time>
      </trkpt>
      <trkpt lat="45.3963" lon="5.62074">
        <ele>540.39831542969</ele>
        <time>2010-10-17T07:14:59Z</time>
      </trkpt>
      <trkpt lat="45.39639" lon="5.62081">
        <ele>542.32092285156</ele>
        <time>2010-10-17T07:15:10Z</time>
      </trkpt>
      <trkpt lat="45.39648" lon="5.62091">
        <ele>543.28210449219</ele>
        <time>2010-10-17T07:15:18Z</time>
      </trkpt>
      <trkpt lat="45.39658" lon="5.621">
        <ele>544.24365234375</ele>
        <time>2010-10-17T07:15:26Z</time>
      </trkpt>
      <trkpt lat="45.39665" lon="5.62111">
        <ele>544.72424316406</ele>
        <time>2010-10-17T07:15:35Z</time>
      </trkpt>
      <trkpt lat="45.39677" lon="5.62123">
        <ele>545.20483398438</ele>
        <time>2010-10-17T07:15:44Z</time>
      </trkpt>
      <trkpt lat="45.39685" lon="5.62134">
        <ele>545.685546875</ele>
        <time>2010-10-17T07:15:51Z</time>
      </trkpt>
      <trkpt lat="45.39694" lon="5.62143">
        <ele>546.64685058594</ele>
        <time>2010-10-17T07:15:58Z</time>
      </trkpt>
      <trkpt lat="45.39706" lon="5.62148">
        <ele>548.0888671875</ele>
        <time>2010-10-17T07:16:08Z</time>
      </trkpt>
      <trkpt lat="45.39713" lon="5.62149">
        <ele>550.01147460938</ele>
        <time>2010-10-17T07:16:15Z</time>
      </trkpt>
      <trkpt lat="45.39722" lon="5.62161">
        <ele>550.4921875</ele>
        <time>2010-10-17T07:16:22Z</time>
      </trkpt>
      <trkpt lat="45.39732" lon="5.62165">
        <ele>551.93408203125</ele>
        <time>2010-10-17T07:16:28Z</time>
      </trkpt>
      <trkpt lat="45.39743" lon="5.62159">
        <ele>552.89526367188</ele>
        <time>2010-10-17T07:16:33Z</time>
      </trkpt>
      <trkpt lat="45.39753" lon="5.62155">
        <ele>554.33740234375</ele>
        <time>2010-10-17T07:16:38Z</time>
      </trkpt>
      <trkpt lat="45.39764" lon="5.62151">
        <ele>554.81787109375</ele>
        <time>2010-10-17T07:16:43Z</time>
      </trkpt>
      <trkpt lat="45.39775" lon="5.62141">
        <ele>557.22143554688</ele>
        <time>2010-10-17T07:16:49Z</time>
      </trkpt>
      <trkpt lat="45.39785" lon="5.62137">
        <ele>558.66333007812</ele>
        <time>2010-10-17T07:16:54Z</time>
      </trkpt>
      <trkpt lat="45.39795" lon="5.62135">
        <ele>561.06665039062</ele>
        <time>2010-10-17T07:17:02Z</time>
      </trkpt>
      <trkpt lat="45.39806" lon="5.62138">
        <ele>563.95043945312</ele>
        <time>2010-10-17T07:17:11Z</time>
      </trkpt>
      <trkpt lat="45.39816" lon="5.6214">
        <ele>565.392578125</ele>
        <time>2010-10-17T07:17:19Z</time>
      </trkpt>
      <trkpt lat="45.39825" lon="5.62143">
        <ele>566.83447265625</ele>
        <time>2010-10-17T07:17:27Z</time>
      </trkpt>
      <trkpt lat="45.39835" lon="5.62148">
        <ele>568.75708007812</ele>
        <time>2010-10-17T07:17:35Z</time>
      </trkpt>
      <trkpt lat="45.39844" lon="5.62154">
        <ele>570.19897460938</ele>
        <time>2010-10-17T07:17:42Z</time>
      </trkpt>
      <trkpt lat="45.39854" lon="5.62166">
        <ele>573.08325195312</ele>
        <time>2010-10-17T07:17:56Z</time>
      </trkpt>
      <trkpt lat="45.39859" lon="5.6218">
        <ele>575.486328125</ele>
        <time>2010-10-17T07:18:07Z</time>
      </trkpt>
      <trkpt lat="45.39859" lon="5.62196">
        <ele>575.96704101562</ele>
        <time>2010-10-17T07:18:14Z</time>
      </trkpt>
      <trkpt lat="45.39861" lon="5.62212">
        <ele>576.92846679688</ele>
        <time>2010-10-17T07:18:19Z</time>
      </trkpt>
      <trkpt lat="45.3986" lon="5.62223">
        <ele>577.4091796875</ele>
        <time>2010-10-17T07:18:24Z</time>
      </trkpt>
      <trkpt lat="45.3986" lon="5.62237">
        <ele>578.37036132812</ele>
        <time>2010-10-17T07:18:30Z</time>
      </trkpt>
      <trkpt lat="45.39862" lon="5.62258">
        <ele>577.4091796875</ele>
        <time>2010-10-17T07:18:35Z</time>
      </trkpt>
      <trkpt lat="45.39867" lon="5.62274">
        <ele>576.92846679688</ele>
        <time>2010-10-17T07:18:40Z</time>
      </trkpt>
      <trkpt lat="45.39874" lon="5.62285">
        <ele>577.8896484375</ele>
        <time>2010-10-17T07:18:44Z</time>
      </trkpt>
      <trkpt lat="45.39878" lon="5.62301">
        <ele>577.8896484375</ele>
        <time>2010-10-17T07:18:49Z</time>
      </trkpt>
      <trkpt lat="45.39885" lon="5.62317">
        <ele>577.8896484375</ele>
        <time>2010-10-17T07:18:54Z</time>
      </trkpt>
      <trkpt lat="45.39892" lon="5.62329">
        <ele>578.37036132812</ele>
        <time>2010-10-17T07:18:59Z</time>
      </trkpt>
      <trkpt lat="45.39897" lon="5.62341">
        <ele>578.37036132812</ele>
        <time>2010-10-17T07:19:03Z</time>
      </trkpt>
      <trkpt lat="45.39904" lon="5.62354">
        <ele>578.85107421875</ele>
        <time>2010-10-17T07:19:08Z</time>
      </trkpt>
      <trkpt lat="45.39917" lon="5.62368">
        <ele>579.33154296875</ele>
        <time>2010-10-17T07:19:13Z</time>
      </trkpt>
      <trkpt lat="45.39938" lon="5.62397">
        <ele>579.81225585938</ele>
        <time>2010-10-17T07:19:18Z</time>
      </trkpt>
      <trkpt lat="45.39951" lon="5.6241">
        <ele>580.29296875</ele>
        <time>2010-10-17T07:19:22Z</time>
      </trkpt>
      <trkpt lat="45.39962" lon="5.62416">
        <ele>580.77368164062</ele>
        <time>2010-10-17T07:19:27Z</time>
      </trkpt>
      <trkpt lat="45.39973" lon="5.62425">
        <ele>581.25439453125</ele>
        <time>2010-10-17T07:19:32Z</time>
      </trkpt>
      <trkpt lat="45.39983" lon="5.62428">
        <ele>583.1767578125</ele>
        <time>2010-10-17T07:19:37Z</time>
      </trkpt>
      <trkpt lat="45.39994" lon="5.6243">
        <ele>583.65747070312</ele>
        <time>2010-10-17T07:19:42Z</time>
      </trkpt>
      <trkpt lat="45.40004" lon="5.62429">
        <ele>585.099609375</ele>
        <time>2010-10-17T07:19:46Z</time>
      </trkpt>
      <trkpt lat="45.40012" lon="5.62429">
        <ele>585.580078125</ele>
        <time>2010-10-17T07:19:50Z</time>
      </trkpt>
      <trkpt lat="45.4002" lon="5.62426">
        <ele>586.06079101562</ele>
        <time>2010-10-17T07:19:53Z</time>
      </trkpt>
      <trkpt lat="45.40031" lon="5.62425">
        <ele>587.02197265625</ele>
        <time>2010-10-17T07:19:58Z</time>
      </trkpt>
      <trkpt lat="45.40041" lon="5.6242">
        <ele>587.50268554688</ele>
        <time>2010-10-17T07:20:02Z</time>
      </trkpt>
      <trkpt lat="45.40049" lon="5.62425">
        <ele>588.94506835938</ele>
        <time>2010-10-17T07:20:07Z</time>
      </trkpt>
      <trkpt lat="45.4006" lon="5.62424">
        <ele>588.94506835938</ele>
        <time>2010-10-17T07:20:12Z</time>
      </trkpt>
      <trkpt lat="45.40071" lon="5.62415">
        <ele>590.38696289062</ele>
        <time>2010-10-17T07:20:16Z</time>
      </trkpt>
      <trkpt lat="45.40078" lon="5.62416">
        <ele>590.38696289062</ele>
        <time>2010-10-17T07:20:20Z</time>
      </trkpt>
      <trkpt lat="45.40085" lon="5.62419">
        <ele>590.86743164062</ele>
        <time>2010-10-17T07:20:24Z</time>
      </trkpt>
      <trkpt lat="45.40095" lon="5.62415">
        <ele>591.34814453125</ele>
        <time>2010-10-17T07:20:29Z</time>
      </trkpt>
      <trkpt lat="45.40105" lon="5.62421">
        <ele>591.34814453125</ele>
        <time>2010-10-17T07:20:35Z</time>
      </trkpt>
      <trkpt lat="45.40112" lon="5.62429">
        <ele>592.79028320312</ele>
        <time>2010-10-17T07:20:40Z</time>
      </trkpt>
      <trkpt lat="45.40119" lon="5.62436">
        <ele>594.23217773438</ele>
        <time>2010-10-17T07:20:45Z</time>
      </trkpt>
      <trkpt lat="45.40126" lon="5.62442">
        <ele>594.71264648438</ele>
        <time>2010-10-17T07:20:50Z</time>
      </trkpt>
      <trkpt lat="45.40135" lon="5.62457">
        <ele>596.63549804688</ele>
        <time>2010-10-17T07:21:02Z</time>
      </trkpt>
      <trkpt lat="45.40144" lon="5.62467">
        <ele>599.51928710938</ele>
        <time>2010-10-17T07:21:11Z</time>
      </trkpt>
      <trkpt lat="45.40153" lon="5.62472">
        <ele>600.96118164062</ele>
        <time>2010-10-17T07:21:18Z</time>
      </trkpt>
      <trkpt lat="45.40162" lon="5.62476">
        <ele>602.40307617188</ele>
        <time>2010-10-17T07:21:26Z</time>
      </trkpt>
      <trkpt lat="45.40169" lon="5.6248">
        <ele>604.806640625</ele>
        <time>2010-10-17T07:21:33Z</time>
      </trkpt>
      <trkpt lat="45.40179" lon="5.62484">
        <ele>606.24853515625</ele>
        <time>2010-10-17T07:21:39Z</time>
      </trkpt>
      <trkpt lat="45.40187" lon="5.62493">
        <ele>607.69067382812</ele>
        <time>2010-10-17T07:21:47Z</time>
      </trkpt>
      <trkpt lat="45.40194" lon="5.62506">
        <ele>608.17138671875</ele>
        <time>2010-10-17T07:21:55Z</time>
      </trkpt>
      <trkpt lat="45.402" lon="5.62518">
        <ele>608.17138671875</ele>
        <time>2010-10-17T07:22:00Z</time>
      </trkpt>
      <trkpt lat="45.40202" lon="5.6253">
        <ele>607.69067382812</ele>
        <time>2010-10-17T07:22:04Z</time>
      </trkpt>
      <trkpt lat="45.40203" lon="5.62547">
        <ele>607.69067382812</ele>
        <time>2010-10-17T07:22:08Z</time>
      </trkpt>
      <trkpt lat="45.40211" lon="5.62563">
        <ele>608.17138671875</ele>
        <time>2010-10-17T07:22:13Z</time>
      </trkpt>
      <trkpt lat="45.40216" lon="5.62574">
        <ele>607.2099609375</ele>
        <time>2010-10-17T07:22:17Z</time>
      </trkpt>
      <trkpt lat="45.40221" lon="5.62591">
        <ele>606.72924804688</ele>
        <time>2010-10-17T07:22:21Z</time>
      </trkpt>
      <trkpt lat="45.40226" lon="5.62603">
        <ele>606.24853515625</ele>
        <time>2010-10-17T07:22:25Z</time>
      </trkpt>
      <trkpt lat="45.40228" lon="5.62619">
        <ele>605.76806640625</ele>
        <time>2010-10-17T07:22:30Z</time>
      </trkpt>
      <trkpt lat="45.40235" lon="5.62641">
        <ele>605.76806640625</ele>
        <time>2010-10-17T07:22:36Z</time>
      </trkpt>
      <trkpt lat="45.40247" lon="5.62671">
        <ele>604.326171875</ele>
        <time>2010-10-17T07:22:44Z</time>
      </trkpt>
      <trkpt lat="45.40252" lon="5.62687">
        <ele>604.326171875</ele>
        <time>2010-10-17T07:22:49Z</time>
      </trkpt>
      <trkpt lat="45.40259" lon="5.62705">
        <ele>604.326171875</ele>
        <time>2010-10-17T07:22:54Z</time>
      </trkpt>
      <trkpt lat="45.40266" lon="5.62719">
        <ele>604.326171875</ele>
        <time>2010-10-17T07:22:58Z</time>
      </trkpt>
      <trkpt lat="45.40271" lon="5.62731">
        <ele>604.806640625</ele>
        <time>2010-10-17T07:23:02Z</time>
      </trkpt>
      <trkpt lat="45.40276" lon="5.62742">
        <ele>604.806640625</ele>
        <time>2010-10-17T07:23:06Z</time>
      </trkpt>
      <trkpt lat="45.40279" lon="5.62758">
        <ele>604.806640625</ele>
        <time>2010-10-17T07:23:11Z</time>
      </trkpt>
      <trkpt lat="45.40282" lon="5.62774">
        <ele>605.28735351562</ele>
        <time>2010-10-17T07:23:16Z</time>
      </trkpt>
      <trkpt lat="45.40286" lon="5.62788">
        <ele>605.76806640625</ele>
        <time>2010-10-17T07:23:20Z</time>
      </trkpt>
      <trkpt lat="45.4029" lon="5.62801">
        <ele>605.76806640625</ele>
        <time>2010-10-17T07:23:24Z</time>
      </trkpt>
      <trkpt lat="45.40293" lon="5.62816">
        <ele>604.806640625</ele>
        <time>2010-10-17T07:23:29Z</time>
      </trkpt>
      <trkpt lat="45.40303" lon="5.62827">
        <ele>604.806640625</ele>
        <time>2010-10-17T07:23:34Z</time>
      </trkpt>
      <trkpt lat="45.40311" lon="5.62846">
        <ele>604.806640625</ele>
        <time>2010-10-17T07:23:41Z</time>
      </trkpt>
      <trkpt lat="45.40311" lon="5.62861">
        <ele>604.806640625</ele>
        <time>2010-10-17T07:23:47Z</time>
      </trkpt>
      <trkpt lat="45.40314" lon="5.62874">
        <ele>606.24853515625</ele>
        <time>2010-10-17T07:23:52Z</time>
      </trkpt>
      <trkpt lat="45.40324" lon="5.6289">
        <ele>607.69067382812</ele>
        <time>2010-10-17T07:23:58Z</time>
      </trkpt>
      <trkpt lat="45.40335" lon="5.62911">
        <ele>609.61328125</ele>
        <time>2010-10-17T07:24:05Z</time>
      </trkpt>
      <trkpt lat="45.40339" lon="5.62927">
        <ele>610.09375</ele>
        <time>2010-10-17T07:24:12Z</time>
      </trkpt>
      <trkpt lat="45.40341" lon="5.6294">
        <ele>610.57446289062</ele>
        <time>2010-10-17T07:24:18Z</time>
      </trkpt>
      <trkpt lat="45.40345" lon="5.62952">
        <ele>611.05517578125</ele>
        <time>2010-10-17T07:24:25Z</time>
      </trkpt>
      <trkpt lat="45.40357" lon="5.62968">
        <ele>611.53588867188</ele>
        <time>2010-10-17T07:24:31Z</time>
      </trkpt>
      <trkpt lat="45.40364" lon="5.62982">
        <ele>612.0166015625</ele>
        <time>2010-10-17T07:24:37Z</time>
      </trkpt>
      <trkpt lat="45.40374" lon="5.63002">
        <ele>612.97778320312</ele>
        <time>2010-10-17T07:24:44Z</time>
      </trkpt>
      <trkpt lat="45.40382" lon="5.63015">
        <ele>612.97778320312</ele>
        <time>2010-10-17T07:24:50Z</time>
      </trkpt>
      <trkpt lat="45.40389" lon="5.6303">
        <ele>614.41967773438</ele>
        <time>2010-10-17T07:24:56Z</time>
      </trkpt>
      <trkpt lat="45.4039" lon="5.63042">
        <ele>615.86181640625</ele>
        <time>2010-10-17T07:25:04Z</time>
      </trkpt>
      <trkpt lat="45.40395" lon="5.63052">
        <ele>615.86181640625</ele>
        <time>2010-10-17T07:25:10Z</time>
      </trkpt>
      <trkpt lat="45.40402" lon="5.63058">
        <ele>616.82299804688</ele>
        <time>2010-10-17T07:25:16Z</time>
      </trkpt>
      <trkpt lat="45.40411" lon="5.63067">
        <ele>617.7841796875</ele>
        <time>2010-10-17T07:25:21Z</time>
      </trkpt>
      <trkpt lat="45.4042" lon="5.63069">
        <ele>617.7841796875</ele>
        <time>2010-10-17T07:25:26Z</time>
      </trkpt>
      <trkpt lat="45.40427" lon="5.63076">
        <ele>618.26489257812</ele>
        <time>2010-10-17T07:25:30Z</time>
      </trkpt>
      <trkpt lat="45.40433" lon="5.63089">
        <ele>618.26489257812</ele>
        <time>2010-10-17T07:25:35Z</time>
      </trkpt>
      <trkpt lat="45.40439" lon="5.63101">
        <ele>619.70703125</ele>
        <time>2010-10-17T07:25:42Z</time>
      </trkpt>
      <trkpt lat="45.40449" lon="5.63116">
        <ele>620.18774414062</ele>
        <time>2010-10-17T07:25:49Z</time>
      </trkpt>
      <trkpt lat="45.40455" lon="5.63125">
        <ele>620.66845703125</ele>
        <time>2010-10-17T07:25:54Z</time>
      </trkpt>
      <trkpt lat="45.40462" lon="5.63137">
        <ele>621.14916992188</ele>
        <time>2010-10-17T07:25:59Z</time>
      </trkpt>
      <trkpt lat="45.40469" lon="5.63148">
        <ele>621.62963867188</ele>
        <time>2010-10-17T07:26:04Z</time>
      </trkpt>
      <trkpt lat="45.40476" lon="5.63159">
        <ele>622.1103515625</ele>
        <time>2010-10-17T07:26:09Z</time>
      </trkpt>
      <trkpt lat="45.40482" lon="5.63173">
        <ele>622.59106445312</ele>
        <time>2010-10-17T07:26:16Z</time>
      </trkpt>
      <trkpt lat="45.40491" lon="5.63186">
        <ele>622.59106445312</ele>
        <time>2010-10-17T07:26:21Z</time>
      </trkpt>
      <trkpt lat="45.40496" lon="5.63198">
        <ele>623.55249023438</ele>
        <time>2010-10-17T07:26:26Z</time>
      </trkpt>
      <trkpt lat="45.40501" lon="5.63212">
        <ele>624.03295898438</ele>
        <time>2010-10-17T07:26:31Z</time>
      </trkpt>
      <trkpt lat="45.40508" lon="5.63227">
        <ele>625.47485351562</ele>
        <time>2010-10-17T07:26:37Z</time>
      </trkpt>
      <trkpt lat="45.40517" lon="5.63235">
        <ele>626.9169921875</ele>
        <time>2010-10-17T07:26:45Z</time>
      </trkpt>
      <trkpt lat="45.40524" lon="5.63246">
        <ele>627.87817382812</ele>
        <time>2010-10-17T07:26:53Z</time>
      </trkpt>
      <trkpt lat="45.40519" lon="5.63262">
        <ele>630.76220703125</ele>
        <time>2010-10-17T07:27:04Z</time>
      </trkpt>
      <trkpt lat="45.40521" lon="5.63275">
        <ele>635.08813476562</ele>
        <time>2010-10-17T07:27:21Z</time>
      </trkpt>
      <trkpt lat="45.4052" lon="5.63289">
        <ele>638.93359375</ele>
        <time>2010-10-17T07:27:35Z</time>
      </trkpt>
      <trkpt lat="45.40514" lon="5.63316">
        <ele>640.85595703125</ele>
        <time>2010-10-17T07:27:45Z</time>
      </trkpt>
      <trkpt lat="45.40515" lon="5.63337">
        <ele>643.25927734375</ele>
        <time>2010-10-17T07:27:54Z</time>
      </trkpt>
      <trkpt lat="45.40504" lon="5.63344">
        <ele>644.220703125</ele>
        <time>2010-10-17T07:28:02Z</time>
      </trkpt>
      <trkpt lat="45.40495" lon="5.63339">
        <ele>643.73999023438</ele>
        <time>2010-10-17T07:28:11Z</time>
      </trkpt>
      <trkpt lat="45.40481" lon="5.63337">
        <ele>643.25927734375</ele>
        <time>2010-10-17T07:28:17Z</time>
      </trkpt>
      <trkpt lat="45.40469" lon="5.63336">
        <ele>643.73999023438</ele>
        <time>2010-10-17T07:28:23Z</time>
      </trkpt>
      <trkpt lat="45.40458" lon="5.63335">
        <ele>643.73999023438</ele>
        <time>2010-10-17T07:28:29Z</time>
      </trkpt>
      <trkpt lat="45.40443" lon="5.63333">
        <ele>644.220703125</ele>
        <time>2010-10-17T07:28:37Z</time>
      </trkpt>
      <trkpt lat="45.40422" lon="5.6333">
        <ele>646.14331054688</ele>
        <time>2010-10-17T07:28:51Z</time>
      </trkpt>
      <trkpt lat="45.40401" lon="5.63332">
        <ele>647.58520507812</ele>
        <time>2010-10-17T07:29:03Z</time>
      </trkpt>
      <trkpt lat="45.40374" lon="5.63347">
        <ele>651.43041992188</ele>
        <time>2010-10-17T07:29:17Z</time>
      </trkpt>
      <trkpt lat="45.40355" lon="5.6336">
        <ele>652.87255859375</ele>
        <time>2010-10-17T07:29:26Z</time>
      </trkpt>
      <trkpt lat="45.4034" lon="5.6338">
        <ele>654.31469726562</ele>
        <time>2010-10-17T07:29:33Z</time>
      </trkpt>
      <trkpt lat="45.40331" lon="5.63394">
        <ele>655.75659179688</ele>
        <time>2010-10-17T07:29:41Z</time>
      </trkpt>
      <trkpt lat="45.4032" lon="5.63406">
        <ele>658.15991210938</ele>
        <time>2010-10-17T07:29:49Z</time>
      </trkpt>
      <trkpt lat="45.40309" lon="5.63412">
        <ele>659.60180664062</ele>
        <time>2010-10-17T07:29:54Z</time>
      </trkpt>
      <trkpt lat="45.40299" lon="5.63427">
        <ele>661.04370117188</ele>
        <time>2010-10-17T07:30:03Z</time>
      </trkpt>
      <trkpt lat="45.40302" lon="5.63455">
        <ele>662.96630859375</ele>
        <time>2010-10-17T07:30:11Z</time>
      </trkpt>
      <trkpt lat="45.40293" lon="5.63462">
        <ele>664.88891601562</ele>
        <time>2010-10-17T07:30:18Z</time>
      </trkpt>
      <trkpt lat="45.4028" lon="5.63469">
        <ele>667.77270507812</ele>
        <time>2010-10-17T07:30:29Z</time>
      </trkpt>
      <trkpt lat="45.40274" lon="5.63479">
        <ele>668.734375</ele>
        <time>2010-10-17T07:30:35Z</time>
      </trkpt>
      <trkpt lat="45.40266" lon="5.63495">
        <ele>669.69580078125</ele>
        <time>2010-10-17T07:30:43Z</time>
      </trkpt>
      <trkpt lat="45.40257" lon="5.63516">
        <ele>672.09887695312</ele>
        <time>2010-10-17T07:30:54Z</time>
      </trkpt>
      <trkpt lat="45.40252" lon="5.63553">
        <ele>676.4248046875</ele>
        <time>2010-10-17T07:31:15Z</time>
      </trkpt>
      <trkpt lat="45.40245" lon="5.63571">
        <ele>678.828125</ele>
        <time>2010-10-17T07:31:24Z</time>
      </trkpt>
      <trkpt lat="45.40241" lon="5.63574">
        <ele>679.78930664062</ele>
        <time>2010-10-17T07:31:34Z</time>
      </trkpt>
      <trkpt lat="45.40231" lon="5.63577">
        <ele>681.7119140625</ele>
        <time>2010-10-17T07:31:44Z</time>
      </trkpt>
      <trkpt lat="45.40221" lon="5.63578">
        <ele>682.19262695312</ele>
        <time>2010-10-17T07:31:50Z</time>
      </trkpt>
      <trkpt lat="45.40215" lon="5.63584">
        <ele>683.63452148438</ele>
        <time>2010-10-17T07:31:57Z</time>
      </trkpt>
      <trkpt lat="45.40208" lon="5.63591">
        <ele>685.55737304688</ele>
        <time>2010-10-17T07:32:06Z</time>
      </trkpt>
      <trkpt lat="45.40203" lon="5.63602">
        <ele>687.47998046875</ele>
        <time>2010-10-17T07:32:16Z</time>
      </trkpt>
      <trkpt lat="45.40207" lon="5.63618">
        <ele>688.44140625</ele>
        <time>2010-10-17T07:32:24Z</time>
      </trkpt>
      <trkpt lat="45.40203" lon="5.63631">
        <ele>690.36401367188</ele>
        <time>2010-10-17T07:32:33Z</time>
      </trkpt>
      <trkpt lat="45.40199" lon="5.63644">
        <ele>693.24780273438</ele>
        <time>2010-10-17T07:32:45Z</time>
      </trkpt>
      <trkpt lat="45.40191" lon="5.63649">
        <ele>695.17041015625</ele>
        <time>2010-10-17T07:32:52Z</time>
      </trkpt>
      <trkpt lat="45.40194" lon="5.63665">
        <ele>698.53491210938</ele>
        <time>2010-10-17T07:33:05Z</time>
      </trkpt>
      <trkpt lat="45.40192" lon="5.6369">
        <ele>701.41918945312</ele>
        <time>2010-10-17T07:33:18Z</time>
      </trkpt>
      <trkpt lat="45.40188" lon="5.637">
        <ele>704.30322265625</ele>
        <time>2010-10-17T07:33:30Z</time>
      </trkpt>
      <trkpt lat="45.40196" lon="5.63719">
        <ele>706.70629882812</ele>
        <time>2010-10-17T07:33:44Z</time>
      </trkpt>
      <trkpt lat="45.40214" lon="5.63748">
        <ele>710.07080078125</ele>
        <time>2010-10-17T07:33:58Z</time>
      </trkpt>
      <trkpt lat="45.40223" lon="5.63772">
        <ele>713.435546875</ele>
        <time>2010-10-17T07:34:17Z</time>
      </trkpt>
      <trkpt lat="45.40224" lon="5.63787">
        <ele>713.916015625</ele>
        <time>2010-10-17T07:34:28Z</time>
      </trkpt>
      <trkpt lat="45.40231" lon="5.63807">
        <ele>715.8388671875</ele>
        <time>2010-10-17T07:34:41Z</time>
      </trkpt>
      <trkpt lat="45.40228" lon="5.6382">
        <ele>718.2421875</ele>
        <time>2010-10-17T07:34:54Z</time>
      </trkpt>
      <trkpt lat="45.40226" lon="5.6384">
        <ele>720.16479492188</ele>
        <time>2010-10-17T07:35:05Z</time>
      </trkpt>
      <trkpt lat="45.40233" lon="5.6387">
        <ele>723.52954101562</ele>
        <time>2010-10-17T07:35:25Z</time>
      </trkpt>
      <trkpt lat="45.40239" lon="5.63892">
        <ele>725.9326171875</ele>
        <time>2010-10-17T07:35:38Z</time>
      </trkpt>
      <trkpt lat="45.40222" lon="5.63903">
        <ele>727.85522460938</ele>
        <time>2010-10-17T07:35:49Z</time>
      </trkpt>
      <trkpt lat="45.40212" lon="5.63917">
        <ele>729.29711914062</ele>
        <time>2010-10-17T07:36:03Z</time>
      </trkpt>
      <trkpt lat="45.40192" lon="5.63927">
        <ele>730.7392578125</ele>
        <time>2010-10-17T07:36:12Z</time>
      </trkpt>
      <trkpt lat="45.40184" lon="5.63935">
        <ele>733.142578125</ele>
        <time>2010-10-17T07:36:21Z</time>
      </trkpt>
      <trkpt lat="45.40162" lon="5.63941">
        <ele>733.62329101562</ele>
        <time>2010-10-17T07:36:29Z</time>
      </trkpt>
      <trkpt lat="45.4014" lon="5.63936">
        <ele>733.62329101562</ele>
        <time>2010-10-17T07:36:35Z</time>
      </trkpt>
      <trkpt lat="45.40129" lon="5.63937">
        <ele>734.10400390625</ele>
        <time>2010-10-17T07:36:40Z</time>
      </trkpt>
      <trkpt lat="45.40124" lon="5.63941">
        <ele>734.10400390625</ele>
        <time>2010-10-17T07:36:45Z</time>
      </trkpt>
      <trkpt lat="45.40118" lon="5.63943">
        <ele>734.58471679688</ele>
        <time>2010-10-17T07:36:51Z</time>
      </trkpt>
      <trkpt lat="45.40111" lon="5.63944">
        <ele>735.0654296875</ele>
        <time>2010-10-17T07:36:57Z</time>
      </trkpt>
      <trkpt lat="45.40102" lon="5.63943">
        <ele>735.5458984375</ele>
        <time>2010-10-17T07:37:03Z</time>
      </trkpt>
      <trkpt lat="45.40085" lon="5.63942">
        <ele>738.42993164062</ele>
        <time>2010-10-17T07:37:15Z</time>
      </trkpt>
      <trkpt lat="45.40078" lon="5.63931">
        <ele>737.94921875</ele>
        <time>2010-10-17T07:37:25Z</time>
      </trkpt>
      <trkpt lat="45.40072" lon="5.63917">
        <ele>737.94921875</ele>
        <time>2010-10-17T07:37:35Z</time>
      </trkpt>
      <trkpt lat="45.40062" lon="5.63896">
        <ele>736.50732421875</ele>
        <time>2010-10-17T07:37:43Z</time>
      </trkpt>
      <trkpt lat="45.40057" lon="5.63899">
        <ele>732.662109375</ele>
        <time>2010-10-17T07:37:50Z</time>
      </trkpt>
      <trkpt lat="45.40057" lon="5.63912">
        <ele>730.7392578125</ele>
        <time>2010-10-17T07:37:55Z</time>
      </trkpt>
      <trkpt lat="45.40056" lon="5.63926">
        <ele>727.85522460938</ele>
        <time>2010-10-17T07:38:00Z</time>
      </trkpt>
      <trkpt lat="45.40055" lon="5.63939">
        <ele>725.9326171875</ele>
        <time>2010-10-17T07:38:04Z</time>
      </trkpt>
      <trkpt lat="45.40056" lon="5.63951">
        <ele>724.01000976562</ele>
        <time>2010-10-17T07:38:10Z</time>
      </trkpt>
      <trkpt lat="45.40042" lon="5.63999">
        <ele>721.12622070312</ele>
        <time>2010-10-17T07:38:53Z</time>
      </trkpt>
      <trkpt lat="45.40056" lon="5.64017">
        <ele>719.20361328125</ele>
        <time>2010-10-17T07:39:04Z</time>
      </trkpt>
      <trkpt lat="45.40065" lon="5.64027">
        <ele>718.2421875</ele>
        <time>2010-10-17T07:39:09Z</time>
      </trkpt>
      <trkpt lat="45.40074" lon="5.64037">
        <ele>718.2421875</ele>
        <time>2010-10-17T07:39:14Z</time>
      </trkpt>
      <trkpt lat="45.40078" lon="5.64049">
        <ele>719.68432617188</ele>
        <time>2010-10-17T07:39:20Z</time>
      </trkpt>
      <trkpt lat="45.4009" lon="5.64065">
        <ele>720.16479492188</ele>
        <time>2010-10-17T07:39:27Z</time>
      </trkpt>
      <trkpt lat="45.40098" lon="5.64075">
        <ele>719.68432617188</ele>
        <time>2010-10-17T07:39:33Z</time>
      </trkpt>
      <trkpt lat="45.40108" lon="5.64087">
        <ele>718.72290039062</ele>
        <time>2010-10-17T07:39:44Z</time>
      </trkpt>
      <trkpt lat="45.40105" lon="5.64097">
        <ele>718.2421875</ele>
        <time>2010-10-17T07:39:56Z</time>
      </trkpt>
      <trkpt lat="45.40107" lon="5.64112">
        <ele>718.72290039062</ele>
        <time>2010-10-17T07:40:04Z</time>
      </trkpt>
      <trkpt lat="45.4011" lon="5.64123">
        <ele>719.20361328125</ele>
        <time>2010-10-17T07:40:14Z</time>
      </trkpt>
      <trkpt lat="45.40126" lon="5.64136">
        <ele>720.16479492188</ele>
        <time>2010-10-17T07:40:26Z</time>
      </trkpt>
      <trkpt lat="45.40124" lon="5.64147">
        <ele>720.16479492188</ele>
        <time>2010-10-17T07:40:36Z</time>
      </trkpt>
      <trkpt lat="45.40123" lon="5.6416">
        <ele>720.6455078125</ele>
        <time>2010-10-17T07:40:42Z</time>
      </trkpt>
      <trkpt lat="45.40123" lon="5.64173">
        <ele>720.6455078125</ele>
        <time>2010-10-17T07:40:48Z</time>
      </trkpt>
      <trkpt lat="45.40126" lon="5.64186">
        <ele>720.6455078125</ele>
        <time>2010-10-17T07:40:54Z</time>
      </trkpt>
      <trkpt lat="45.40125" lon="5.642">
        <ele>720.6455078125</ele>
        <time>2010-10-17T07:41:03Z</time>
      </trkpt>
      <trkpt lat="45.40122" lon="5.64213">
        <ele>721.12622070312</ele>
        <time>2010-10-17T07:41:12Z</time>
      </trkpt>
      <trkpt lat="45.40119" lon="5.64226">
        <ele>721.12622070312</ele>
        <time>2010-10-17T07:41:19Z</time>
      </trkpt>
      <trkpt lat="45.40123" lon="5.64234">
        <ele>722.08740234375</ele>
        <time>2010-10-17T07:41:29Z</time>
      </trkpt>
      <trkpt lat="45.40128" lon="5.64246">
        <ele>722.56811523438</ele>
        <time>2010-10-17T07:41:40Z</time>
      </trkpt>
      <trkpt lat="45.40133" lon="5.64254">
        <ele>722.56811523438</ele>
        <time>2010-10-17T07:41:47Z</time>
      </trkpt>
      <trkpt lat="45.40141" lon="5.64258">
        <ele>722.56811523438</ele>
        <time>2010-10-17T07:41:55Z</time>
      </trkpt>
      <trkpt lat="45.40154" lon="5.64255">
        <ele>722.08740234375</ele>
        <time>2010-10-17T07:42:07Z</time>
      </trkpt>
      <trkpt lat="45.40165" lon="5.64254">
        <ele>721.60668945312</ele>
        <time>2010-10-17T07:42:12Z</time>
      </trkpt>
      <trkpt lat="45.40189" lon="5.64239">
        <ele>719.20361328125</ele>
        <time>2010-10-17T07:42:23Z</time>
      </trkpt>
      <trkpt lat="45.40445" lon="5.64311">
        <ele>717.28100585938</ele>
        <time>2010-10-17T07:42:41Z</time>
      </trkpt>
      <trkpt lat="45.40461" lon="5.64306">
        <ele>715.35815429688</ele>
        <time>2010-10-17T07:42:49Z</time>
      </trkpt>
      <trkpt lat="45.4047" lon="5.64297">
        <ele>714.87744140625</ele>
        <time>2010-10-17T07:42:55Z</time>
      </trkpt>
      <trkpt lat="45.40477" lon="5.64286">
        <ele>712.95483398438</ele>
        <time>2010-10-17T07:43:02Z</time>
      </trkpt>
      <trkpt lat="45.40483" lon="5.64281">
        <ele>710.07080078125</ele>
        <time>2010-10-17T07:43:12Z</time>
      </trkpt>
      <trkpt lat="45.40493" lon="5.64286">
        <ele>705.7451171875</ele>
        <time>2010-10-17T07:43:24Z</time>
      </trkpt>
      <trkpt lat="45.40507" lon="5.64291">
        <ele>702.86108398438</ele>
        <time>2010-10-17T07:43:31Z</time>
      </trkpt>
      <trkpt lat="45.40519" lon="5.6429">
        <ele>700.9384765625</ele>
        <time>2010-10-17T07:43:36Z</time>
      </trkpt>
      <trkpt lat="45.4053" lon="5.64291">
        <ele>699.49633789062</ele>
        <time>2010-10-17T07:43:41Z</time>
      </trkpt>
      <trkpt lat="45.40541" lon="5.64288">
        <ele>697.57373046875</ele>
        <time>2010-10-17T07:43:46Z</time>
      </trkpt>
      <trkpt lat="45.40561" lon="5.64282">
        <ele>696.61254882812</ele>
        <time>2010-10-17T07:43:51Z</time>
      </trkpt>
      <trkpt lat="45.40565" lon="5.64278">
        <ele>694.68969726562</ele>
        <time>2010-10-17T07:43:57Z</time>
      </trkpt>
      <trkpt lat="45.40575" lon="5.64279">
        <ele>693.24780273438</ele>
        <time>2010-10-17T07:44:02Z</time>
      </trkpt>
      <trkpt lat="45.40583" lon="5.6427">
        <ele>689.88330078125</ele>
        <time>2010-10-17T07:44:08Z</time>
      </trkpt>
      <trkpt lat="45.40595" lon="5.64268">
        <ele>687.96069335938</ele>
        <time>2010-10-17T07:44:12Z</time>
      </trkpt>
      <trkpt lat="45.40598" lon="5.64262">
        <ele>684.11547851562</ele>
        <time>2010-10-17T07:44:17Z</time>
      </trkpt>
      <trkpt lat="45.40606" lon="5.64267">
        <ele>682.67333984375</ele>
        <time>2010-10-17T07:44:21Z</time>
      </trkpt>
      <trkpt lat="45.40616" lon="5.64272">
        <ele>683.63452148438</ele>
        <time>2010-10-17T07:44:26Z</time>
      </trkpt>
      <trkpt lat="45.40648" lon="5.6428">
        <ele>685.55737304688</ele>
        <time>2010-10-17T07:44:34Z</time>
      </trkpt>
      <trkpt lat="45.40659" lon="5.64281">
        <ele>686.51879882812</ele>
        <time>2010-10-17T07:44:41Z</time>
      </trkpt>
      <trkpt lat="45.40631" lon="5.64291">
        <ele>686.0380859375</ele>
        <time>2010-10-17T07:44:49Z</time>
      </trkpt>
      <trkpt lat="45.40647" lon="5.64299">
        <ele>686.0380859375</ele>
        <time>2010-10-17T07:44:54Z</time>
      </trkpt>
      <trkpt lat="45.40666" lon="5.64303">
        <ele>686.0380859375</ele>
        <time>2010-10-17T07:44:58Z</time>
      </trkpt>
      <trkpt lat="45.40676" lon="5.6431">
        <ele>685.55737304688</ele>
        <time>2010-10-17T07:45:03Z</time>
      </trkpt>
      <trkpt lat="45.40685" lon="5.64317">
        <ele>686.0380859375</ele>
        <time>2010-10-17T07:45:11Z</time>
      </trkpt>
      <trkpt lat="45.40697" lon="5.64326">
        <ele>686.99926757812</ele>
        <time>2010-10-17T07:45:20Z</time>
      </trkpt>
      <trkpt lat="45.40708" lon="5.64337">
        <ele>686.99926757812</ele>
        <time>2010-10-17T07:45:28Z</time>
      </trkpt>
      <trkpt lat="45.4076" lon="5.64352">
        <ele>688.44140625</ele>
        <time>2010-10-17T07:45:38Z</time>
      </trkpt>
      <trkpt lat="45.40802" lon="5.6434">
        <ele>689.40258789062</ele>
        <time>2010-10-17T07:45:48Z</time>
      </trkpt>
      <trkpt lat="45.4085" lon="5.64343">
        <ele>690.36401367188</ele>
        <time>2010-10-17T07:45:55Z</time>
      </trkpt>
      <trkpt lat="45.40868" lon="5.64347">
        <ele>691.3251953125</ele>
        <time>2010-10-17T07:46:00Z</time>
      </trkpt>
      <trkpt lat="45.40908" lon="5.6434">
        <ele>691.3251953125</ele>
        <time>2010-10-17T07:46:05Z</time>
      </trkpt>
      <trkpt lat="45.40916" lon="5.64347">
        <ele>691.3251953125</ele>
        <time>2010-10-17T07:46:10Z</time>
      </trkpt>
      <trkpt lat="45.40934" lon="5.64354">
        <ele>691.3251953125</ele>
        <time>2010-10-17T07:46:15Z</time>
      </trkpt>
      <trkpt lat="45.40931" lon="5.64357">
        <ele>691.3251953125</ele>
        <time>2010-10-17T07:46:21Z</time>
      </trkpt>
      <trkpt lat="45.40946" lon="5.64365">
        <ele>691.80590820312</ele>
        <time>2010-10-17T07:46:27Z</time>
      </trkpt>
      <trkpt lat="45.40952" lon="5.64375">
        <ele>691.80590820312</ele>
        <time>2010-10-17T07:46:33Z</time>
      </trkpt>
      <trkpt lat="45.40974" lon="5.64382">
        <ele>691.80590820312</ele>
        <time>2010-10-17T07:46:38Z</time>
      </trkpt>
      <trkpt lat="45.40982" lon="5.64392">
        <ele>692.28662109375</ele>
        <time>2010-10-17T07:46:44Z</time>
      </trkpt>
      <trkpt lat="45.40984" lon="5.64406">
        <ele>692.76733398438</ele>
        <time>2010-10-17T07:46:51Z</time>
      </trkpt>
      <trkpt lat="45.4099" lon="5.64419">
        <ele>693.728515625</ele>
        <time>2010-10-17T07:46:58Z</time>
      </trkpt>
      <trkpt lat="45.41" lon="5.64431">
        <ele>693.728515625</ele>
        <time>2010-10-17T07:47:04Z</time>
      </trkpt>
      <trkpt lat="45.40999" lon="5.64447">
        <ele>694.20922851562</ele>
        <time>2010-10-17T07:47:09Z</time>
      </trkpt>
      <trkpt lat="45.41004" lon="5.6446">
        <ele>694.68969726562</ele>
        <time>2010-10-17T07:47:14Z</time>
      </trkpt>
      <trkpt lat="45.41005" lon="5.64473">
        <ele>695.17041015625</ele>
        <time>2010-10-17T07:47:19Z</time>
      </trkpt>
      <trkpt lat="45.41009" lon="5.64489">
        <ele>695.65112304688</ele>
        <time>2010-10-17T07:47:25Z</time>
      </trkpt>
      <trkpt lat="45.4101" lon="5.64506">
        <ele>696.1318359375</ele>
        <time>2010-10-17T07:47:31Z</time>
      </trkpt>
      <trkpt lat="45.41016" lon="5.64522">
        <ele>696.1318359375</ele>
        <time>2010-10-17T07:47:35Z</time>
      </trkpt>
      <trkpt lat="45.41025" lon="5.64533">
        <ele>696.1318359375</ele>
        <time>2010-10-17T07:47:39Z</time>
      </trkpt>
      <trkpt lat="45.41019" lon="5.64543">
        <ele>695.65112304688</ele>
        <time>2010-10-17T07:47:44Z</time>
      </trkpt>
      <trkpt lat="45.41023" lon="5.64559">
        <ele>695.65112304688</ele>
        <time>2010-10-17T07:47:49Z</time>
      </trkpt>
      <trkpt lat="45.41025" lon="5.64573">
        <ele>695.17041015625</ele>
        <time>2010-10-17T07:47:54Z</time>
      </trkpt>
      <trkpt lat="45.41043" lon="5.64596">
        <ele>694.68969726562</ele>
        <time>2010-10-17T07:47:58Z</time>
      </trkpt>
      <trkpt lat="45.4105" lon="5.64613">
        <ele>693.24780273438</ele>
        <time>2010-10-17T07:48:03Z</time>
      </trkpt>
      <trkpt lat="45.41045" lon="5.64625">
        <ele>692.28662109375</ele>
        <time>2010-10-17T07:48:08Z</time>
      </trkpt>
      <trkpt lat="45.41045" lon="5.64637">
        <ele>691.80590820312</ele>
        <time>2010-10-17T07:48:13Z</time>
      </trkpt>
      <trkpt lat="45.41047" lon="5.64665">
        <ele>690.84448242188</ele>
        <time>2010-10-17T07:48:18Z</time>
      </trkpt>
      <trkpt lat="45.41047" lon="5.64672">
        <ele>690.36401367188</ele>
        <time>2010-10-17T07:48:23Z</time>
      </trkpt>
      <trkpt lat="45.41052" lon="5.64686">
        <ele>690.36401367188</ele>
        <time>2010-10-17T07:48:27Z</time>
      </trkpt>
      <trkpt lat="45.41057" lon="5.64702">
        <ele>690.84448242188</ele>
        <time>2010-10-17T07:48:31Z</time>
      </trkpt>
      <trkpt lat="45.4106" lon="5.64716">
        <ele>691.3251953125</ele>
        <time>2010-10-17T07:48:36Z</time>
      </trkpt>
      <trkpt lat="45.41082" lon="5.64743">
        <ele>692.28662109375</ele>
        <time>2010-10-17T07:48:40Z</time>
      </trkpt>
      <trkpt lat="45.41092" lon="5.64759">
        <ele>693.24780273438</ele>
        <time>2010-10-17T07:48:45Z</time>
      </trkpt>
      <trkpt lat="45.41097" lon="5.64767">
        <ele>694.20922851562</ele>
        <time>2010-10-17T07:48:50Z</time>
      </trkpt>
      <trkpt lat="45.41106" lon="5.64777">
        <ele>695.65112304688</ele>
        <time>2010-10-17T07:48:54Z</time>
      </trkpt>
      <trkpt lat="45.4111" lon="5.64782">
        <ele>695.17041015625</ele>
        <time>2010-10-17T07:48:59Z</time>
      </trkpt>
      <trkpt lat="45.41113" lon="5.64786">
        <ele>696.1318359375</ele>
        <time>2010-10-17T07:49:03Z</time>
      </trkpt>
      <trkpt lat="45.41121" lon="5.6479">
        <ele>696.1318359375</ele>
        <time>2010-10-17T07:49:07Z</time>
      </trkpt>
      <trkpt lat="45.41128" lon="5.64798">
        <ele>697.09301757812</ele>
        <time>2010-10-17T07:49:12Z</time>
      </trkpt>
      <trkpt lat="45.41136" lon="5.64808">
        <ele>697.57373046875</ele>
        <time>2010-10-17T07:49:17Z</time>
      </trkpt>
      <trkpt lat="45.41142" lon="5.64818">
        <ele>698.53491210938</ele>
        <time>2010-10-17T07:49:21Z</time>
      </trkpt>
      <trkpt lat="45.41147" lon="5.64831">
        <ele>698.53491210938</ele>
        <time>2010-10-17T07:49:26Z</time>
      </trkpt>
      <trkpt lat="45.41153" lon="5.64842">
        <ele>699.015625</ele>
        <time>2010-10-17T07:49:32Z</time>
      </trkpt>
      <trkpt lat="45.41162" lon="5.64855">
        <ele>699.015625</ele>
        <time>2010-10-17T07:49:37Z</time>
      </trkpt>
      <trkpt lat="45.41169" lon="5.64866">
        <ele>699.015625</ele>
        <time>2010-10-17T07:49:41Z</time>
      </trkpt>
      <trkpt lat="45.41175" lon="5.64876">
        <ele>699.49633789062</ele>
        <time>2010-10-17T07:49:44Z</time>
      </trkpt>
      <trkpt lat="45.41179" lon="5.64884">
        <ele>699.49633789062</ele>
        <time>2010-10-17T07:49:49Z</time>
      </trkpt>
      <trkpt lat="45.41188" lon="5.64893">
        <ele>699.97705078125</ele>
        <time>2010-10-17T07:49:53Z</time>
      </trkpt>
      <trkpt lat="45.41195" lon="5.649">
        <ele>700.9384765625</ele>
        <time>2010-10-17T07:49:57Z</time>
      </trkpt>
      <trkpt lat="45.412" lon="5.64911">
        <ele>700.9384765625</ele>
        <time>2010-10-17T07:50:02Z</time>
      </trkpt>
      <trkpt lat="45.41208" lon="5.64916">
        <ele>700.9384765625</ele>
        <time>2010-10-17T07:50:06Z</time>
      </trkpt>
      <trkpt lat="45.41222" lon="5.64918">
        <ele>700.4580078125</ele>
        <time>2010-10-17T07:50:11Z</time>
      </trkpt>
      <trkpt lat="45.41232" lon="5.64917">
        <ele>699.49633789062</ele>
        <time>2010-10-17T07:50:16Z</time>
      </trkpt>
      <trkpt lat="45.41244" lon="5.64918">
        <ele>699.49633789062</ele>
        <time>2010-10-17T07:50:21Z</time>
      </trkpt>
      <trkpt lat="45.41259" lon="5.64916">
        <ele>699.49633789062</ele>
        <time>2010-10-17T07:50:25Z</time>
      </trkpt>
      <trkpt lat="45.4127" lon="5.64921">
        <ele>699.49633789062</ele>
        <time>2010-10-17T07:50:30Z</time>
      </trkpt>
      <trkpt lat="45.4128" lon="5.64918">
        <ele>699.49633789062</ele>
        <time>2010-10-17T07:50:35Z</time>
      </trkpt>
      <trkpt lat="45.41291" lon="5.64909">
        <ele>700.4580078125</ele>
        <time>2010-10-17T07:50:41Z</time>
      </trkpt>
      <trkpt lat="45.41294" lon="5.64898">
        <ele>700.9384765625</ele>
        <time>2010-10-17T07:50:45Z</time>
      </trkpt>
      <trkpt lat="45.41302" lon="5.64888">
        <ele>702.38037109375</ele>
        <time>2010-10-17T07:50:50Z</time>
      </trkpt>
      <trkpt lat="45.41313" lon="5.64883">
        <ele>703.341796875</ele>
        <time>2010-10-17T07:50:56Z</time>
      </trkpt>
      <trkpt lat="45.41325" lon="5.64879">
        <ele>704.30322265625</ele>
        <time>2010-10-17T07:51:02Z</time>
      </trkpt>
      <trkpt lat="45.41343" lon="5.64864">
        <ele>704.78369140625</ele>
        <time>2010-10-17T07:51:10Z</time>
      </trkpt>
      <trkpt lat="45.41371" lon="5.64861">
        <ele>705.26440429688</ele>
        <time>2010-10-17T07:51:14Z</time>
      </trkpt>
      <trkpt lat="45.41386" lon="5.64857">
        <ele>705.26440429688</ele>
        <time>2010-10-17T07:51:19Z</time>
      </trkpt>
      <trkpt lat="45.41405" lon="5.64853">
        <ele>705.26440429688</ele>
        <time>2010-10-17T07:51:25Z</time>
      </trkpt>
      <trkpt lat="45.41412" lon="5.64836">
        <ele>704.78369140625</ele>
        <time>2010-10-17T07:51:29Z</time>
      </trkpt>
      <trkpt lat="45.41426" lon="5.64833">
        <ele>704.30322265625</ele>
        <time>2010-10-17T07:51:33Z</time>
      </trkpt>
      <trkpt lat="45.41441" lon="5.6483">
        <ele>704.78369140625</ele>
        <time>2010-10-17T07:51:37Z</time>
      </trkpt>
      <trkpt lat="45.41454" lon="5.6483">
        <ele>704.78369140625</ele>
        <time>2010-10-17T07:51:41Z</time>
      </trkpt>
      <trkpt lat="45.41471" lon="5.64829">
        <ele>704.78369140625</ele>
        <time>2010-10-17T07:51:46Z</time>
      </trkpt>
      <trkpt lat="45.41486" lon="5.64823">
        <ele>705.26440429688</ele>
        <time>2010-10-17T07:51:50Z</time>
      </trkpt>
      <trkpt lat="45.41497" lon="5.64822">
        <ele>705.7451171875</ele>
        <time>2010-10-17T07:51:54Z</time>
      </trkpt>
      <trkpt lat="45.41507" lon="5.64825">
        <ele>705.26440429688</ele>
        <time>2010-10-17T07:51:58Z</time>
      </trkpt>
      <trkpt lat="45.41515" lon="5.64829">
        <ele>706.2255859375</ele>
        <time>2010-10-17T07:52:02Z</time>
      </trkpt>
      <trkpt lat="45.41521" lon="5.64832">
        <ele>707.18701171875</ele>
        <time>2010-10-17T07:52:06Z</time>
      </trkpt>
      <trkpt lat="45.41527" lon="5.64835">
        <ele>707.66772460938</ele>
        <time>2010-10-17T07:52:11Z</time>
      </trkpt>
      <trkpt lat="45.41536" lon="5.64839">
        <ele>708.1484375</ele>
        <time>2010-10-17T07:52:16Z</time>
      </trkpt>
      <trkpt lat="45.41544" lon="5.64848">
        <ele>708.62890625</ele>
        <time>2010-10-17T07:52:22Z</time>
      </trkpt>
      <trkpt lat="45.41561" lon="5.64849">
        <ele>709.10961914062</ele>
        <time>2010-10-17T07:52:28Z</time>
      </trkpt>
      <trkpt lat="45.41575" lon="5.64862">
        <ele>710.07080078125</ele>
        <time>2010-10-17T07:52:33Z</time>
      </trkpt>
      <trkpt lat="45.41584" lon="5.64867">
        <ele>710.55151367188</ele>
        <time>2010-10-17T07:52:37Z</time>
      </trkpt>
      <trkpt lat="45.41594" lon="5.64871">
        <ele>711.99365234375</ele>
        <time>2010-10-17T07:52:43Z</time>
      </trkpt>
      <trkpt lat="45.41606" lon="5.64877">
        <ele>713.435546875</ele>
        <time>2010-10-17T07:52:48Z</time>
      </trkpt>
      <trkpt lat="45.41618" lon="5.64883">
        <ele>714.39672851562</ele>
        <time>2010-10-17T07:52:54Z</time>
      </trkpt>
      <trkpt lat="45.41629" lon="5.64889">
        <ele>714.39672851562</ele>
        <time>2010-10-17T07:52:59Z</time>
      </trkpt>
      <trkpt lat="45.41639" lon="5.64895">
        <ele>714.87744140625</ele>
        <time>2010-10-17T07:53:04Z</time>
      </trkpt>
      <trkpt lat="45.41648" lon="5.64899">
        <ele>715.35815429688</ele>
        <time>2010-10-17T07:53:09Z</time>
      </trkpt>
      <trkpt lat="45.4166" lon="5.6491">
        <ele>714.87744140625</ele>
        <time>2010-10-17T07:53:14Z</time>
      </trkpt>
      <trkpt lat="45.41668" lon="5.64917">
        <ele>715.35815429688</ele>
        <time>2010-10-17T07:53:18Z</time>
      </trkpt>
      <trkpt lat="45.41679" lon="5.64926">
        <ele>715.35815429688</ele>
        <time>2010-10-17T07:53:23Z</time>
      </trkpt>
      <trkpt lat="45.41688" lon="5.64918">
        <ele>715.35815429688</ele>
        <time>2010-10-17T07:53:27Z</time>
      </trkpt>
      <trkpt lat="45.417" lon="5.64925">
        <ele>715.8388671875</ele>
        <time>2010-10-17T07:53:32Z</time>
      </trkpt>
      <trkpt lat="45.4171" lon="5.64937">
        <ele>716.31958007812</ele>
        <time>2010-10-17T07:53:38Z</time>
      </trkpt>
      <trkpt lat="45.41719" lon="5.64944">
        <ele>717.28100585938</ele>
        <time>2010-10-17T07:53:43Z</time>
      </trkpt>
      <trkpt lat="45.41728" lon="5.6495">
        <ele>717.76147460938</ele>
        <time>2010-10-17T07:53:48Z</time>
      </trkpt>
      <trkpt lat="45.41738" lon="5.64959">
        <ele>718.72290039062</ele>
        <time>2010-10-17T07:53:54Z</time>
      </trkpt>
      <trkpt lat="45.41749" lon="5.64967">
        <ele>718.72290039062</ele>
        <time>2010-10-17T07:53:58Z</time>
      </trkpt>
      <trkpt lat="45.41759" lon="5.64963">
        <ele>719.68432617188</ele>
        <time>2010-10-17T07:54:03Z</time>
      </trkpt>
      <trkpt lat="45.41761" lon="5.64956">
        <ele>719.68432617188</ele>
        <time>2010-10-17T07:54:07Z</time>
      </trkpt>
      <trkpt lat="45.41702" lon="5.64957">
        <ele>719.68432617188</ele>
        <time>2010-10-17T07:54:12Z</time>
      </trkpt>
      <trkpt lat="45.41722" lon="5.6496">
        <ele>719.20361328125</ele>
        <time>2010-10-17T07:54:17Z</time>
      </trkpt>
      <trkpt lat="45.4173" lon="5.64964">
        <ele>718.72290039062</ele>
        <time>2010-10-17T07:54:22Z</time>
      </trkpt>
      <trkpt lat="45.41745" lon="5.64975">
        <ele>718.72290039062</ele>
        <time>2010-10-17T07:54:27Z</time>
      </trkpt>
      <trkpt lat="45.41747" lon="5.64985">
        <ele>719.20361328125</ele>
        <time>2010-10-17T07:54:32Z</time>
      </trkpt>
      <trkpt lat="45.4176" lon="5.64997">
        <ele>720.16479492188</ele>
        <time>2010-10-17T07:54:37Z</time>
      </trkpt>
      <trkpt lat="45.41777" lon="5.65005">
        <ele>721.12622070312</ele>
        <time>2010-10-17T07:54:42Z</time>
      </trkpt>
      <trkpt lat="45.41797" lon="5.65015">
        <ele>721.12622070312</ele>
        <time>2010-10-17T07:54:47Z</time>
      </trkpt>
      <trkpt lat="45.41813" lon="5.65023">
        <ele>722.56811523438</ele>
        <time>2010-10-17T07:54:52Z</time>
      </trkpt>
      <trkpt lat="45.41827" lon="5.65026">
        <ele>723.048828125</ele>
        <time>2010-10-17T07:54:56Z</time>
      </trkpt>
      <trkpt lat="45.41837" lon="5.65024">
        <ele>722.56811523438</ele>
        <time>2010-10-17T07:55:00Z</time>
      </trkpt>
      <trkpt lat="45.41792" lon="5.65033">
        <ele>722.56811523438</ele>
        <time>2010-10-17T07:55:05Z</time>
      </trkpt>
      <trkpt lat="45.41808" lon="5.65041">
        <ele>722.56811523438</ele>
        <time>2010-10-17T07:55:10Z</time>
      </trkpt>
      <trkpt lat="45.41672" lon="5.65039">
        <ele>722.56811523438</ele>
        <time>2010-10-17T07:55:14Z</time>
      </trkpt>
      <trkpt lat="45.41675" lon="5.65052">
        <ele>723.048828125</ele>
        <time>2010-10-17T07:55:19Z</time>
      </trkpt>
      <trkpt lat="45.41685" lon="5.65058">
        <ele>723.048828125</ele>
        <time>2010-10-17T07:55:24Z</time>
      </trkpt>
      <trkpt lat="45.41695" lon="5.65048">
        <ele>723.048828125</ele>
        <time>2010-10-17T07:55:28Z</time>
      </trkpt>
      <trkpt lat="45.41707" lon="5.6505">
        <ele>723.048828125</ele>
        <time>2010-10-17T07:55:32Z</time>
      </trkpt>
      <trkpt lat="45.41717" lon="5.65048">
        <ele>723.52954101562</ele>
        <time>2010-10-17T07:55:37Z</time>
      </trkpt>
      <trkpt lat="45.41727" lon="5.65049">
        <ele>724.49072265625</ele>
        <time>2010-10-17T07:55:41Z</time>
      </trkpt>
      <trkpt lat="45.41735" lon="5.65052">
        <ele>723.52954101562</ele>
        <time>2010-10-17T07:55:46Z</time>
      </trkpt>
      <trkpt lat="45.41758" lon="5.65053">
        <ele>720.16479492188</ele>
        <time>2010-10-17T07:55:57Z</time>
      </trkpt>
      <trkpt lat="45.4177" lon="5.65054">
        <ele>718.72290039062</ele>
        <time>2010-10-17T07:56:01Z</time>
      </trkpt>
      <trkpt lat="45.41781" lon="5.65056">
        <ele>717.28100585938</ele>
        <time>2010-10-17T07:56:06Z</time>
      </trkpt>
      <trkpt lat="45.41793" lon="5.65056">
        <ele>715.8388671875</ele>
        <time>2010-10-17T07:56:13Z</time>
      </trkpt>
      <trkpt lat="45.41807" lon="5.65054">
        <ele>713.916015625</ele>
        <time>2010-10-17T07:56:21Z</time>
      </trkpt>
      <trkpt lat="45.41814" lon="5.65063">
        <ele>713.435546875</ele>
        <time>2010-10-17T07:56:27Z</time>
      </trkpt>
      <trkpt lat="45.41839" lon="5.65084">
        <ele>713.435546875</ele>
        <time>2010-10-17T07:56:31Z</time>
      </trkpt>
      <trkpt lat="45.41848" lon="5.65098">
        <ele>713.435546875</ele>
        <time>2010-10-17T07:56:35Z</time>
      </trkpt>
      <trkpt lat="45.41856" lon="5.65109">
        <ele>713.916015625</ele>
        <time>2010-10-17T07:56:41Z</time>
      </trkpt>
      <trkpt lat="45.4186" lon="5.6512">
        <ele>715.35815429688</ele>
        <time>2010-10-17T07:56:48Z</time>
      </trkpt>
      <trkpt lat="45.41862" lon="5.65134">
        <ele>717.28100585938</ele>
        <time>2010-10-17T07:56:56Z</time>
      </trkpt>
      <trkpt lat="45.41864" lon="5.6515">
        <ele>719.20361328125</ele>
        <time>2010-10-17T07:57:02Z</time>
      </trkpt>
      <trkpt lat="45.41864" lon="5.65166">
        <ele>721.12622070312</ele>
        <time>2010-10-17T07:57:12Z</time>
      </trkpt>
      <trkpt lat="45.41862" lon="5.65185">
        <ele>723.52954101562</ele>
        <time>2010-10-17T07:57:20Z</time>
      </trkpt>
      <trkpt lat="45.4187" lon="5.65197">
        <ele>724.97143554688</ele>
        <time>2010-10-17T07:57:32Z</time>
      </trkpt>
      <trkpt lat="45.41883" lon="5.6522">
        <ele>727.85522460938</ele>
        <time>2010-10-17T07:57:48Z</time>
      </trkpt>
      <trkpt lat="45.41905" lon="5.65233">
        <ele>730.25854492188</ele>
        <time>2010-10-17T07:58:00Z</time>
      </trkpt>
      <trkpt lat="45.41927" lon="5.6525">
        <ele>732.18139648438</ele>
        <time>2010-10-17T07:58:12Z</time>
      </trkpt>
      <trkpt lat="45.41948" lon="5.65267">
        <ele>733.62329101562</ele>
        <time>2010-10-17T07:58:22Z</time>
      </trkpt>
      <trkpt lat="45.41961" lon="5.65276">
        <ele>733.62329101562</ele>
        <time>2010-10-17T07:58:32Z</time>
      </trkpt>
      <trkpt lat="45.41969" lon="5.65289">
        <ele>734.10400390625</ele>
        <time>2010-10-17T07:58:39Z</time>
      </trkpt>
      <trkpt lat="45.4198" lon="5.65294">
        <ele>734.58471679688</ele>
        <time>2010-10-17T07:58:47Z</time>
      </trkpt>
      <trkpt lat="45.41991" lon="5.65298">
        <ele>734.10400390625</ele>
        <time>2010-10-17T07:58:53Z</time>
      </trkpt>
      <trkpt lat="45.42" lon="5.65306">
        <ele>735.0654296875</ele>
        <time>2010-10-17T07:58:57Z</time>
      </trkpt>
      <trkpt lat="45.42007" lon="5.65309">
        <ele>735.0654296875</ele>
        <time>2010-10-17T07:59:01Z</time>
      </trkpt>
      <trkpt lat="45.42014" lon="5.65311">
        <ele>735.0654296875</ele>
        <time>2010-10-17T07:59:05Z</time>
      </trkpt>
      <trkpt lat="45.42019" lon="5.65311">
        <ele>735.5458984375</ele>
        <time>2010-10-17T07:59:10Z</time>
      </trkpt>
      <trkpt lat="45.4202" lon="5.65321">
        <ele>736.98779296875</ele>
        <time>2010-10-17T07:59:16Z</time>
      </trkpt>
      <trkpt lat="45.42012" lon="5.65327">
        <ele>736.98779296875</ele>
        <time>2010-10-17T07:59:23Z</time>
      </trkpt>
      <trkpt lat="45.42012" lon="5.65339">
        <ele>737.46850585938</ele>
        <time>2010-10-17T07:59:33Z</time>
      </trkpt>
      <trkpt lat="45.42013" lon="5.65348">
        <ele>738.42993164062</ele>
        <time>2010-10-17T07:59:42Z</time>
      </trkpt>
      <trkpt lat="45.42012" lon="5.65363">
        <ele>738.42993164062</ele>
        <time>2010-10-17T07:59:51Z</time>
      </trkpt>
      <trkpt lat="45.42008" lon="5.65389">
        <ele>739.39111328125</ele>
        <time>2010-10-17T08:00:03Z</time>
      </trkpt>
      <trkpt lat="45.42005" lon="5.65411">
        <ele>740.3525390625</ele>
        <time>2010-10-17T08:00:12Z</time>
      </trkpt>
      <trkpt lat="45.42007" lon="5.65424">
        <ele>737.94921875</ele>
        <time>2010-10-17T08:00:20Z</time>
      </trkpt>
      <trkpt lat="45.42009" lon="5.65434">
        <ele>735.5458984375</ele>
        <time>2010-10-17T08:00:29Z</time>
      </trkpt>
      <trkpt lat="45.42015" lon="5.65445">
        <ele>734.10400390625</ele>
        <time>2010-10-17T08:00:36Z</time>
      </trkpt>
      <trkpt lat="45.42023" lon="5.65457">
        <ele>733.62329101562</ele>
        <time>2010-10-17T08:00:41Z</time>
      </trkpt>
      <trkpt lat="45.42034" lon="5.65474">
        <ele>734.58471679688</ele>
        <time>2010-10-17T08:00:55Z</time>
      </trkpt>
      <trkpt lat="45.42141" lon="5.65435">
        <ele>736.98779296875</ele>
        <time>2010-10-17T08:01:09Z</time>
      </trkpt>
      <trkpt lat="45.42137" lon="5.65446">
        <ele>739.39111328125</ele>
        <time>2010-10-17T08:01:17Z</time>
      </trkpt>
      <trkpt lat="45.4213" lon="5.65458">
        <ele>741.31372070312</ele>
        <time>2010-10-17T08:01:24Z</time>
      </trkpt>
      <trkpt lat="45.4213" lon="5.65475">
        <ele>741.79443359375</ele>
        <time>2010-10-17T08:01:30Z</time>
      </trkpt>
      <trkpt lat="45.42125" lon="5.65486">
        <ele>743.236328125</ele>
        <time>2010-10-17T08:01:37Z</time>
      </trkpt>
      <trkpt lat="45.42118" lon="5.65498">
        <ele>743.236328125</ele>
        <time>2010-10-17T08:01:43Z</time>
      </trkpt>
      <trkpt lat="45.42114" lon="5.65511">
        <ele>742.27514648438</ele>
        <time>2010-10-17T08:01:49Z</time>
      </trkpt>
      <trkpt lat="45.42122" lon="5.65524">
        <ele>742.27514648438</ele>
        <time>2010-10-17T08:01:55Z</time>
      </trkpt>
      <trkpt lat="45.42132" lon="5.65552">
        <ele>741.79443359375</ele>
        <time>2010-10-17T08:02:01Z</time>
      </trkpt>
      <trkpt lat="45.42202" lon="5.65621">
        <ele>741.79443359375</ele>
        <time>2010-10-17T08:02:07Z</time>
      </trkpt>
      <trkpt lat="45.42216" lon="5.65649">
        <ele>742.755859375</ele>
        <time>2010-10-17T08:02:13Z</time>
      </trkpt>
      <trkpt lat="45.42253" lon="5.65666">
        <ele>742.755859375</ele>
        <time>2010-10-17T08:02:19Z</time>
      </trkpt>
      <trkpt lat="45.42269" lon="5.65672">
        <ele>741.79443359375</ele>
        <time>2010-10-17T08:02:24Z</time>
      </trkpt>
      <trkpt lat="45.42269" lon="5.65687">
        <ele>740.3525390625</ele>
        <time>2010-10-17T08:02:30Z</time>
      </trkpt>
      <trkpt lat="45.42269" lon="5.65703">
        <ele>739.39111328125</ele>
        <time>2010-10-17T08:02:36Z</time>
      </trkpt>
      <trkpt lat="45.42266" lon="5.65714">
        <ele>738.42993164062</ele>
        <time>2010-10-17T08:02:43Z</time>
      </trkpt>
      <trkpt lat="45.42265" lon="5.65726">
        <ele>737.46850585938</ele>
        <time>2010-10-17T08:02:49Z</time>
      </trkpt>
      <trkpt lat="45.42267" lon="5.65739">
        <ele>736.98779296875</ele>
        <time>2010-10-17T08:02:54Z</time>
      </trkpt>
      <trkpt lat="45.42264" lon="5.6575">
        <ele>736.02661132812</ele>
        <time>2010-10-17T08:03:00Z</time>
      </trkpt>
      <trkpt lat="45.42265" lon="5.65764">
        <ele>736.02661132812</ele>
        <time>2010-10-17T08:03:06Z</time>
      </trkpt>
      <trkpt lat="45.42266" lon="5.6578">
        <ele>735.0654296875</ele>
        <time>2010-10-17T08:03:18Z</time>
      </trkpt>
      <trkpt lat="45.42263" lon="5.65794">
        <ele>735.5458984375</ele>
        <time>2010-10-17T08:03:24Z</time>
      </trkpt>
      <trkpt lat="45.42263" lon="5.65808">
        <ele>735.5458984375</ele>
        <time>2010-10-17T08:03:30Z</time>
      </trkpt>
      <trkpt lat="45.42263" lon="5.6582">
        <ele>736.02661132812</ele>
        <time>2010-10-17T08:03:36Z</time>
      </trkpt>
      <trkpt lat="45.42269" lon="5.6583">
        <ele>736.02661132812</ele>
        <time>2010-10-17T08:03:42Z</time>
      </trkpt>
      <trkpt lat="45.42276" lon="5.65841">
        <ele>736.50732421875</ele>
        <time>2010-10-17T08:03:48Z</time>
      </trkpt>
      <trkpt lat="45.42287" lon="5.6585">
        <ele>736.50732421875</ele>
        <time>2010-10-17T08:03:55Z</time>
      </trkpt>
      <trkpt lat="45.42292" lon="5.65863">
        <ele>736.50732421875</ele>
        <time>2010-10-17T08:04:02Z</time>
      </trkpt>
      <trkpt lat="45.42309" lon="5.65869">
        <ele>736.02661132812</ele>
        <time>2010-10-17T08:04:19Z</time>
      </trkpt>
      <trkpt lat="45.42315" lon="5.6588">
        <ele>735.5458984375</ele>
        <time>2010-10-17T08:04:31Z</time>
      </trkpt>
      <trkpt lat="45.4223" lon="5.65879">
        <ele>730.25854492188</ele>
        <time>2010-10-17T08:05:39Z</time>
      </trkpt>
      <trkpt lat="45.42233" lon="5.65892">
        <ele>730.25854492188</ele>
        <time>2010-10-17T08:05:48Z</time>
      </trkpt>
      <trkpt lat="45.42235" lon="5.65905">
        <ele>728.81665039062</ele>
        <time>2010-10-17T08:05:59Z</time>
      </trkpt>
      <trkpt lat="45.42223" lon="5.65928">
        <ele>729.29711914062</ele>
        <time>2010-10-17T08:06:13Z</time>
      </trkpt>
      <trkpt lat="45.42218" lon="5.65951">
        <ele>730.25854492188</ele>
        <time>2010-10-17T08:06:24Z</time>
      </trkpt>
      <trkpt lat="45.42216" lon="5.65975">
        <ele>730.25854492188</ele>
        <time>2010-10-17T08:06:35Z</time>
      </trkpt>
      <trkpt lat="45.42234" lon="5.66003">
        <ele>730.25854492188</ele>
        <time>2010-10-17T08:06:45Z</time>
      </trkpt>
      <trkpt lat="45.42427" lon="5.66081">
        <ele>729.29711914062</ele>
        <time>2010-10-17T08:06:55Z</time>
      </trkpt>
      <trkpt lat="45.42488" lon="5.66149">
        <ele>730.25854492188</ele>
        <time>2010-10-17T08:07:06Z</time>
      </trkpt>
      <trkpt lat="45.42521" lon="5.66176">
        <ele>730.25854492188</ele>
        <time>2010-10-17T08:07:15Z</time>
      </trkpt>
      <trkpt lat="45.42537" lon="5.66191">
        <ele>729.77783203125</ele>
        <time>2010-10-17T08:07:27Z</time>
      </trkpt>
      <trkpt lat="45.4255" lon="5.66225">
        <ele>729.77783203125</ele>
        <time>2010-10-17T08:07:40Z</time>
      </trkpt>
      <trkpt lat="45.42553" lon="5.66243">
        <ele>729.77783203125</ele>
        <time>2010-10-17T08:07:48Z</time>
      </trkpt>
      <trkpt lat="45.42553" lon="5.66259">
        <ele>730.25854492188</ele>
        <time>2010-10-17T08:08:01Z</time>
      </trkpt>
      <trkpt lat="45.42555" lon="5.6628">
        <ele>730.7392578125</ele>
        <time>2010-10-17T08:08:08Z</time>
      </trkpt>
      <trkpt lat="45.42567" lon="5.66299">
        <ele>731.21997070312</ele>
        <time>2010-10-17T08:08:14Z</time>
      </trkpt>
      <trkpt lat="45.42575" lon="5.66324">
        <ele>733.142578125</ele>
        <time>2010-10-17T08:08:30Z</time>
      </trkpt>
      <trkpt lat="45.42686" lon="5.66349">
        <ele>737.46850585938</ele>
        <time>2010-10-17T08:08:58Z</time>
      </trkpt>
      <trkpt lat="45.42703" lon="5.66343">
        <ele>736.98779296875</ele>
        <time>2010-10-17T08:09:10Z</time>
      </trkpt>
      <trkpt lat="45.42708" lon="5.6635">
        <ele>736.02661132812</ele>
        <time>2010-10-17T08:09:17Z</time>
      </trkpt>
      <trkpt lat="45.42712" lon="5.66364">
        <ele>734.58471679688</ele>
        <time>2010-10-17T08:09:24Z</time>
      </trkpt>
      <trkpt lat="45.42715" lon="5.66378">
        <ele>733.142578125</ele>
        <time>2010-10-17T08:09:32Z</time>
      </trkpt>
      <trkpt lat="45.4272" lon="5.66394">
        <ele>731.21997070312</ele>
        <time>2010-10-17T08:09:41Z</time>
      </trkpt>
      <trkpt lat="45.42736" lon="5.66433">
        <ele>729.29711914062</ele>
        <time>2010-10-17T08:09:48Z</time>
      </trkpt>
      <trkpt lat="45.42738" lon="5.66456">
        <ele>728.3359375</ele>
        <time>2010-10-17T08:09:52Z</time>
      </trkpt>
      <trkpt lat="45.42741" lon="5.66473">
        <ele>727.85522460938</ele>
        <time>2010-10-17T08:09:57Z</time>
      </trkpt>
      <trkpt lat="45.42745" lon="5.66483">
        <ele>727.85522460938</ele>
        <time>2010-10-17T08:10:07Z</time>
      </trkpt>
      <trkpt lat="45.42748" lon="5.66493">
        <ele>727.37475585938</ele>
        <time>2010-10-17T08:10:14Z</time>
      </trkpt>
      <trkpt lat="45.42752" lon="5.6651">
        <ele>727.37475585938</ele>
        <time>2010-10-17T08:10:19Z</time>
      </trkpt>
      <trkpt lat="45.42761" lon="5.66521">
        <ele>726.89404296875</ele>
        <time>2010-10-17T08:10:24Z</time>
      </trkpt>
      <trkpt lat="45.42764" lon="5.66533">
        <ele>726.89404296875</ele>
        <time>2010-10-17T08:10:31Z</time>
      </trkpt>
      <trkpt lat="45.42781" lon="5.66544">
        <ele>724.49072265625</ele>
        <time>2010-10-17T08:10:43Z</time>
      </trkpt>
      <trkpt lat="45.42794" lon="5.66582">
        <ele>723.52954101562</ele>
        <time>2010-10-17T08:10:54Z</time>
      </trkpt>
      <trkpt lat="45.42807" lon="5.66594">
        <ele>723.048828125</ele>
        <time>2010-10-17T08:10:58Z</time>
      </trkpt>
      <trkpt lat="45.42817" lon="5.66606">
        <ele>724.01000976562</ele>
        <time>2010-10-17T08:11:04Z</time>
      </trkpt>
      <trkpt lat="45.42824" lon="5.66628">
        <ele>724.01000976562</ele>
        <time>2010-10-17T08:11:11Z</time>
      </trkpt>
      <trkpt lat="45.42831" lon="5.66637">
        <ele>723.048828125</ele>
        <time>2010-10-17T08:11:20Z</time>
      </trkpt>
      <trkpt lat="45.4285" lon="5.66641">
        <ele>722.08740234375</ele>
        <time>2010-10-17T08:11:32Z</time>
      </trkpt>
      <trkpt lat="45.42864" lon="5.6667">
        <ele>721.60668945312</ele>
        <time>2010-10-17T08:11:41Z</time>
      </trkpt>
      <trkpt lat="45.42876" lon="5.66695">
        <ele>721.60668945312</ele>
        <time>2010-10-17T08:11:47Z</time>
      </trkpt>
      <trkpt lat="45.42879" lon="5.66716">
        <ele>719.20361328125</ele>
        <time>2010-10-17T08:11:54Z</time>
      </trkpt>
      <trkpt lat="45.42884" lon="5.66734">
        <ele>717.28100585938</ele>
        <time>2010-10-17T08:12:00Z</time>
      </trkpt>
      <trkpt lat="45.42892" lon="5.66756">
        <ele>716.80029296875</ele>
        <time>2010-10-17T08:12:06Z</time>
      </trkpt>
      <trkpt lat="45.42907" lon="5.66775">
        <ele>715.8388671875</ele>
        <time>2010-10-17T08:12:10Z</time>
      </trkpt>
      <trkpt lat="45.42907" lon="5.66787">
        <ele>715.35815429688</ele>
        <time>2010-10-17T08:12:16Z</time>
      </trkpt>
      <trkpt lat="45.4291" lon="5.66815">
        <ele>715.35815429688</ele>
        <time>2010-10-17T08:12:23Z</time>
      </trkpt>
      <trkpt lat="45.42915" lon="5.66838">
        <ele>716.31958007812</ele>
        <time>2010-10-17T08:12:30Z</time>
      </trkpt>
      <trkpt lat="45.42919" lon="5.66858">
        <ele>715.8388671875</ele>
        <time>2010-10-17T08:12:35Z</time>
      </trkpt>
      <trkpt lat="45.42921" lon="5.66888">
        <ele>714.87744140625</ele>
        <time>2010-10-17T08:12:40Z</time>
      </trkpt>
      <trkpt lat="45.42928" lon="5.66901">
        <ele>714.87744140625</ele>
        <time>2010-10-17T08:12:45Z</time>
      </trkpt>
      <trkpt lat="45.42938" lon="5.6693">
        <ele>713.916015625</ele>
        <time>2010-10-17T08:12:51Z</time>
      </trkpt>
      <trkpt lat="45.42937" lon="5.66946">
        <ele>711.51293945312</ele>
        <time>2010-10-17T08:12:56Z</time>
      </trkpt>
      <trkpt lat="45.42947" lon="5.66957">
        <ele>707.18701171875</ele>
        <time>2010-10-17T08:13:04Z</time>
      </trkpt>
      <trkpt lat="45.42964" lon="5.66964">
        <ele>703.82250976562</ele>
        <time>2010-10-17T08:13:11Z</time>
      </trkpt>
      <trkpt lat="45.42978" lon="5.66974">
        <ele>702.38037109375</ele>
        <time>2010-10-17T08:13:17Z</time>
      </trkpt>
      <trkpt lat="45.42988" lon="5.66987">
        <ele>701.41918945312</ele>
        <time>2010-10-17T08:13:21Z</time>
      </trkpt>
      <trkpt lat="45.43003" lon="5.67">
        <ele>700.4580078125</ele>
        <time>2010-10-17T08:13:25Z</time>
      </trkpt>
      <trkpt lat="45.4302" lon="5.67025">
        <ele>699.49633789062</ele>
        <time>2010-10-17T08:13:30Z</time>
      </trkpt>
      <trkpt lat="45.43022" lon="5.67037">
        <ele>699.97705078125</ele>
        <time>2010-10-17T08:13:35Z</time>
      </trkpt>
      <trkpt lat="45.43029" lon="5.67054">
        <ele>699.49633789062</ele>
        <time>2010-10-17T08:13:41Z</time>
      </trkpt>
      <trkpt lat="45.43033" lon="5.6707">
        <ele>699.49633789062</ele>
        <time>2010-10-17T08:13:45Z</time>
      </trkpt>
      <trkpt lat="45.43033" lon="5.67087">
        <ele>699.49633789062</ele>
        <time>2010-10-17T08:13:50Z</time>
      </trkpt>
      <trkpt lat="45.43035" lon="5.67103">
        <ele>699.49633789062</ele>
        <time>2010-10-17T08:13:54Z</time>
      </trkpt>
      <trkpt lat="45.43038" lon="5.67117">
        <ele>700.4580078125</ele>
        <time>2010-10-17T08:14:01Z</time>
      </trkpt>
      <trkpt lat="45.43047" lon="5.67127">
        <ele>700.9384765625</ele>
        <time>2010-10-17T08:14:09Z</time>
      </trkpt>
      <trkpt lat="45.43067" lon="5.67141">
        <ele>699.97705078125</ele>
        <time>2010-10-17T08:14:19Z</time>
      </trkpt>
      <trkpt lat="45.43072" lon="5.67154">
        <ele>700.4580078125</ele>
        <time>2010-10-17T08:14:32Z</time>
      </trkpt>
      <trkpt lat="45.43082" lon="5.67168">
        <ele>699.97705078125</ele>
        <time>2010-10-17T08:14:41Z</time>
      </trkpt>
      <trkpt lat="45.43097" lon="5.67198">
        <ele>699.49633789062</ele>
        <time>2010-10-17T08:14:49Z</time>
      </trkpt>
      <trkpt lat="45.43106" lon="5.67205">
        <ele>699.97705078125</ele>
        <time>2010-10-17T08:14:54Z</time>
      </trkpt>
      <trkpt lat="45.43109" lon="5.67221">
        <ele>699.97705078125</ele>
        <time>2010-10-17T08:15:00Z</time>
      </trkpt>
      <trkpt lat="45.43128" lon="5.67276">
        <ele>701.41918945312</ele>
        <time>2010-10-17T08:15:12Z</time>
      </trkpt>
      <trkpt lat="45.4314" lon="5.67301">
        <ele>700.4580078125</ele>
        <time>2010-10-17T08:15:24Z</time>
      </trkpt>
      <trkpt lat="45.43147" lon="5.67318">
        <ele>700.4580078125</ele>
        <time>2010-10-17T08:15:35Z</time>
      </trkpt>
      <trkpt lat="45.43147" lon="5.6733">
        <ele>701.89990234375</ele>
        <time>2010-10-17T08:15:45Z</time>
      </trkpt>
      <trkpt lat="45.4315" lon="5.67344">
        <ele>702.38037109375</ele>
        <time>2010-10-17T08:15:52Z</time>
      </trkpt>
      <trkpt lat="45.43155" lon="5.67359">
        <ele>704.30322265625</ele>
        <time>2010-10-17T08:16:03Z</time>
      </trkpt>
      <trkpt lat="45.43171" lon="5.67385">
        <ele>706.70629882812</ele>
        <time>2010-10-17T08:16:21Z</time>
      </trkpt>
      <trkpt lat="45.43171" lon="5.67399">
        <ele>707.18701171875</ele>
        <time>2010-10-17T08:16:30Z</time>
      </trkpt>
      <trkpt lat="45.43167" lon="5.67411">
        <ele>708.62890625</ele>
        <time>2010-10-17T08:16:39Z</time>
      </trkpt>
      <trkpt lat="45.43167" lon="5.67425">
        <ele>709.10961914062</ele>
        <time>2010-10-17T08:16:46Z</time>
      </trkpt>
      <trkpt lat="45.43167" lon="5.67439">
        <ele>709.10961914062</ele>
        <time>2010-10-17T08:16:53Z</time>
      </trkpt>
      <trkpt lat="45.43169" lon="5.67454">
        <ele>709.59033203125</ele>
        <time>2010-10-17T08:17:01Z</time>
      </trkpt>
      <trkpt lat="45.43173" lon="5.67469">
        <ele>709.59033203125</ele>
        <time>2010-10-17T08:17:09Z</time>
      </trkpt>
      <trkpt lat="45.43175" lon="5.67484">
        <ele>710.07080078125</ele>
        <time>2010-10-17T08:17:15Z</time>
      </trkpt>
      <trkpt lat="45.4318" lon="5.67496">
        <ele>711.0322265625</ele>
        <time>2010-10-17T08:17:23Z</time>
      </trkpt>
      <trkpt lat="45.43196" lon="5.67474">
        <ele>715.35815429688</ele>
        <time>2010-10-17T08:17:45Z</time>
      </trkpt>
      <trkpt lat="45.43199" lon="5.67477">
        <ele>713.916015625</ele>
        <time>2010-10-17T08:17:53Z</time>
      </trkpt>
      <trkpt lat="45.43192" lon="5.67462">
        <ele>713.916015625</ele>
        <time>2010-10-17T08:18:02Z</time>
      </trkpt>
      <trkpt lat="45.43195" lon="5.6747">
        <ele>713.916015625</ele>
        <time>2010-10-17T08:18:08Z</time>
      </trkpt>
      <trkpt lat="45.43203" lon="5.67476">
        <ele>713.435546875</ele>
        <time>2010-10-17T08:18:14Z</time>
      </trkpt>
      <trkpt lat="45.43208" lon="5.67496">
        <ele>712.47412109375</ele>
        <time>2010-10-17T08:18:20Z</time>
      </trkpt>
      <trkpt lat="45.43214" lon="5.67501">
        <ele>710.55151367188</ele>
        <time>2010-10-17T08:18:25Z</time>
      </trkpt>
      <trkpt lat="45.43223" lon="5.67507">
        <ele>710.07080078125</ele>
        <time>2010-10-17T08:18:30Z</time>
      </trkpt>
      <trkpt lat="45.43233" lon="5.67512">
        <ele>709.59033203125</ele>
        <time>2010-10-17T08:18:34Z</time>
      </trkpt>
      <trkpt lat="45.43243" lon="5.67516">
        <ele>710.07080078125</ele>
        <time>2010-10-17T08:18:38Z</time>
      </trkpt>
      <trkpt lat="45.43253" lon="5.67522">
        <ele>710.55151367188</ele>
        <time>2010-10-17T08:18:43Z</time>
      </trkpt>
      <trkpt lat="45.43263" lon="5.67527">
        <ele>710.07080078125</ele>
        <time>2010-10-17T08:18:47Z</time>
      </trkpt>
      <trkpt lat="45.43274" lon="5.67529">
        <ele>711.0322265625</ele>
        <time>2010-10-17T08:18:52Z</time>
      </trkpt>
      <trkpt lat="45.43278" lon="5.67533">
        <ele>711.51293945312</ele>
        <time>2010-10-17T08:19:05Z</time>
      </trkpt>
      <trkpt lat="45.43392" lon="5.67852">
        <ele>710.55151367188</ele>
        <time>2010-10-17T08:19:22Z</time>
      </trkpt>
      <trkpt lat="45.43409" lon="5.67863">
        <ele>710.07080078125</ele>
        <time>2010-10-17T08:19:26Z</time>
      </trkpt>
      <trkpt lat="45.43411" lon="5.67873">
        <ele>711.0322265625</ele>
        <time>2010-10-17T08:19:34Z</time>
      </trkpt>
      <trkpt lat="45.43409" lon="5.67889">
        <ele>711.0322265625</ele>
        <time>2010-10-17T08:19:39Z</time>
      </trkpt>
      <trkpt lat="45.43404" lon="5.67901">
        <ele>711.51293945312</ele>
        <time>2010-10-17T08:19:44Z</time>
      </trkpt>
      <trkpt lat="45.43404" lon="5.67919">
        <ele>710.07080078125</ele>
        <time>2010-10-17T08:19:49Z</time>
      </trkpt>
      <trkpt lat="45.43402" lon="5.67936">
        <ele>710.07080078125</ele>
        <time>2010-10-17T08:19:53Z</time>
      </trkpt>
      <trkpt lat="45.43402" lon="5.67955">
        <ele>709.10961914062</ele>
        <time>2010-10-17T08:19:57Z</time>
      </trkpt>
      <trkpt lat="45.43395" lon="5.6797">
        <ele>708.62890625</ele>
        <time>2010-10-17T08:20:01Z</time>
      </trkpt>
      <trkpt lat="45.43396" lon="5.67986">
        <ele>708.1484375</ele>
        <time>2010-10-17T08:20:05Z</time>
      </trkpt>
      <trkpt lat="45.43393" lon="5.68002">
        <ele>707.66772460938</ele>
        <time>2010-10-17T08:20:09Z</time>
      </trkpt>
      <trkpt lat="45.43391" lon="5.68016">
        <ele>706.70629882812</ele>
        <time>2010-10-17T08:20:13Z</time>
      </trkpt>
      <trkpt lat="45.43394" lon="5.6804">
        <ele>706.70629882812</ele>
        <time>2010-10-17T08:20:17Z</time>
      </trkpt>
      <trkpt lat="45.43399" lon="5.68049">
        <ele>706.2255859375</ele>
        <time>2010-10-17T08:20:21Z</time>
      </trkpt>
      <trkpt lat="45.43404" lon="5.6808">
        <ele>705.7451171875</ele>
        <time>2010-10-17T08:20:26Z</time>
      </trkpt>
      <trkpt lat="45.43404" lon="5.68094">
        <ele>704.78369140625</ele>
        <time>2010-10-17T08:20:30Z</time>
      </trkpt>
      <trkpt lat="45.43419" lon="5.68105">
        <ele>703.82250976562</ele>
        <time>2010-10-17T08:20:35Z</time>
      </trkpt>
      <trkpt lat="45.43415" lon="5.68127">
        <ele>702.86108398438</ele>
        <time>2010-10-17T08:20:41Z</time>
      </trkpt>
      <trkpt lat="45.43407" lon="5.68132">
        <ele>701.89990234375</ele>
        <time>2010-10-17T08:20:47Z</time>
      </trkpt>
      <trkpt lat="45.43404" lon="5.68127">
        <ele>702.38037109375</ele>
        <time>2010-10-17T08:20:51Z</time>
      </trkpt>
      <trkpt lat="45.43389" lon="5.68138">
        <ele>701.89990234375</ele>
        <time>2010-10-17T08:20:57Z</time>
      </trkpt>
      <trkpt lat="45.43377" lon="5.68142">
        <ele>701.89990234375</ele>
        <time>2010-10-17T08:21:02Z</time>
      </trkpt>
      <trkpt lat="45.43366" lon="5.68143">
        <ele>702.38037109375</ele>
        <time>2010-10-17T08:21:07Z</time>
      </trkpt>
      <trkpt lat="45.43357" lon="5.68142">
        <ele>702.86108398438</ele>
        <time>2010-10-17T08:21:12Z</time>
      </trkpt>
      <trkpt lat="45.43338" lon="5.68131">
        <ele>702.38037109375</ele>
        <time>2010-10-17T08:21:16Z</time>
      </trkpt>
      <trkpt lat="45.43329" lon="5.68127">
        <ele>702.86108398438</ele>
        <time>2010-10-17T08:21:21Z</time>
      </trkpt>
      <trkpt lat="45.43322" lon="5.68126">
        <ele>702.86108398438</ele>
        <time>2010-10-17T08:21:25Z</time>
      </trkpt>
      <trkpt lat="45.43309" lon="5.68104">
        <ele>702.86108398438</ele>
        <time>2010-10-17T08:21:38Z</time>
      </trkpt>
      <trkpt lat="45.43302" lon="5.68103">
        <ele>703.82250976562</ele>
        <time>2010-10-17T08:21:43Z</time>
      </trkpt>
      <trkpt lat="45.43292" lon="5.68102">
        <ele>704.30322265625</ele>
        <time>2010-10-17T08:21:47Z</time>
      </trkpt>
      <trkpt lat="45.43277" lon="5.68106">
        <ele>704.30322265625</ele>
        <time>2010-10-17T08:21:52Z</time>
      </trkpt>
      <trkpt lat="45.43217" lon="5.68045">
        <ele>704.78369140625</ele>
        <time>2010-10-17T08:21:56Z</time>
      </trkpt>
      <trkpt lat="45.43194" lon="5.68029">
        <ele>704.78369140625</ele>
        <time>2010-10-17T08:22:00Z</time>
      </trkpt>
      <trkpt lat="45.43144" lon="5.67992">
        <ele>704.78369140625</ele>
        <time>2010-10-17T08:22:04Z</time>
      </trkpt>
      <trkpt lat="45.43105" lon="5.67971">
        <ele>704.78369140625</ele>
        <time>2010-10-17T08:22:08Z</time>
      </trkpt>
      <trkpt lat="45.43089" lon="5.67968">
        <ele>705.26440429688</ele>
        <time>2010-10-17T08:22:12Z</time>
      </trkpt>
      <trkpt lat="45.43076" lon="5.67967">
        <ele>705.26440429688</ele>
        <time>2010-10-17T08:22:16Z</time>
      </trkpt>
      <trkpt lat="45.43066" lon="5.67967">
        <ele>705.7451171875</ele>
        <time>2010-10-17T08:22:20Z</time>
      </trkpt>
      <trkpt lat="45.43057" lon="5.67969">
        <ele>705.7451171875</ele>
        <time>2010-10-17T08:22:24Z</time>
      </trkpt>
      <trkpt lat="45.43046" lon="5.67974">
        <ele>706.2255859375</ele>
        <time>2010-10-17T08:22:28Z</time>
      </trkpt>
      <trkpt lat="45.43036" lon="5.67977">
        <ele>706.70629882812</ele>
        <time>2010-10-17T08:22:32Z</time>
      </trkpt>
      <trkpt lat="45.43024" lon="5.67979">
        <ele>707.18701171875</ele>
        <time>2010-10-17T08:22:37Z</time>
      </trkpt>
      <trkpt lat="45.43014" lon="5.67982">
        <ele>707.66772460938</ele>
        <time>2010-10-17T08:22:42Z</time>
      </trkpt>
      <trkpt lat="45.43003" lon="5.67985">
        <ele>708.1484375</ele>
        <time>2010-10-17T08:22:47Z</time>
      </trkpt>
      <trkpt lat="45.42993" lon="5.6799">
        <ele>708.62890625</ele>
        <time>2010-10-17T08:22:52Z</time>
      </trkpt>
      <trkpt lat="45.42983" lon="5.67995">
        <ele>709.10961914062</ele>
        <time>2010-10-17T08:22:56Z</time>
      </trkpt>
      <trkpt lat="45.42973" lon="5.68">
        <ele>709.59033203125</ele>
        <time>2010-10-17T08:23:00Z</time>
      </trkpt>
      <trkpt lat="45.42963" lon="5.68004">
        <ele>710.07080078125</ele>
        <time>2010-10-17T08:23:05Z</time>
      </trkpt>
      <trkpt lat="45.42954" lon="5.68006">
        <ele>711.51293945312</ele>
        <time>2010-10-17T08:23:10Z</time>
      </trkpt>
      <trkpt lat="45.42944" lon="5.68008">
        <ele>711.99365234375</ele>
        <time>2010-10-17T08:23:15Z</time>
      </trkpt>
      <trkpt lat="45.42934" lon="5.68011">
        <ele>712.47412109375</ele>
        <time>2010-10-17T08:23:20Z</time>
      </trkpt>
      <trkpt lat="45.42925" lon="5.68013">
        <ele>713.435546875</ele>
        <time>2010-10-17T08:23:25Z</time>
      </trkpt>
      <trkpt lat="45.42916" lon="5.68012">
        <ele>713.435546875</ele>
        <time>2010-10-17T08:23:31Z</time>
      </trkpt>
      <trkpt lat="45.42908" lon="5.68006">
        <ele>714.87744140625</ele>
        <time>2010-10-17T08:23:37Z</time>
      </trkpt>
      <trkpt lat="45.42904" lon="5.67995">
        <ele>717.76147460938</ele>
        <time>2010-10-17T08:23:51Z</time>
      </trkpt>
      <trkpt lat="45.42908" lon="5.67991">
        <ele>722.08740234375</ele>
        <time>2010-10-17T08:24:07Z</time>
      </trkpt>
      <trkpt lat="45.42904" lon="5.67989">
        <ele>722.08740234375</ele>
        <time>2010-10-17T08:24:19Z</time>
      </trkpt>
      <trkpt lat="45.42898" lon="5.67979">
        <ele>722.08740234375</ele>
        <time>2010-10-17T08:24:31Z</time>
      </trkpt>
      <trkpt lat="45.42891" lon="5.67974">
        <ele>722.56811523438</ele>
        <time>2010-10-17T08:24:41Z</time>
      </trkpt>
      <trkpt lat="45.42885" lon="5.67968">
        <ele>723.048828125</ele>
        <time>2010-10-17T08:24:52Z</time>
      </trkpt>
      <trkpt lat="45.42873" lon="5.6796">
        <ele>724.01000976562</ele>
        <time>2010-10-17T08:25:01Z</time>
      </trkpt>
      <trkpt lat="45.42865" lon="5.67956">
        <ele>724.49072265625</ele>
        <time>2010-10-17T08:25:13Z</time>
      </trkpt>
      <trkpt lat="45.4285" lon="5.67958">
        <ele>724.49072265625</ele>
        <time>2010-10-17T08:25:23Z</time>
      </trkpt>
      <trkpt lat="45.42841" lon="5.67957">
        <ele>724.49072265625</ele>
        <time>2010-10-17T08:25:31Z</time>
      </trkpt>
      <trkpt lat="45.42833" lon="5.67956">
        <ele>724.01000976562</ele>
        <time>2010-10-17T08:25:39Z</time>
      </trkpt>
      <trkpt lat="45.42834" lon="5.6795">
        <ele>724.01000976562</ele>
        <time>2010-10-17T08:25:50Z</time>
      </trkpt>
      <trkpt lat="45.42833" lon="5.67946">
        <ele>724.01000976562</ele>
        <time>2010-10-17T08:25:54Z</time>
      </trkpt>
      <trkpt lat="45.42833" lon="5.67943">
        <ele>724.49072265625</ele>
        <time>2010-10-17T08:25:58Z</time>
      </trkpt>
      <trkpt lat="45.4283" lon="5.67938">
        <ele>724.01000976562</ele>
        <time>2010-10-17T08:26:04Z</time>
      </trkpt>
      <trkpt lat="45.4282" lon="5.6793">
        <ele>724.49072265625</ele>
        <time>2010-10-17T08:26:10Z</time>
      </trkpt>
      <trkpt lat="45.4281" lon="5.67926">
        <ele>724.49072265625</ele>
        <time>2010-10-17T08:26:17Z</time>
      </trkpt>
      <trkpt lat="45.42798" lon="5.67921">
        <ele>723.52954101562</ele>
        <time>2010-10-17T08:26:25Z</time>
      </trkpt>
      <trkpt lat="45.42784" lon="5.67919">
        <ele>723.048828125</ele>
        <time>2010-10-17T08:26:32Z</time>
      </trkpt>
      <trkpt lat="45.4277" lon="5.67918">
        <ele>722.56811523438</ele>
        <time>2010-10-17T08:26:40Z</time>
      </trkpt>
      <trkpt lat="45.42755" lon="5.67908">
        <ele>721.12622070312</ele>
        <time>2010-10-17T08:26:48Z</time>
      </trkpt>
      <trkpt lat="45.42739" lon="5.67912">
        <ele>720.6455078125</ele>
        <time>2010-10-17T08:26:55Z</time>
      </trkpt>
      <trkpt lat="45.42735" lon="5.67908">
        <ele>720.6455078125</ele>
        <time>2010-10-17T08:27:03Z</time>
      </trkpt>
      <trkpt lat="45.42726" lon="5.67895">
        <ele>721.12622070312</ele>
        <time>2010-10-17T08:27:12Z</time>
      </trkpt>
      <trkpt lat="45.42721" lon="5.67883">
        <ele>721.60668945312</ele>
        <time>2010-10-17T08:27:18Z</time>
      </trkpt>
      <trkpt lat="45.42722" lon="5.67874">
        <ele>722.08740234375</ele>
        <time>2010-10-17T08:27:25Z</time>
      </trkpt>
      <trkpt lat="45.42724" lon="5.6786">
        <ele>724.97143554688</ele>
        <time>2010-10-17T08:27:34Z</time>
      </trkpt>
      <trkpt lat="45.42719" lon="5.67836">
        <ele>727.85522460938</ele>
        <time>2010-10-17T08:27:44Z</time>
      </trkpt>
      <trkpt lat="45.42705" lon="5.67823">
        <ele>729.77783203125</ele>
        <time>2010-10-17T08:27:54Z</time>
      </trkpt>
      <trkpt lat="45.42699" lon="5.67811">
        <ele>731.21997070312</ele>
        <time>2010-10-17T08:28:03Z</time>
      </trkpt>
      <trkpt lat="45.42671" lon="5.67771">
        <ele>733.142578125</ele>
        <time>2010-10-17T08:28:12Z</time>
      </trkpt>
      <trkpt lat="45.42663" lon="5.6773">
        <ele>736.02661132812</ele>
        <time>2010-10-17T08:28:26Z</time>
      </trkpt>
      <trkpt lat="45.42653" lon="5.67702">
        <ele>736.98779296875</ele>
        <time>2010-10-17T08:28:37Z</time>
      </trkpt>
      <trkpt lat="45.42639" lon="5.67678">
        <ele>737.94921875</ele>
        <time>2010-10-17T08:28:46Z</time>
      </trkpt>
      <trkpt lat="45.42636" lon="5.67659">
        <ele>736.98779296875</ele>
        <time>2010-10-17T08:28:54Z</time>
      </trkpt>
      <trkpt lat="45.42637" lon="5.67647">
        <ele>735.0654296875</ele>
        <time>2010-10-17T08:29:00Z</time>
      </trkpt>
      <trkpt lat="45.42633" lon="5.6763">
        <ele>733.142578125</ele>
        <time>2010-10-17T08:29:06Z</time>
      </trkpt>
      <trkpt lat="45.42625" lon="5.6762">
        <ele>731.21997070312</ele>
        <time>2010-10-17T08:29:11Z</time>
      </trkpt>
      <trkpt lat="45.4262" lon="5.67609">
        <ele>730.25854492188</ele>
        <time>2010-10-17T08:29:16Z</time>
      </trkpt>
      <trkpt lat="45.42616" lon="5.67592">
        <ele>728.81665039062</ele>
        <time>2010-10-17T08:29:21Z</time>
      </trkpt>
      <trkpt lat="45.42606" lon="5.67565">
        <ele>727.37475585938</ele>
        <time>2010-10-17T08:29:26Z</time>
      </trkpt>
      <trkpt lat="45.42603" lon="5.67546">
        <ele>726.41333007812</ele>
        <time>2010-10-17T08:29:30Z</time>
      </trkpt>
      <trkpt lat="45.42601" lon="5.67531">
        <ele>725.45190429688</ele>
        <time>2010-10-17T08:29:34Z</time>
      </trkpt>
      <trkpt lat="45.4261" lon="5.67516">
        <ele>724.97143554688</ele>
        <time>2010-10-17T08:29:38Z</time>
      </trkpt>
      <trkpt lat="45.42609" lon="5.67503">
        <ele>723.52954101562</ele>
        <time>2010-10-17T08:29:42Z</time>
      </trkpt>
      <trkpt lat="45.42624" lon="5.6748">
        <ele>723.52954101562</ele>
        <time>2010-10-17T08:29:46Z</time>
      </trkpt>
      <trkpt lat="45.42635" lon="5.67453">
        <ele>722.56811523438</ele>
        <time>2010-10-17T08:29:50Z</time>
      </trkpt>
      <trkpt lat="45.42629" lon="5.67433">
        <ele>722.08740234375</ele>
        <time>2010-10-17T08:29:54Z</time>
      </trkpt>
      <trkpt lat="45.42631" lon="5.67419">
        <ele>721.60668945312</ele>
        <time>2010-10-17T08:29:58Z</time>
      </trkpt>
      <trkpt lat="45.42639" lon="5.67407">
        <ele>720.6455078125</ele>
        <time>2010-10-17T08:30:03Z</time>
      </trkpt>
      <trkpt lat="45.42646" lon="5.67395">
        <ele>720.16479492188</ele>
        <time>2010-10-17T08:30:08Z</time>
      </trkpt>
      <trkpt lat="45.4266" lon="5.67377">
        <ele>719.68432617188</ele>
        <time>2010-10-17T08:30:12Z</time>
      </trkpt>
      <trkpt lat="45.4266" lon="5.67363">
        <ele>719.68432617188</ele>
        <time>2010-10-17T08:30:16Z</time>
      </trkpt>
      <trkpt lat="45.42669" lon="5.67358">
        <ele>718.2421875</ele>
        <time>2010-10-17T08:30:21Z</time>
      </trkpt>
      <trkpt lat="45.42676" lon="5.67347">
        <ele>716.80029296875</ele>
        <time>2010-10-17T08:30:26Z</time>
      </trkpt>
      <trkpt lat="45.4269" lon="5.67333">
        <ele>715.8388671875</ele>
        <time>2010-10-17T08:30:32Z</time>
      </trkpt>
      <trkpt lat="45.42695" lon="5.67319">
        <ele>714.39672851562</ele>
        <time>2010-10-17T08:30:37Z</time>
      </trkpt>
      <trkpt lat="45.42702" lon="5.67306">
        <ele>713.435546875</ele>
        <time>2010-10-17T08:30:42Z</time>
      </trkpt>
      <trkpt lat="45.42705" lon="5.67291">
        <ele>713.435546875</ele>
        <time>2010-10-17T08:30:46Z</time>
      </trkpt>
      <trkpt lat="45.42712" lon="5.67282">
        <ele>713.435546875</ele>
        <time>2010-10-17T08:30:50Z</time>
      </trkpt>
      <trkpt lat="45.42724" lon="5.67273">
        <ele>712.95483398438</ele>
        <time>2010-10-17T08:30:54Z</time>
      </trkpt>
      <trkpt lat="45.42731" lon="5.6726">
        <ele>712.95483398438</ele>
        <time>2010-10-17T08:30:58Z</time>
      </trkpt>
      <trkpt lat="45.42739" lon="5.67243">
        <ele>711.99365234375</ele>
        <time>2010-10-17T08:31:02Z</time>
      </trkpt>
      <trkpt lat="45.42742" lon="5.67227">
        <ele>711.51293945312</ele>
        <time>2010-10-17T08:31:06Z</time>
      </trkpt>
      <trkpt lat="45.42738" lon="5.67211">
        <ele>710.07080078125</ele>
        <time>2010-10-17T08:31:10Z</time>
      </trkpt>
      <trkpt lat="45.42734" lon="5.67193">
        <ele>709.59033203125</ele>
        <time>2010-10-17T08:31:14Z</time>
      </trkpt>
      <trkpt lat="45.42714" lon="5.6718">
        <ele>708.1484375</ele>
        <time>2010-10-17T08:31:18Z</time>
      </trkpt>
      <trkpt lat="45.42697" lon="5.67173">
        <ele>706.2255859375</ele>
        <time>2010-10-17T08:31:22Z</time>
      </trkpt>
      <trkpt lat="45.42686" lon="5.67162">
        <ele>704.30322265625</ele>
        <time>2010-10-17T08:31:26Z</time>
      </trkpt>
      <trkpt lat="45.42687" lon="5.67151">
        <ele>702.38037109375</ele>
        <time>2010-10-17T08:31:30Z</time>
      </trkpt>
      <trkpt lat="45.4269" lon="5.67135">
        <ele>700.9384765625</ele>
        <time>2010-10-17T08:31:34Z</time>
      </trkpt>
      <trkpt lat="45.42695" lon="5.67123">
        <ele>699.015625</ele>
        <time>2010-10-17T08:31:39Z</time>
      </trkpt>
      <trkpt lat="45.42698" lon="5.67106">
        <ele>697.57373046875</ele>
        <time>2010-10-17T08:31:43Z</time>
      </trkpt>
      <trkpt lat="45.42696" lon="5.67091">
        <ele>696.1318359375</ele>
        <time>2010-10-17T08:31:47Z</time>
      </trkpt>
      <trkpt lat="45.42691" lon="5.67073">
        <ele>695.17041015625</ele>
        <time>2010-10-17T08:31:51Z</time>
      </trkpt>
      <trkpt lat="45.42688" lon="5.67059">
        <ele>693.24780273438</ele>
        <time>2010-10-17T08:31:55Z</time>
      </trkpt>
      <trkpt lat="45.42688" lon="5.67045">
        <ele>692.28662109375</ele>
        <time>2010-10-17T08:31:59Z</time>
      </trkpt>
      <trkpt lat="45.42688" lon="5.67031">
        <ele>690.36401367188</ele>
        <time>2010-10-17T08:32:03Z</time>
      </trkpt>
      <trkpt lat="45.42675" lon="5.67007">
        <ele>688.44140625</ele>
        <time>2010-10-17T08:32:07Z</time>
      </trkpt>
      <trkpt lat="45.42673" lon="5.6699">
        <ele>687.47998046875</ele>
        <time>2010-10-17T08:32:11Z</time>
      </trkpt>
      <trkpt lat="45.42672" lon="5.66976">
        <ele>686.0380859375</ele>
        <time>2010-10-17T08:32:15Z</time>
      </trkpt>
      <trkpt lat="45.42671" lon="5.66961">
        <ele>685.07690429688</ele>
        <time>2010-10-17T08:32:19Z</time>
      </trkpt>
      <trkpt lat="45.42668" lon="5.66947">
        <ele>682.67333984375</ele>
        <time>2010-10-17T08:32:23Z</time>
      </trkpt>
      <trkpt lat="45.42664" lon="5.66935">
        <ele>681.2314453125</ele>
        <time>2010-10-17T08:32:27Z</time>
      </trkpt>
      <trkpt lat="45.42659" lon="5.66922">
        <ele>680.27001953125</ele>
        <time>2010-10-17T08:32:31Z</time>
      </trkpt>
      <trkpt lat="45.42655" lon="5.6691">
        <ele>679.30859375</ele>
        <time>2010-10-17T08:32:35Z</time>
      </trkpt>
      <trkpt lat="45.42651" lon="5.66897">
        <ele>678.34741210938</ele>
        <time>2010-10-17T08:32:39Z</time>
      </trkpt>
      <trkpt lat="45.42644" lon="5.66884">
        <ele>676.90551757812</ele>
        <time>2010-10-17T08:32:43Z</time>
      </trkpt>
      <trkpt lat="45.4264" lon="5.66871">
        <ele>676.90551757812</ele>
        <time>2010-10-17T08:32:47Z</time>
      </trkpt>
      <trkpt lat="45.42638" lon="5.66857">
        <ele>678.828125</ele>
        <time>2010-10-17T08:32:52Z</time>
      </trkpt>
      <trkpt lat="45.42634" lon="5.66845">
        <ele>679.30859375</ele>
        <time>2010-10-17T08:32:56Z</time>
      </trkpt>
      <trkpt lat="45.4263" lon="5.66833">
        <ele>679.78930664062</ele>
        <time>2010-10-17T08:33:00Z</time>
      </trkpt>
      <trkpt lat="45.42625" lon="5.66819">
        <ele>681.2314453125</ele>
        <time>2010-10-17T08:33:05Z</time>
      </trkpt>
      <trkpt lat="45.42623" lon="5.66805">
        <ele>682.67333984375</ele>
        <time>2010-10-17T08:33:10Z</time>
      </trkpt>
      <trkpt lat="45.42619" lon="5.66791">
        <ele>683.63452148438</ele>
        <time>2010-10-17T08:33:15Z</time>
      </trkpt>
      <trkpt lat="45.42616" lon="5.66779">
        <ele>685.55737304688</ele>
        <time>2010-10-17T08:33:20Z</time>
      </trkpt>
      <trkpt lat="45.42614" lon="5.66767">
        <ele>686.0380859375</ele>
        <time>2010-10-17T08:33:24Z</time>
      </trkpt>
      <trkpt lat="45.42611" lon="5.66753">
        <ele>686.51879882812</ele>
        <time>2010-10-17T08:33:29Z</time>
      </trkpt>
      <trkpt lat="45.42606" lon="5.66739">
        <ele>687.47998046875</ele>
        <time>2010-10-17T08:33:34Z</time>
      </trkpt>
      <trkpt lat="45.42601" lon="5.66727">
        <ele>688.92211914062</ele>
        <time>2010-10-17T08:33:40Z</time>
      </trkpt>
      <trkpt lat="45.42595" lon="5.66717">
        <ele>690.36401367188</ele>
        <time>2010-10-17T08:33:48Z</time>
      </trkpt>
      <trkpt lat="45.42591" lon="5.66704">
        <ele>691.80590820312</ele>
        <time>2010-10-17T08:33:55Z</time>
      </trkpt>
      <trkpt lat="45.42588" lon="5.6669">
        <ele>692.28662109375</ele>
        <time>2010-10-17T08:34:01Z</time>
      </trkpt>
      <trkpt lat="45.42583" lon="5.66675">
        <ele>692.28662109375</ele>
        <time>2010-10-17T08:34:06Z</time>
      </trkpt>
      <trkpt lat="45.42578" lon="5.66662">
        <ele>691.80590820312</ele>
        <time>2010-10-17T08:34:10Z</time>
      </trkpt>
      <trkpt lat="45.42572" lon="5.66649">
        <ele>691.80590820312</ele>
        <time>2010-10-17T08:34:14Z</time>
      </trkpt>
      <trkpt lat="45.4257" lon="5.66635">
        <ele>692.28662109375</ele>
        <time>2010-10-17T08:34:18Z</time>
      </trkpt>
      <trkpt lat="45.42565" lon="5.66623">
        <ele>692.76733398438</ele>
        <time>2010-10-17T08:34:22Z</time>
      </trkpt>
      <trkpt lat="45.42558" lon="5.66614">
        <ele>693.728515625</ele>
        <time>2010-10-17T08:34:26Z</time>
      </trkpt>
      <trkpt lat="45.4255" lon="5.66603">
        <ele>694.20922851562</ele>
        <time>2010-10-17T08:34:30Z</time>
      </trkpt>
      <trkpt lat="45.42542" lon="5.66596">
        <ele>694.20922851562</ele>
        <time>2010-10-17T08:34:34Z</time>
      </trkpt>
      <trkpt lat="45.42535" lon="5.66588">
        <ele>695.17041015625</ele>
        <time>2010-10-17T08:34:38Z</time>
      </trkpt>
      <trkpt lat="45.42527" lon="5.6658">
        <ele>695.17041015625</ele>
        <time>2010-10-17T08:34:42Z</time>
      </trkpt>
      <trkpt lat="45.4252" lon="5.66572">
        <ele>694.68969726562</ele>
        <time>2010-10-17T08:34:46Z</time>
      </trkpt>
      <trkpt lat="45.42512" lon="5.66563">
        <ele>693.728515625</ele>
        <time>2010-10-17T08:34:50Z</time>
      </trkpt>
      <trkpt lat="45.42506" lon="5.66552">
        <ele>693.728515625</ele>
        <time>2010-10-17T08:34:54Z</time>
      </trkpt>
      <trkpt lat="45.425" lon="5.66544">
        <ele>693.24780273438</ele>
        <time>2010-10-17T08:34:58Z</time>
      </trkpt>
      <trkpt lat="45.42492" lon="5.66534">
        <ele>693.728515625</ele>
        <time>2010-10-17T08:35:02Z</time>
      </trkpt>
      <trkpt lat="45.42482" lon="5.66526">
        <ele>693.728515625</ele>
        <time>2010-10-17T08:35:06Z</time>
      </trkpt>
      <trkpt lat="45.42472" lon="5.66519">
        <ele>694.20922851562</ele>
        <time>2010-10-17T08:35:10Z</time>
      </trkpt>
      <trkpt lat="45.42463" lon="5.66513">
        <ele>694.68969726562</ele>
        <time>2010-10-17T08:35:14Z</time>
      </trkpt>
      <trkpt lat="45.42456" lon="5.66504">
        <ele>695.17041015625</ele>
        <time>2010-10-17T08:35:18Z</time>
      </trkpt>
      <trkpt lat="45.42449" lon="5.66493">
        <ele>695.17041015625</ele>
        <time>2010-10-17T08:35:22Z</time>
      </trkpt>
      <trkpt lat="45.42439" lon="5.66484">
        <ele>695.65112304688</ele>
        <time>2010-10-17T08:35:27Z</time>
      </trkpt>
      <trkpt lat="45.42431" lon="5.66479">
        <ele>697.09301757812</ele>
        <time>2010-10-17T08:35:34Z</time>
      </trkpt>
      <trkpt lat="45.42429" lon="5.66471">
        <ele>698.05444335938</ele>
        <time>2010-10-17T08:35:41Z</time>
      </trkpt>
      <trkpt lat="45.42442" lon="5.66472">
        <ele>700.4580078125</ele>
        <time>2010-10-17T08:35:50Z</time>
      </trkpt>
      <trkpt lat="45.42457" lon="5.66463">
        <ele>703.341796875</ele>
        <time>2010-10-17T08:35:59Z</time>
      </trkpt>
      <trkpt lat="45.42464" lon="5.6645">
        <ele>707.66772460938</ele>
        <time>2010-10-17T08:36:14Z</time>
      </trkpt>
      <trkpt lat="45.42481" lon="5.66439">
        <ele>709.59033203125</ele>
        <time>2010-10-17T08:36:23Z</time>
      </trkpt>
      <trkpt lat="45.42496" lon="5.66437">
        <ele>711.99365234375</ele>
        <time>2010-10-17T08:36:31Z</time>
      </trkpt>
      <trkpt lat="45.42505" lon="5.66432">
        <ele>713.435546875</ele>
        <time>2010-10-17T08:36:38Z</time>
      </trkpt>
      <trkpt lat="45.42498" lon="5.66421">
        <ele>716.31958007812</ele>
        <time>2010-10-17T08:36:47Z</time>
      </trkpt>
      <trkpt lat="45.42491" lon="5.66412">
        <ele>718.2421875</ele>
        <time>2010-10-17T08:36:55Z</time>
      </trkpt>
      <trkpt lat="45.42485" lon="5.66401">
        <ele>720.6455078125</ele>
        <time>2010-10-17T08:37:04Z</time>
      </trkpt>
      <trkpt lat="45.42484" lon="5.66391">
        <ele>722.56811523438</ele>
        <time>2010-10-17T08:37:13Z</time>
      </trkpt>
      <trkpt lat="45.42496" lon="5.66382">
        <ele>725.45190429688</ele>
        <time>2010-10-17T08:37:24Z</time>
      </trkpt>
      <trkpt lat="45.42507" lon="5.66376">
        <ele>728.3359375</ele>
        <time>2010-10-17T08:37:35Z</time>
      </trkpt>
      <trkpt lat="45.42521" lon="5.66366">
        <ele>732.662109375</ele>
        <time>2010-10-17T08:37:50Z</time>
      </trkpt>
      <trkpt lat="45.42529" lon="5.66356">
        <ele>734.10400390625</ele>
        <time>2010-10-17T08:37:57Z</time>
      </trkpt>
      <trkpt lat="45.42531" lon="5.66341">
        <ele>736.02661132812</ele>
        <time>2010-10-17T08:38:06Z</time>
      </trkpt>
      <trkpt lat="45.42533" lon="5.66324">
        <ele>736.02661132812</ele>
        <time>2010-10-17T08:38:12Z</time>
      </trkpt>
      <trkpt lat="45.42531" lon="5.66305">
        <ele>734.58471679688</ele>
        <time>2010-10-17T08:38:22Z</time>
      </trkpt>
      <trkpt lat="45.42525" lon="5.6628">
        <ele>732.662109375</ele>
        <time>2010-10-17T08:38:33Z</time>
      </trkpt>
      <trkpt lat="45.42514" lon="5.66261">
        <ele>731.70043945312</ele>
        <time>2010-10-17T08:38:38Z</time>
      </trkpt>
      <trkpt lat="45.42506" lon="5.66242">
        <ele>731.21997070312</ele>
        <time>2010-10-17T08:38:44Z</time>
      </trkpt>
      <trkpt lat="45.42494" lon="5.66223">
        <ele>731.21997070312</ele>
        <time>2010-10-17T08:38:52Z</time>
      </trkpt>
      <trkpt lat="45.42477" lon="5.66211">
        <ele>730.7392578125</ele>
        <time>2010-10-17T08:38:58Z</time>
      </trkpt>
      <trkpt lat="45.42467" lon="5.66197">
        <ele>730.7392578125</ele>
        <time>2010-10-17T08:39:03Z</time>
      </trkpt>
      <trkpt lat="45.42459" lon="5.66181">
        <ele>730.7392578125</ele>
        <time>2010-10-17T08:39:08Z</time>
      </trkpt>
      <trkpt lat="45.42447" lon="5.6616">
        <ele>730.7392578125</ele>
        <time>2010-10-17T08:39:15Z</time>
      </trkpt>
      <trkpt lat="45.42432" lon="5.66151">
        <ele>730.7392578125</ele>
        <time>2010-10-17T08:39:21Z</time>
      </trkpt>
      <trkpt lat="45.42418" lon="5.66137">
        <ele>730.7392578125</ele>
        <time>2010-10-17T08:39:27Z</time>
      </trkpt>
      <trkpt lat="45.42408" lon="5.66132">
        <ele>730.25854492188</ele>
        <time>2010-10-17T08:39:33Z</time>
      </trkpt>
      <trkpt lat="45.42395" lon="5.66128">
        <ele>730.25854492188</ele>
        <time>2010-10-17T08:39:39Z</time>
      </trkpt>
      <trkpt lat="45.42384" lon="5.66116">
        <ele>729.77783203125</ele>
        <time>2010-10-17T08:39:44Z</time>
      </trkpt>
      <trkpt lat="45.4237" lon="5.66109">
        <ele>729.29711914062</ele>
        <time>2010-10-17T08:39:50Z</time>
      </trkpt>
      <trkpt lat="45.4235" lon="5.66093">
        <ele>728.81665039062</ele>
        <time>2010-10-17T08:39:57Z</time>
      </trkpt>
      <trkpt lat="45.42337" lon="5.66085">
        <ele>728.3359375</ele>
        <time>2010-10-17T08:40:03Z</time>
      </trkpt>
      <trkpt lat="45.42326" lon="5.66074">
        <ele>727.85522460938</ele>
        <time>2010-10-17T08:40:09Z</time>
      </trkpt>
      <trkpt lat="45.42316" lon="5.6606">
        <ele>727.37475585938</ele>
        <time>2010-10-17T08:40:16Z</time>
      </trkpt>
      <trkpt lat="45.42306" lon="5.66048">
        <ele>726.89404296875</ele>
        <time>2010-10-17T08:40:21Z</time>
      </trkpt>
      <trkpt lat="45.42292" lon="5.66041">
        <ele>725.45190429688</ele>
        <time>2010-10-17T08:40:27Z</time>
      </trkpt>
      <trkpt lat="45.42281" lon="5.66025">
        <ele>724.97143554688</ele>
        <time>2010-10-17T08:40:32Z</time>
      </trkpt>
      <trkpt lat="45.42272" lon="5.66016">
        <ele>724.49072265625</ele>
        <time>2010-10-17T08:40:37Z</time>
      </trkpt>
      <trkpt lat="45.42263" lon="5.66005">
        <ele>723.52954101562</ele>
        <time>2010-10-17T08:40:42Z</time>
      </trkpt>
      <trkpt lat="45.42254" lon="5.65999">
        <ele>723.048828125</ele>
        <time>2010-10-17T08:40:48Z</time>
      </trkpt>
      <trkpt lat="45.42242" lon="5.65981">
        <ele>722.08740234375</ele>
        <time>2010-10-17T08:40:54Z</time>
      </trkpt>
      <trkpt lat="45.42229" lon="5.65973">
        <ele>721.60668945312</ele>
        <time>2010-10-17T08:40:59Z</time>
      </trkpt>
      <trkpt lat="45.4222" lon="5.65952">
        <ele>721.60668945312</ele>
        <time>2010-10-17T08:41:04Z</time>
      </trkpt>
      <trkpt lat="45.42209" lon="5.65943">
        <ele>720.6455078125</ele>
        <time>2010-10-17T08:41:10Z</time>
      </trkpt>
      <trkpt lat="45.422" lon="5.6593">
        <ele>720.6455078125</ele>
        <time>2010-10-17T08:41:15Z</time>
      </trkpt>
      <trkpt lat="45.4219" lon="5.65916">
        <ele>720.16479492188</ele>
        <time>2010-10-17T08:41:20Z</time>
      </trkpt>
      <trkpt lat="45.4218" lon="5.65908">
        <ele>719.68432617188</ele>
        <time>2010-10-17T08:41:24Z</time>
      </trkpt>
      <trkpt lat="45.42173" lon="5.659">
        <ele>718.72290039062</ele>
        <time>2010-10-17T08:41:29Z</time>
      </trkpt>
      <trkpt lat="45.4216" lon="5.65893">
        <ele>717.76147460938</ele>
        <time>2010-10-17T08:41:33Z</time>
      </trkpt>
      <trkpt lat="45.42147" lon="5.65887">
        <ele>716.80029296875</ele>
        <time>2010-10-17T08:41:37Z</time>
      </trkpt>
      <trkpt lat="45.42136" lon="5.65883">
        <ele>715.8388671875</ele>
        <time>2010-10-17T08:41:41Z</time>
      </trkpt>
      <trkpt lat="45.42122" lon="5.6588">
        <ele>714.87744140625</ele>
        <time>2010-10-17T08:41:45Z</time>
      </trkpt>
      <trkpt lat="45.42107" lon="5.65877">
        <ele>714.87744140625</ele>
        <time>2010-10-17T08:41:49Z</time>
      </trkpt>
      <trkpt lat="45.42097" lon="5.65873">
        <ele>713.916015625</ele>
        <time>2010-10-17T08:41:53Z</time>
      </trkpt>
      <trkpt lat="45.42085" lon="5.65868">
        <ele>713.435546875</ele>
        <time>2010-10-17T08:41:57Z</time>
      </trkpt>
      <trkpt lat="45.42077" lon="5.65862">
        <ele>712.47412109375</ele>
        <time>2010-10-17T08:42:01Z</time>
      </trkpt>
      <trkpt lat="45.42067" lon="5.65852">
        <ele>711.51293945312</ele>
        <time>2010-10-17T08:42:06Z</time>
      </trkpt>
      <trkpt lat="45.42054" lon="5.65842">
        <ele>710.07080078125</ele>
        <time>2010-10-17T08:42:10Z</time>
      </trkpt>
      <trkpt lat="45.42048" lon="5.65832">
        <ele>710.55151367188</ele>
        <time>2010-10-17T08:42:14Z</time>
      </trkpt>
      <trkpt lat="45.42041" lon="5.65821">
        <ele>709.59033203125</ele>
        <time>2010-10-17T08:42:18Z</time>
      </trkpt>
      <trkpt lat="45.42035" lon="5.65809">
        <ele>709.10961914062</ele>
        <time>2010-10-17T08:42:22Z</time>
      </trkpt>
      <trkpt lat="45.42031" lon="5.65797">
        <ele>708.62890625</ele>
        <time>2010-10-17T08:42:26Z</time>
      </trkpt>
      <trkpt lat="45.42027" lon="5.65786">
        <ele>708.1484375</ele>
        <time>2010-10-17T08:42:31Z</time>
      </trkpt>
      <trkpt lat="45.42018" lon="5.65775">
        <ele>706.2255859375</ele>
        <time>2010-10-17T08:42:36Z</time>
      </trkpt>
      <trkpt lat="45.42009" lon="5.65769">
        <ele>703.341796875</ele>
        <time>2010-10-17T08:42:42Z</time>
      </trkpt>
      <trkpt lat="45.41998" lon="5.65757">
        <ele>700.9384765625</ele>
        <time>2010-10-17T08:42:48Z</time>
      </trkpt>
      <trkpt lat="45.41989" lon="5.65745">
        <ele>698.53491210938</ele>
        <time>2010-10-17T08:42:53Z</time>
      </trkpt>
      <trkpt lat="45.41982" lon="5.65736">
        <ele>697.09301757812</ele>
        <time>2010-10-17T08:42:57Z</time>
      </trkpt>
      <trkpt lat="45.41972" lon="5.65729">
        <ele>695.17041015625</ele>
        <time>2010-10-17T08:43:02Z</time>
      </trkpt>
      <trkpt lat="45.41957" lon="5.65728">
        <ele>693.728515625</ele>
        <time>2010-10-17T08:43:06Z</time>
      </trkpt>
      <trkpt lat="45.41949" lon="5.65732">
        <ele>692.28662109375</ele>
        <time>2010-10-17T08:43:10Z</time>
      </trkpt>
      <trkpt lat="45.41939" lon="5.65732">
        <ele>691.3251953125</ele>
        <time>2010-10-17T08:43:14Z</time>
      </trkpt>
      <trkpt lat="45.41929" lon="5.65735">
        <ele>690.36401367188</ele>
        <time>2010-10-17T08:43:18Z</time>
      </trkpt>
      <trkpt lat="45.41918" lon="5.65735">
        <ele>688.92211914062</ele>
        <time>2010-10-17T08:43:23Z</time>
      </trkpt>
      <trkpt lat="45.41908" lon="5.65736">
        <ele>687.96069335938</ele>
        <time>2010-10-17T08:43:29Z</time>
      </trkpt>
      <trkpt lat="45.41896" lon="5.65744">
        <ele>686.99926757812</ele>
        <time>2010-10-17T08:43:35Z</time>
      </trkpt>
      <trkpt lat="45.41882" lon="5.65751">
        <ele>685.55737304688</ele>
        <time>2010-10-17T08:43:41Z</time>
      </trkpt>
      <trkpt lat="45.41868" lon="5.65762">
        <ele>684.11547851562</ele>
        <time>2010-10-17T08:43:47Z</time>
      </trkpt>
      <trkpt lat="45.41859" lon="5.65771">
        <ele>684.11547851562</ele>
        <time>2010-10-17T08:43:51Z</time>
      </trkpt>
      <trkpt lat="45.4185" lon="5.65782">
        <ele>682.19262695312</ele>
        <time>2010-10-17T08:43:56Z</time>
      </trkpt>
      <trkpt lat="45.4184" lon="5.65781">
        <ele>681.2314453125</ele>
        <time>2010-10-17T08:44:01Z</time>
      </trkpt>
      <trkpt lat="45.4183" lon="5.65775">
        <ele>679.78930664062</ele>
        <time>2010-10-17T08:44:05Z</time>
      </trkpt>
      <trkpt lat="45.41816" lon="5.65772">
        <ele>678.34741210938</ele>
        <time>2010-10-17T08:44:09Z</time>
      </trkpt>
      <trkpt lat="45.41801" lon="5.65771">
        <ele>677.86669921875</ele>
        <time>2010-10-17T08:44:14Z</time>
      </trkpt>
      <trkpt lat="45.41791" lon="5.65771">
        <ele>676.4248046875</ele>
        <time>2010-10-17T08:44:18Z</time>
      </trkpt>
      <trkpt lat="45.41782" lon="5.6577">
        <ele>674.50219726562</ele>
        <time>2010-10-17T08:44:22Z</time>
      </trkpt>
      <trkpt lat="45.41772" lon="5.65775">
        <ele>673.06030273438</ele>
        <time>2010-10-17T08:44:26Z</time>
      </trkpt>
      <trkpt lat="45.41765" lon="5.65785">
        <ele>671.6181640625</ele>
        <time>2010-10-17T08:44:30Z</time>
      </trkpt>
      <trkpt lat="45.4176" lon="5.65797">
        <ele>670.17626953125</ele>
        <time>2010-10-17T08:44:34Z</time>
      </trkpt>
      <trkpt lat="45.41755" lon="5.6581">
        <ele>668.734375</ele>
        <time>2010-10-17T08:44:38Z</time>
      </trkpt>
      <trkpt lat="45.41749" lon="5.65823">
        <ele>667.77270507812</ele>
        <time>2010-10-17T08:44:42Z</time>
      </trkpt>
      <trkpt lat="45.4174" lon="5.6583">
        <ele>665.85034179688</ele>
        <time>2010-10-17T08:44:47Z</time>
      </trkpt>
      <trkpt lat="45.41728" lon="5.65835">
        <ele>663.92749023438</ele>
        <time>2010-10-17T08:44:53Z</time>
      </trkpt>
      <trkpt lat="45.41714" lon="5.65844">
        <ele>662.96630859375</ele>
        <time>2010-10-17T08:44:58Z</time>
      </trkpt>
      <trkpt lat="45.41704" lon="5.65854">
        <ele>661.5244140625</ele>
        <time>2010-10-17T08:45:03Z</time>
      </trkpt>
      <trkpt lat="45.41693" lon="5.6586">
        <ele>660.08227539062</ele>
        <time>2010-10-17T08:45:08Z</time>
      </trkpt>
      <trkpt lat="45.41684" lon="5.65858">
        <ele>659.60180664062</ele>
        <time>2010-10-17T08:45:12Z</time>
      </trkpt>
      <trkpt lat="45.41673" lon="5.65856">
        <ele>659.12109375</ele>
        <time>2010-10-17T08:45:16Z</time>
      </trkpt>
      <trkpt lat="45.41663" lon="5.65853">
        <ele>658.15991210938</ele>
        <time>2010-10-17T08:45:20Z</time>
      </trkpt>
      <trkpt lat="45.41652" lon="5.65851">
        <ele>658.15991210938</ele>
        <time>2010-10-17T08:45:26Z</time>
      </trkpt>
      <trkpt lat="45.41639" lon="5.65837">
        <ele>657.19848632812</ele>
        <time>2010-10-17T08:45:31Z</time>
      </trkpt>
      <trkpt lat="45.41624" lon="5.65835">
        <ele>656.7177734375</ele>
        <time>2010-10-17T08:45:37Z</time>
      </trkpt>
      <trkpt lat="45.41613" lon="5.65838">
        <ele>656.23706054688</ele>
        <time>2010-10-17T08:45:42Z</time>
      </trkpt>
      <trkpt lat="45.41598" lon="5.65838">
        <ele>655.27587890625</ele>
        <time>2010-10-17T08:45:48Z</time>
      </trkpt>
      <trkpt lat="45.41578" lon="5.65839">
        <ele>654.79516601562</ele>
        <time>2010-10-17T08:45:56Z</time>
      </trkpt>
      <trkpt lat="45.41566" lon="5.65833">
        <ele>654.79516601562</ele>
        <time>2010-10-17T08:46:00Z</time>
      </trkpt>
      <trkpt lat="45.41554" lon="5.65826">
        <ele>653.833984375</ele>
        <time>2010-10-17T08:46:04Z</time>
      </trkpt>
      <trkpt lat="45.41542" lon="5.65816">
        <ele>653.35327148438</ele>
        <time>2010-10-17T08:46:08Z</time>
      </trkpt>
      <trkpt lat="45.41533" lon="5.65805">
        <ele>652.39184570312</ele>
        <time>2010-10-17T08:46:13Z</time>
      </trkpt>
      <trkpt lat="45.41519" lon="5.65801">
        <ele>651.9111328125</ele>
        <time>2010-10-17T08:46:17Z</time>
      </trkpt>
      <trkpt lat="45.41507" lon="5.65802">
        <ele>651.9111328125</ele>
        <time>2010-10-17T08:46:21Z</time>
      </trkpt>
      <trkpt lat="45.41497" lon="5.65805">
        <ele>651.9111328125</ele>
        <time>2010-10-17T08:46:25Z</time>
      </trkpt>
      <trkpt lat="45.41488" lon="5.6581">
        <ele>650.94970703125</ele>
        <time>2010-10-17T08:46:29Z</time>
      </trkpt>
      <trkpt lat="45.41479" lon="5.65817">
        <ele>650.46923828125</ele>
        <time>2010-10-17T08:46:33Z</time>
      </trkpt>
      <trkpt lat="45.4147" lon="5.65827">
        <ele>649.02709960938</ele>
        <time>2010-10-17T08:46:38Z</time>
      </trkpt>
      <trkpt lat="45.41459" lon="5.6584">
        <ele>647.1044921875</ele>
        <time>2010-10-17T08:46:44Z</time>
      </trkpt>
      <trkpt lat="45.41452" lon="5.65855">
        <ele>644.701171875</ele>
        <time>2010-10-17T08:46:49Z</time>
      </trkpt>
      <trkpt lat="45.41447" lon="5.65877">
        <ele>644.220703125</ele>
        <time>2010-10-17T08:46:55Z</time>
      </trkpt>
      <trkpt lat="45.41439" lon="5.65904">
        <ele>644.220703125</ele>
        <time>2010-10-17T08:47:00Z</time>
      </trkpt>
      <trkpt lat="45.41436" lon="5.65918">
        <ele>643.73999023438</ele>
        <time>2010-10-17T08:47:04Z</time>
      </trkpt>
      <trkpt lat="45.41427" lon="5.65938">
        <ele>644.220703125</ele>
        <time>2010-10-17T08:47:10Z</time>
      </trkpt>
      <trkpt lat="45.41417" lon="5.65948">
        <ele>643.73999023438</ele>
        <time>2010-10-17T08:47:17Z</time>
      </trkpt>
      <trkpt lat="45.41401" lon="5.65959">
        <ele>643.25927734375</ele>
        <time>2010-10-17T08:47:23Z</time>
      </trkpt>
      <trkpt lat="45.41385" lon="5.65968">
        <ele>642.29809570312</ele>
        <time>2010-10-17T08:47:31Z</time>
      </trkpt>
      <trkpt lat="45.41372" lon="5.6598">
        <ele>641.8173828125</ele>
        <time>2010-10-17T08:47:37Z</time>
      </trkpt>
      <trkpt lat="45.41362" lon="5.65983">
        <ele>640.85595703125</ele>
        <time>2010-10-17T08:47:41Z</time>
      </trkpt>
      <trkpt lat="45.41351" lon="5.65987">
        <ele>640.37548828125</ele>
        <time>2010-10-17T08:47:45Z</time>
      </trkpt>
      <trkpt lat="45.4134" lon="5.65993">
        <ele>639.89477539062</ele>
        <time>2010-10-17T08:47:49Z</time>
      </trkpt>
      <trkpt lat="45.4133" lon="5.66">
        <ele>639.4140625</ele>
        <time>2010-10-17T08:47:53Z</time>
      </trkpt>
      <trkpt lat="45.41318" lon="5.66006">
        <ele>638.93359375</ele>
        <time>2010-10-17T08:47:58Z</time>
      </trkpt>
      <trkpt lat="45.41308" lon="5.66016">
        <ele>637.97216796875</ele>
        <time>2010-10-17T08:48:02Z</time>
      </trkpt>
      <trkpt lat="45.41298" lon="5.66022">
        <ele>637.0107421875</ele>
        <time>2010-10-17T08:48:06Z</time>
      </trkpt>
      <trkpt lat="45.41284" lon="5.66032">
        <ele>635.08813476562</ele>
        <time>2010-10-17T08:48:11Z</time>
      </trkpt>
      <trkpt lat="45.41274" lon="5.66031">
        <ele>633.64599609375</ele>
        <time>2010-10-17T08:48:15Z</time>
      </trkpt>
      <trkpt lat="45.41264" lon="5.66035">
        <ele>632.68481445312</ele>
        <time>2010-10-17T08:48:19Z</time>
      </trkpt>
      <trkpt lat="45.41254" lon="5.6604">
        <ele>630.76220703125</ele>
        <time>2010-10-17T08:48:24Z</time>
      </trkpt>
      <trkpt lat="45.41243" lon="5.66045">
        <ele>629.80078125</ele>
        <time>2010-10-17T08:48:28Z</time>
      </trkpt>
      <trkpt lat="45.41233" lon="5.66052">
        <ele>627.87817382812</ele>
        <time>2010-10-17T08:48:32Z</time>
      </trkpt>
      <trkpt lat="45.41225" lon="5.6606">
        <ele>627.39770507812</ele>
        <time>2010-10-17T08:48:36Z</time>
      </trkpt>
      <trkpt lat="45.41217" lon="5.66069">
        <ele>626.43627929688</ele>
        <time>2010-10-17T08:48:40Z</time>
      </trkpt>
      <trkpt lat="45.41211" lon="5.66082">
        <ele>624.99438476562</ele>
        <time>2010-10-17T08:48:44Z</time>
      </trkpt>
      <trkpt lat="45.41204" lon="5.66092">
        <ele>622.59106445312</ele>
        <time>2010-10-17T08:48:48Z</time>
      </trkpt>
      <trkpt lat="45.41198" lon="5.66105">
        <ele>620.18774414062</ele>
        <time>2010-10-17T08:48:52Z</time>
      </trkpt>
      <trkpt lat="45.41193" lon="5.66118">
        <ele>619.22631835938</ele>
        <time>2010-10-17T08:48:56Z</time>
      </trkpt>
      <trkpt lat="45.4119" lon="5.66133">
        <ele>616.82299804688</ele>
        <time>2010-10-17T08:49:01Z</time>
      </trkpt>
      <trkpt lat="45.41186" lon="5.66151">
        <ele>614.900390625</ele>
        <time>2010-10-17T08:49:06Z</time>
      </trkpt>
      <trkpt lat="45.41183" lon="5.66166">
        <ele>613.45849609375</ele>
        <time>2010-10-17T08:49:11Z</time>
      </trkpt>
      <trkpt lat="45.41182" lon="5.66182">
        <ele>610.09375</ele>
        <time>2010-10-17T08:49:15Z</time>
      </trkpt>
      <trkpt lat="45.4118" lon="5.66199">
        <ele>609.13256835938</ele>
        <time>2010-10-17T08:49:20Z</time>
      </trkpt>
      <trkpt lat="45.41177" lon="5.66213">
        <ele>607.2099609375</ele>
        <time>2010-10-17T08:49:25Z</time>
      </trkpt>
      <trkpt lat="45.4117" lon="5.66223">
        <ele>606.24853515625</ele>
        <time>2010-10-17T08:49:29Z</time>
      </trkpt>
      <trkpt lat="45.41161" lon="5.6623">
        <ele>605.28735351562</ele>
        <time>2010-10-17T08:49:33Z</time>
      </trkpt>
      <trkpt lat="45.41152" lon="5.66239">
        <ele>604.326171875</ele>
        <time>2010-10-17T08:49:37Z</time>
      </trkpt>
      <trkpt lat="45.41144" lon="5.66246">
        <ele>603.84521484375</ele>
        <time>2010-10-17T08:49:41Z</time>
      </trkpt>
      <trkpt lat="45.41138" lon="5.66256">
        <ele>602.40307617188</ele>
        <time>2010-10-17T08:49:45Z</time>
      </trkpt>
      <trkpt lat="45.4113" lon="5.6627">
        <ele>601.44189453125</ele>
        <time>2010-10-17T08:49:49Z</time>
      </trkpt>
      <trkpt lat="45.41121" lon="5.66276">
        <ele>600</ele>
        <time>2010-10-17T08:49:53Z</time>
      </trkpt>
      <trkpt lat="45.41112" lon="5.66285">
        <ele>598.55786132812</ele>
        <time>2010-10-17T08:49:57Z</time>
      </trkpt>
      <trkpt lat="45.41101" lon="5.66287">
        <ele>598.55786132812</ele>
        <time>2010-10-17T08:50:01Z</time>
      </trkpt>
      <trkpt lat="45.41091" lon="5.66284">
        <ele>597.5966796875</ele>
        <time>2010-10-17T08:50:05Z</time>
      </trkpt>
      <trkpt lat="45.4108" lon="5.6628">
        <ele>597.11596679688</ele>
        <time>2010-10-17T08:50:10Z</time>
      </trkpt>
      <trkpt lat="45.41067" lon="5.66276">
        <ele>597.5966796875</ele>
        <time>2010-10-17T08:50:16Z</time>
      </trkpt>
      <trkpt lat="45.41056" lon="5.66267">
        <ele>597.11596679688</ele>
        <time>2010-10-17T08:50:22Z</time>
      </trkpt>
      <trkpt lat="45.41045" lon="5.6626">
        <ele>596.63549804688</ele>
        <time>2010-10-17T08:50:27Z</time>
      </trkpt>
      <trkpt lat="45.41034" lon="5.66254">
        <ele>595.193359375</ele>
        <time>2010-10-17T08:50:32Z</time>
      </trkpt>
      <trkpt lat="45.4102" lon="5.66246">
        <ele>592.79028320312</ele>
        <time>2010-10-17T08:50:40Z</time>
      </trkpt>
      <trkpt lat="45.41006" lon="5.66235">
        <ele>590.86743164062</ele>
        <time>2010-10-17T08:50:46Z</time>
      </trkpt>
      <trkpt lat="45.40993" lon="5.66242">
        <ele>588.46435546875</ele>
        <time>2010-10-17T08:50:53Z</time>
      </trkpt>
      <trkpt lat="45.40976" lon="5.66257">
        <ele>587.50268554688</ele>
        <time>2010-10-17T08:51:04Z</time>
      </trkpt>
      <trkpt lat="45.40958" lon="5.66269">
        <ele>585.099609375</ele>
        <time>2010-10-17T08:51:11Z</time>
      </trkpt>
      <trkpt lat="45.40947" lon="5.66277">
        <ele>583.65747070312</ele>
        <time>2010-10-17T08:51:17Z</time>
      </trkpt>
      <trkpt lat="45.40932" lon="5.66277">
        <ele>582.21557617188</ele>
        <time>2010-10-17T08:51:22Z</time>
      </trkpt>
      <trkpt lat="45.40915" lon="5.66278">
        <ele>579.33154296875</ele>
        <time>2010-10-17T08:51:31Z</time>
      </trkpt>
      <trkpt lat="45.4089" lon="5.66281">
        <ele>574.04443359375</ele>
        <time>2010-10-17T08:51:42Z</time>
      </trkpt>
      <trkpt lat="45.40877" lon="5.6628">
        <ele>571.16040039062</ele>
        <time>2010-10-17T08:51:49Z</time>
      </trkpt>
      <trkpt lat="45.40856" lon="5.66274">
        <ele>567.79565429688</ele>
        <time>2010-10-17T08:51:59Z</time>
      </trkpt>
      <trkpt lat="45.40841" lon="5.66268">
        <ele>566.83447265625</ele>
        <time>2010-10-17T08:52:04Z</time>
      </trkpt>
      <trkpt lat="45.40823" lon="5.6627">
        <ele>563.46997070312</ele>
        <time>2010-10-17T08:52:10Z</time>
      </trkpt>
      <trkpt lat="45.40807" lon="5.66264">
        <ele>562.02807617188</ele>
        <time>2010-10-17T08:52:15Z</time>
      </trkpt>
      <trkpt lat="45.40794" lon="5.66262">
        <ele>561.54736328125</ele>
        <time>2010-10-17T08:52:20Z</time>
      </trkpt>
      <trkpt lat="45.40779" lon="5.66256">
        <ele>560.5859375</ele>
        <time>2010-10-17T08:52:28Z</time>
      </trkpt>
      <trkpt lat="45.40767" lon="5.6625">
        <ele>558.66333007812</ele>
        <time>2010-10-17T08:52:33Z</time>
      </trkpt>
      <trkpt lat="45.40755" lon="5.66242">
        <ele>557.22143554688</ele>
        <time>2010-10-17T08:52:39Z</time>
      </trkpt>
      <trkpt lat="45.40737" lon="5.66229">
        <ele>552.41455078125</ele>
        <time>2010-10-17T08:52:50Z</time>
      </trkpt>
      <trkpt lat="45.40723" lon="5.66217">
        <ele>548.5693359375</ele>
        <time>2010-10-17T08:52:59Z</time>
      </trkpt>
      <trkpt lat="45.40711" lon="5.66205">
        <ele>545.685546875</ele>
        <time>2010-10-17T08:53:06Z</time>
      </trkpt>
      <trkpt lat="45.40695" lon="5.66198">
        <ele>543.76281738281</ele>
        <time>2010-10-17T08:53:13Z</time>
      </trkpt>
      <trkpt lat="45.40683" lon="5.66197">
        <ele>543.28210449219</ele>
        <time>2010-10-17T08:53:19Z</time>
      </trkpt>
      <trkpt lat="45.40663" lon="5.66185">
        <ele>540.87890625</ele>
        <time>2010-10-17T08:53:25Z</time>
      </trkpt>
      <trkpt lat="45.4065" lon="5.66181">
        <ele>539.91760253906</ele>
        <time>2010-10-17T08:53:30Z</time>
      </trkpt>
      <trkpt lat="45.40635" lon="5.66177">
        <ele>538.47570800781</ele>
        <time>2010-10-17T08:53:36Z</time>
      </trkpt>
      <trkpt lat="45.40623" lon="5.66165">
        <ele>537.51428222656</ele>
        <time>2010-10-17T08:53:41Z</time>
      </trkpt>
      <trkpt lat="45.40609" lon="5.66154">
        <ele>536.07238769531</ele>
        <time>2010-10-17T08:53:46Z</time>
      </trkpt>
      <trkpt lat="45.40595" lon="5.66145">
        <ele>534.63037109375</ele>
        <time>2010-10-17T08:53:53Z</time>
      </trkpt>
      <trkpt lat="45.4058" lon="5.66131">
        <ele>534.14965820312</ele>
        <time>2010-10-17T08:54:00Z</time>
      </trkpt>
      <trkpt lat="45.4056" lon="5.66121">
        <ele>533.18835449219</ele>
        <time>2010-10-17T08:54:06Z</time>
      </trkpt>
      <trkpt lat="45.40542" lon="5.66119">
        <ele>532.70776367188</ele>
        <time>2010-10-17T08:54:12Z</time>
      </trkpt>
      <trkpt lat="45.4053" lon="5.66115">
        <ele>533.18835449219</ele>
        <time>2010-10-17T08:54:18Z</time>
      </trkpt>
      <trkpt lat="45.40519" lon="5.66103">
        <ele>532.22705078125</ele>
        <time>2010-10-17T08:54:24Z</time>
      </trkpt>
      <trkpt lat="45.40508" lon="5.6609">
        <ele>529.34313964844</ele>
        <time>2010-10-17T08:54:31Z</time>
      </trkpt>
      <trkpt lat="45.40496" lon="5.66076">
        <ele>526.93981933594</ele>
        <time>2010-10-17T08:54:38Z</time>
      </trkpt>
      <trkpt lat="45.40481" lon="5.66069">
        <ele>523.5751953125</ele>
        <time>2010-10-17T08:54:44Z</time>
      </trkpt>
      <trkpt lat="45.40466" lon="5.66065">
        <ele>520.69128417969</ele>
        <time>2010-10-17T08:54:51Z</time>
      </trkpt>
      <trkpt lat="45.40447" lon="5.66063">
        <ele>517.32666015625</ele>
        <time>2010-10-17T08:54:58Z</time>
      </trkpt>
      <trkpt lat="45.40433" lon="5.66063">
        <ele>514.44262695312</ele>
        <time>2010-10-17T08:55:05Z</time>
      </trkpt>
      <trkpt lat="45.40417" lon="5.66059">
        <ele>512.52001953125</ele>
        <time>2010-10-17T08:55:12Z</time>
      </trkpt>
      <trkpt lat="45.40403" lon="5.66048">
        <ele>510.11669921875</ele>
        <time>2010-10-17T08:55:18Z</time>
      </trkpt>
      <trkpt lat="45.40395" lon="5.66038">
        <ele>508.19409179688</ele>
        <time>2010-10-17T08:55:23Z</time>
      </trkpt>
      <trkpt lat="45.40385" lon="5.66031">
        <ele>506.271484375</ele>
        <time>2010-10-17T08:55:28Z</time>
      </trkpt>
      <trkpt lat="45.40374" lon="5.66024">
        <ele>505.79089355469</ele>
        <time>2010-10-17T08:55:33Z</time>
      </trkpt>
      <trkpt lat="45.40359" lon="5.66016">
        <ele>504.34887695312</ele>
        <time>2010-10-17T08:55:40Z</time>
      </trkpt>
      <trkpt lat="45.40348" lon="5.66">
        <ele>502.90673828125</ele>
        <time>2010-10-17T08:55:47Z</time>
      </trkpt>
      <trkpt lat="45.40337" lon="5.65988">
        <ele>500.02294921875</ele>
        <time>2010-10-17T08:55:54Z</time>
      </trkpt>
      <trkpt lat="45.40326" lon="5.6598">
        <ele>498.58093261719</ele>
        <time>2010-10-17T08:56:00Z</time>
      </trkpt>
      <trkpt lat="45.40311" lon="5.65978">
        <ele>496.65832519531</ele>
        <time>2010-10-17T08:56:07Z</time>
      </trkpt>
      <trkpt lat="45.40297" lon="5.65964">
        <ele>494.25500488281</ele>
        <time>2010-10-17T08:56:14Z</time>
      </trkpt>
      <trkpt lat="45.40281" lon="5.6596">
        <ele>491.37097167969</ele>
        <time>2010-10-17T08:56:21Z</time>
      </trkpt>
      <trkpt lat="45.40265" lon="5.6595">
        <ele>489.92907714844</ele>
        <time>2010-10-17T08:56:27Z</time>
      </trkpt>
      <trkpt lat="45.40259" lon="5.65937">
        <ele>488.9677734375</ele>
        <time>2010-10-17T08:56:32Z</time>
      </trkpt>
      <trkpt lat="45.40248" lon="5.65925">
        <ele>487.52563476562</ele>
        <time>2010-10-17T08:56:37Z</time>
      </trkpt>
      <trkpt lat="45.40229" lon="5.65919">
        <ele>487.52563476562</ele>
        <time>2010-10-17T08:56:42Z</time>
      </trkpt>
      <trkpt lat="45.40215" lon="5.65912">
        <ele>488.00646972656</ele>
        <time>2010-10-17T08:56:47Z</time>
      </trkpt>
      <trkpt lat="45.40201" lon="5.65906">
        <ele>488.00646972656</ele>
        <time>2010-10-17T08:56:52Z</time>
      </trkpt>
      <trkpt lat="45.40192" lon="5.65898">
        <ele>488.00646972656</ele>
        <time>2010-10-17T08:56:58Z</time>
      </trkpt>
      <trkpt lat="45.40178" lon="5.6589">
        <ele>488.00646972656</ele>
        <time>2010-10-17T08:57:05Z</time>
      </trkpt>
      <trkpt lat="45.40167" lon="5.65875">
        <ele>487.52563476562</ele>
        <time>2010-10-17T08:57:14Z</time>
      </trkpt>
      <trkpt lat="45.40152" lon="5.65864">
        <ele>488.00646972656</ele>
        <time>2010-10-17T08:57:23Z</time>
      </trkpt>
      <trkpt lat="45.40146" lon="5.6585">
        <ele>487.52563476562</ele>
        <time>2010-10-17T08:57:29Z</time>
      </trkpt>
      <trkpt lat="45.40138" lon="5.65836">
        <ele>485.12243652344</ele>
        <time>2010-10-17T08:57:36Z</time>
      </trkpt>
      <trkpt lat="45.40131" lon="5.65826">
        <ele>482.71923828125</ele>
        <time>2010-10-17T08:57:42Z</time>
      </trkpt>
      <trkpt lat="45.40124" lon="5.6581">
        <ele>480.31591796875</ele>
        <time>2010-10-17T08:57:49Z</time>
      </trkpt>
      <trkpt lat="45.40115" lon="5.65792">
        <ele>478.39318847656</ele>
        <time>2010-10-17T08:57:56Z</time>
      </trkpt>
      <trkpt lat="45.40104" lon="5.65776">
        <ele>476.95129394531</ele>
        <time>2010-10-17T08:58:02Z</time>
      </trkpt>
      <trkpt lat="45.40095" lon="5.65766">
        <ele>476.95129394531</ele>
        <time>2010-10-17T08:58:07Z</time>
      </trkpt>
      <trkpt lat="45.40087" lon="5.65752">
        <ele>476.95129394531</ele>
        <time>2010-10-17T08:58:15Z</time>
      </trkpt>
      <trkpt lat="45.40081" lon="5.65736">
        <ele>476.95129394531</ele>
        <time>2010-10-17T08:58:24Z</time>
      </trkpt>
      <trkpt lat="45.40073" lon="5.65726">
        <ele>476.47058105469</ele>
        <time>2010-10-17T08:58:32Z</time>
      </trkpt>
      <trkpt lat="45.40061" lon="5.65717">
        <ele>475.50927734375</ele>
        <time>2010-10-17T08:58:41Z</time>
      </trkpt>
      <trkpt lat="45.40049" lon="5.65707">
        <ele>474.54797363281</ele>
        <time>2010-10-17T08:58:49Z</time>
      </trkpt>
      <trkpt lat="45.40039" lon="5.65699">
        <ele>474.06726074219</ele>
        <time>2010-10-17T08:58:55Z</time>
      </trkpt>
      <trkpt lat="45.4003" lon="5.65691">
        <ele>474.06726074219</ele>
        <time>2010-10-17T08:59:00Z</time>
      </trkpt>
      <trkpt lat="45.40018" lon="5.65673">
        <ele>474.06726074219</ele>
        <time>2010-10-17T08:59:06Z</time>
      </trkpt>
      <trkpt lat="45.39997" lon="5.65666">
        <ele>474.06726074219</ele>
        <time>2010-10-17T08:59:12Z</time>
      </trkpt>
      <trkpt lat="45.39995" lon="5.6562">
        <ele>472.62536621094</ele>
        <time>2010-10-17T08:59:19Z</time>
      </trkpt>
      <trkpt lat="45.39983" lon="5.65606">
        <ele>472.62536621094</ele>
        <time>2010-10-17T08:59:27Z</time>
      </trkpt>
      <trkpt lat="45.39971" lon="5.65588">
        <ele>471.66394042969</ele>
        <time>2010-10-17T08:59:34Z</time>
      </trkpt>
      <trkpt lat="45.3996" lon="5.65574">
        <ele>470.70263671875</ele>
        <time>2010-10-17T08:59:42Z</time>
      </trkpt>
      <trkpt lat="45.39947" lon="5.65562">
        <ele>466.37670898438</ele>
        <time>2010-10-17T08:59:52Z</time>
      </trkpt>
      <trkpt lat="45.39915" lon="5.65532">
        <ele>463.49279785156</ele>
        <time>2010-10-17T09:00:02Z</time>
      </trkpt>
      <trkpt lat="45.39899" lon="5.65502">
        <ele>460.60876464844</ele>
        <time>2010-10-17T09:00:10Z</time>
      </trkpt>
      <trkpt lat="45.39896" lon="5.65464">
        <ele>458.20556640625</ele>
        <time>2010-10-17T09:00:18Z</time>
      </trkpt>
      <trkpt lat="45.39886" lon="5.65439">
        <ele>453.87963867188</ele>
        <time>2010-10-17T09:00:28Z</time>
      </trkpt>
      <trkpt lat="45.39846" lon="5.65402">
        <ele>447.15026855469</ele>
        <time>2010-10-17T09:00:41Z</time>
      </trkpt>
      <trkpt lat="45.39809" lon="5.65365">
        <ele>442.82446289062</ele>
        <time>2010-10-17T09:00:51Z</time>
      </trkpt>
      <trkpt lat="45.39766" lon="5.6534">
        <ele>439.9404296875</ele>
        <time>2010-10-17T09:01:01Z</time>
      </trkpt>
      <trkpt lat="45.39749" lon="5.65326">
        <ele>436.57592773438</ele>
        <time>2010-10-17T09:01:10Z</time>
      </trkpt>
      <trkpt lat="45.39738" lon="5.65314">
        <ele>433.69189453125</ele>
        <time>2010-10-17T09:01:18Z</time>
      </trkpt>
      <trkpt lat="45.39729" lon="5.65301">
        <ele>431.76916503906</ele>
        <time>2010-10-17T09:01:25Z</time>
      </trkpt>
      <trkpt lat="45.39719" lon="5.65292">
        <ele>428.88537597656</ele>
        <time>2010-10-17T09:01:34Z</time>
      </trkpt>
      <trkpt lat="45.39709" lon="5.65286">
        <ele>425.52075195312</ele>
        <time>2010-10-17T09:01:43Z</time>
      </trkpt>
      <trkpt lat="45.39697" lon="5.65275">
        <ele>422.15600585938</ele>
        <time>2010-10-17T09:01:52Z</time>
      </trkpt>
      <trkpt lat="45.39683" lon="5.65269">
        <ele>420.2333984375</ele>
        <time>2010-10-17T09:02:01Z</time>
      </trkpt>
      <trkpt lat="45.39671" lon="5.6526">
        <ele>416.38818359375</ele>
        <time>2010-10-17T09:02:10Z</time>
      </trkpt>
      <trkpt lat="45.39657" lon="5.65246">
        <ele>413.02355957031</ele>
        <time>2010-10-17T09:02:20Z</time>
      </trkpt>
      <trkpt lat="45.39645" lon="5.65238">
        <ele>411.58166503906</ele>
        <time>2010-10-17T09:02:27Z</time>
      </trkpt>
      <trkpt lat="45.39636" lon="5.65231">
        <ele>410.62023925781</ele>
        <time>2010-10-17T09:02:33Z</time>
      </trkpt>
      <trkpt lat="45.39625" lon="5.65222">
        <ele>409.65905761719</ele>
        <time>2010-10-17T09:02:39Z</time>
      </trkpt>
      <trkpt lat="45.39614" lon="5.65212">
        <ele>408.69763183594</ele>
        <time>2010-10-17T09:02:45Z</time>
      </trkpt>
      <trkpt lat="45.39602" lon="5.65208">
        <ele>405.3330078125</ele>
        <time>2010-10-17T09:02:55Z</time>
      </trkpt>
      <trkpt lat="45.3959" lon="5.65202">
        <ele>403.41040039062</ele>
        <time>2010-10-17T09:03:02Z</time>
      </trkpt>
      <trkpt lat="45.3958" lon="5.65197">
        <ele>400.0458984375</ele>
        <time>2010-10-17T09:03:08Z</time>
      </trkpt>
      <trkpt lat="45.3956" lon="5.65184">
        <ele>396.68115234375</ele>
        <time>2010-10-17T09:03:21Z</time>
      </trkpt>
      <trkpt lat="45.39549" lon="5.65178">
        <ele>393.79724121094</ele>
        <time>2010-10-17T09:03:29Z</time>
      </trkpt>
      <trkpt lat="45.39538" lon="5.65173">
        <ele>391.39379882812</ele>
        <time>2010-10-17T09:03:35Z</time>
      </trkpt>
      <trkpt lat="45.39528" lon="5.65167">
        <ele>387.54858398438</ele>
        <time>2010-10-17T09:03:43Z</time>
      </trkpt>
      <trkpt lat="45.39517" lon="5.65162">
        <ele>383.70324707031</ele>
        <time>2010-10-17T09:03:53Z</time>
      </trkpt>
      <trkpt lat="45.39504" lon="5.65156">
        <ele>379.85803222656</ele>
        <time>2010-10-17T09:04:02Z</time>
      </trkpt>
      <trkpt lat="45.39493" lon="5.65147">
        <ele>375.53210449219</ele>
        <time>2010-10-17T09:04:12Z</time>
      </trkpt>
      <trkpt lat="45.39488" lon="5.65131">
        <ele>372.64819335938</ele>
        <time>2010-10-17T09:04:23Z</time>
      </trkpt>
      <trkpt lat="45.3949" lon="5.65123">
        <ele>370.7255859375</ele>
        <time>2010-10-17T09:04:30Z</time>
      </trkpt>
      <trkpt lat="45.395" lon="5.65131">
        <ele>371.20629882812</ele>
        <time>2010-10-17T09:04:34Z</time>
      </trkpt>
      <trkpt lat="45.39508" lon="5.6514">
        <ele>372.16748046875</ele>
        <time>2010-10-17T09:04:40Z</time>
      </trkpt>
      <trkpt lat="45.39521" lon="5.65153">
        <ele>372.16748046875</ele>
        <time>2010-10-17T09:04:48Z</time>
      </trkpt>
      <trkpt lat="45.39532" lon="5.65157">
        <ele>372.64819335938</ele>
        <time>2010-10-17T09:04:53Z</time>
      </trkpt>
      <trkpt lat="45.39543" lon="5.65159">
        <ele>373.12890625</ele>
        <time>2010-10-17T09:04:59Z</time>
      </trkpt>
      <trkpt lat="45.39557" lon="5.65158">
        <ele>372.64819335938</ele>
        <time>2010-10-17T09:05:05Z</time>
      </trkpt>
      <trkpt lat="45.39566" lon="5.65161">
        <ele>373.60949707031</ele>
        <time>2010-10-17T09:05:10Z</time>
      </trkpt>
      <trkpt lat="45.39579" lon="5.65166">
        <ele>374.57080078125</ele>
        <time>2010-10-17T09:05:18Z</time>
      </trkpt>
      <trkpt lat="45.39597" lon="5.65168">
        <ele>376.01281738281</ele>
        <time>2010-10-17T09:05:26Z</time>
      </trkpt>
      <trkpt lat="45.39608" lon="5.65172">
        <ele>377.93542480469</ele>
        <time>2010-10-17T09:05:35Z</time>
      </trkpt>
      <trkpt lat="45.39616" lon="5.6518">
        <ele>380.33874511719</ele>
        <time>2010-10-17T09:05:44Z</time>
      </trkpt>
      <trkpt lat="45.39629" lon="5.6519">
        <ele>379.85803222656</ele>
        <time>2010-10-17T09:05:49Z</time>
      </trkpt>
      <trkpt lat="45.3963" lon="5.65168">
        <ele>379.85803222656</ele>
        <time>2010-10-17T09:05:54Z</time>
      </trkpt>
      <trkpt lat="45.39645" lon="5.65144">
        <ele>380.33874511719</ele>
        <time>2010-10-17T09:05:59Z</time>
      </trkpt>
      <trkpt lat="45.39636" lon="5.65136">
        <ele>380.33874511719</ele>
        <time>2010-10-17T09:06:04Z</time>
      </trkpt>
      <trkpt lat="45.3964" lon="5.6513">
        <ele>380.81945800781</ele>
        <time>2010-10-17T09:06:09Z</time>
      </trkpt>
      <trkpt lat="45.39646" lon="5.65127">
        <ele>380.81945800781</ele>
        <time>2010-10-17T09:06:13Z</time>
      </trkpt>
      <trkpt lat="45.39656" lon="5.65126">
        <ele>381.30004882812</ele>
        <time>2010-10-17T09:06:17Z</time>
      </trkpt>
      <trkpt lat="45.39671" lon="5.65127">
        <ele>381.30004882812</ele>
        <time>2010-10-17T09:06:22Z</time>
      </trkpt>
      <trkpt lat="45.39678" lon="5.65131">
        <ele>381.78063964844</ele>
        <time>2010-10-17T09:06:29Z</time>
      </trkpt>
      <trkpt lat="45.39678" lon="5.6513">
        <ele>381.78063964844</ele>
        <time>2010-10-17T09:06:35Z</time>
      </trkpt>
      <trkpt lat="45.39683" lon="5.65121">
        <ele>381.78063964844</ele>
        <time>2010-10-17T09:06:45Z</time>
      </trkpt>
      <trkpt lat="45.39673" lon="5.65112">
        <ele>381.78063964844</ele>
        <time>2010-10-17T09:06:53Z</time>
      </trkpt>
      <trkpt lat="45.39666" lon="5.65101">
        <ele>382.74206542969</ele>
        <time>2010-10-17T09:06:59Z</time>
      </trkpt>
      <trkpt lat="45.39655" lon="5.6508">
        <ele>382.26135253906</ele>
        <time>2010-10-17T09:07:04Z</time>
      </trkpt>
      <trkpt lat="45.39647" lon="5.65068">
        <ele>382.26135253906</ele>
        <time>2010-10-17T09:07:10Z</time>
      </trkpt>
      <trkpt lat="45.39635" lon="5.65056">
        <ele>382.26135253906</ele>
        <time>2010-10-17T09:07:16Z</time>
      </trkpt>
      <trkpt lat="45.39622" lon="5.65048">
        <ele>382.26135253906</ele>
        <time>2010-10-17T09:07:21Z</time>
      </trkpt>
      <trkpt lat="45.39612" lon="5.65038">
        <ele>382.26135253906</ele>
        <time>2010-10-17T09:07:26Z</time>
      </trkpt>
      <trkpt lat="45.39602" lon="5.65027">
        <ele>382.26135253906</ele>
        <time>2010-10-17T09:07:31Z</time>
      </trkpt>
      <trkpt lat="45.39592" lon="5.65019">
        <ele>382.26135253906</ele>
        <time>2010-10-17T09:07:36Z</time>
      </trkpt>
      <trkpt lat="45.39581" lon="5.65013">
        <ele>382.74206542969</ele>
        <time>2010-10-17T09:07:41Z</time>
      </trkpt>
      <trkpt lat="45.3957" lon="5.65002">
        <ele>381.30004882812</ele>
        <time>2010-10-17T09:07:46Z</time>
      </trkpt>
      <trkpt lat="45.39564" lon="5.64981">
        <ele>382.26135253906</ele>
        <time>2010-10-17T09:07:51Z</time>
      </trkpt>
      <trkpt lat="45.39551" lon="5.64967">
        <ele>382.74206542969</ele>
        <time>2010-10-17T09:07:56Z</time>
      </trkpt>
      <trkpt lat="45.39542" lon="5.64956">
        <ele>382.26135253906</ele>
        <time>2010-10-17T09:08:00Z</time>
      </trkpt>
      <trkpt lat="45.39534" lon="5.64946">
        <ele>381.78063964844</ele>
        <time>2010-10-17T09:08:04Z</time>
      </trkpt>
      <trkpt lat="45.39527" lon="5.64938">
        <ele>381.78063964844</ele>
        <time>2010-10-17T09:08:08Z</time>
      </trkpt>
      <trkpt lat="45.39518" lon="5.64929">
        <ele>381.30004882812</ele>
        <time>2010-10-17T09:08:12Z</time>
      </trkpt>
      <trkpt lat="45.39502" lon="5.64925">
        <ele>380.81945800781</ele>
        <time>2010-10-17T09:08:16Z</time>
      </trkpt>
      <trkpt lat="45.39488" lon="5.64923">
        <ele>381.30004882812</ele>
        <time>2010-10-17T09:08:21Z</time>
      </trkpt>
      <trkpt lat="45.39476" lon="5.64919">
        <ele>381.30004882812</ele>
        <time>2010-10-17T09:08:26Z</time>
      </trkpt>
      <trkpt lat="45.39465" lon="5.64912">
        <ele>380.81945800781</ele>
        <time>2010-10-17T09:08:31Z</time>
      </trkpt>
      <trkpt lat="45.39454" lon="5.64912">
        <ele>378.41613769531</ele>
        <time>2010-10-17T09:08:35Z</time>
      </trkpt>
      <trkpt lat="45.39444" lon="5.64914">
        <ele>377.45483398438</ele>
        <time>2010-10-17T09:08:39Z</time>
      </trkpt>
      <trkpt lat="45.39434" lon="5.64922">
        <ele>376.01281738281</ele>
        <time>2010-10-17T09:08:43Z</time>
      </trkpt>
      <trkpt lat="45.39425" lon="5.64929">
        <ele>375.05151367188</ele>
        <time>2010-10-17T09:08:47Z</time>
      </trkpt>
      <trkpt lat="45.39415" lon="5.64934">
        <ele>374.57080078125</ele>
        <time>2010-10-17T09:08:51Z</time>
      </trkpt>
      <trkpt lat="45.39405" lon="5.64939">
        <ele>373.60949707031</ele>
        <time>2010-10-17T09:08:55Z</time>
      </trkpt>
      <trkpt lat="45.39394" lon="5.64945">
        <ele>374.09008789062</ele>
        <time>2010-10-17T09:08:59Z</time>
      </trkpt>
      <trkpt lat="45.39384" lon="5.64951">
        <ele>373.12890625</ele>
        <time>2010-10-17T09:09:03Z</time>
      </trkpt>
      <trkpt lat="45.39372" lon="5.64954">
        <ele>373.12890625</ele>
        <time>2010-10-17T09:09:07Z</time>
      </trkpt>
      <trkpt lat="45.39361" lon="5.6496">
        <ele>372.64819335938</ele>
        <time>2010-10-17T09:09:11Z</time>
      </trkpt>
      <trkpt lat="45.39349" lon="5.64965">
        <ele>372.16748046875</ele>
        <time>2010-10-17T09:09:15Z</time>
      </trkpt>
      <trkpt lat="45.39338" lon="5.64966">
        <ele>371.68688964844</ele>
        <time>2010-10-17T09:09:19Z</time>
      </trkpt>
      <trkpt lat="45.39326" lon="5.64967">
        <ele>371.68688964844</ele>
        <time>2010-10-17T09:09:23Z</time>
      </trkpt>
      <trkpt lat="45.39316" lon="5.6497">
        <ele>371.68688964844</ele>
        <time>2010-10-17T09:09:27Z</time>
      </trkpt>
      <trkpt lat="45.39305" lon="5.64972">
        <ele>371.68688964844</ele>
        <time>2010-10-17T09:09:31Z</time>
      </trkpt>
      <trkpt lat="45.39297" lon="5.64976">
        <ele>371.20629882812</ele>
        <time>2010-10-17T09:09:35Z</time>
      </trkpt>
      <trkpt lat="45.39285" lon="5.64977">
        <ele>370.7255859375</ele>
        <time>2010-10-17T09:09:40Z</time>
      </trkpt>
      <trkpt lat="45.39275" lon="5.64976">
        <ele>371.20629882812</ele>
        <time>2010-10-17T09:09:45Z</time>
      </trkpt>
      <trkpt lat="45.39262" lon="5.64977">
        <ele>371.20629882812</ele>
        <time>2010-10-17T09:09:50Z</time>
      </trkpt>
      <trkpt lat="45.39246" lon="5.64982">
        <ele>371.20629882812</ele>
        <time>2010-10-17T09:09:56Z</time>
      </trkpt>
      <trkpt lat="45.39234" lon="5.64984">
        <ele>370.24487304688</ele>
        <time>2010-10-17T09:10:00Z</time>
      </trkpt>
      <trkpt lat="45.39223" lon="5.64985">
        <ele>370.7255859375</ele>
        <time>2010-10-17T09:10:04Z</time>
      </trkpt>
      <trkpt lat="45.39213" lon="5.64988">
        <ele>370.24487304688</ele>
        <time>2010-10-17T09:10:08Z</time>
      </trkpt>
      <trkpt lat="45.39203" lon="5.6499">
        <ele>370.24487304688</ele>
        <time>2010-10-17T09:10:12Z</time>
      </trkpt>
      <trkpt lat="45.39191" lon="5.64992">
        <ele>370.24487304688</ele>
        <time>2010-10-17T09:10:17Z</time>
      </trkpt>
      <trkpt lat="45.39176" lon="5.64999">
        <ele>370.7255859375</ele>
        <time>2010-10-17T09:10:22Z</time>
      </trkpt>
      <trkpt lat="45.39165" lon="5.65001">
        <ele>370.7255859375</ele>
        <time>2010-10-17T09:10:27Z</time>
      </trkpt>
      <trkpt lat="45.39152" lon="5.65006">
        <ele>370.7255859375</ele>
        <time>2010-10-17T09:10:32Z</time>
      </trkpt>
      <trkpt lat="45.39138" lon="5.65018">
        <ele>370.7255859375</ele>
        <time>2010-10-17T09:10:38Z</time>
      </trkpt>
      <trkpt lat="45.39126" lon="5.65029">
        <ele>370.24487304688</ele>
        <time>2010-10-17T09:10:43Z</time>
      </trkpt>
      <trkpt lat="45.39116" lon="5.6504">
        <ele>369.28369140625</ele>
        <time>2010-10-17T09:10:47Z</time>
      </trkpt>
      <trkpt lat="45.3911" lon="5.6505">
        <ele>368.80297851562</ele>
        <time>2010-10-17T09:10:51Z</time>
      </trkpt>
      <trkpt lat="45.39103" lon="5.65066">
        <ele>368.80297851562</ele>
        <time>2010-10-17T09:10:55Z</time>
      </trkpt>
      <trkpt lat="45.39094" lon="5.65079">
        <ele>368.80297851562</ele>
        <time>2010-10-17T09:10:59Z</time>
      </trkpt>
      <trkpt lat="45.39083" lon="5.65082">
        <ele>368.322265625</ele>
        <time>2010-10-17T09:11:03Z</time>
      </trkpt>
      <trkpt lat="45.39075" lon="5.6509">
        <ele>368.322265625</ele>
        <time>2010-10-17T09:11:07Z</time>
      </trkpt>
      <trkpt lat="45.39067" lon="5.65091">
        <ele>368.322265625</ele>
        <time>2010-10-17T09:11:11Z</time>
      </trkpt>
      <trkpt lat="45.39068" lon="5.65077">
        <ele>368.322265625</ele>
        <time>2010-10-17T09:11:15Z</time>
      </trkpt>
      <trkpt lat="45.39068" lon="5.65063">
        <ele>368.80297851562</ele>
        <time>2010-10-17T09:11:20Z</time>
      </trkpt>
      <trkpt lat="45.39067" lon="5.65047">
        <ele>369.28369140625</ele>
        <time>2010-10-17T09:11:25Z</time>
      </trkpt>
      <trkpt lat="45.39058" lon="5.65033">
        <ele>369.28369140625</ele>
        <time>2010-10-17T09:11:30Z</time>
      </trkpt>
      <trkpt lat="45.39044" lon="5.65032">
        <ele>369.28369140625</ele>
        <time>2010-10-17T09:11:34Z</time>
      </trkpt>
      <trkpt lat="45.39033" lon="5.65034">
        <ele>369.28369140625</ele>
        <time>2010-10-17T09:11:38Z</time>
      </trkpt>
      <trkpt lat="45.39023" lon="5.65039">
        <ele>368.80297851562</ele>
        <time>2010-10-17T09:11:42Z</time>
      </trkpt>
      <trkpt lat="45.39013" lon="5.65041">
        <ele>369.28369140625</ele>
        <time>2010-10-17T09:11:46Z</time>
      </trkpt>
      <trkpt lat="45.39003" lon="5.65045">
        <ele>368.322265625</ele>
        <time>2010-10-17T09:11:50Z</time>
      </trkpt>
      <trkpt lat="45.38992" lon="5.65051">
        <ele>367.84155273438</ele>
        <time>2010-10-17T09:11:54Z</time>
      </trkpt>
      <trkpt lat="45.38981" lon="5.65053">
        <ele>368.322265625</ele>
        <time>2010-10-17T09:11:58Z</time>
      </trkpt>
      <trkpt lat="45.38971" lon="5.65056">
        <ele>367.84155273438</ele>
        <time>2010-10-17T09:12:02Z</time>
      </trkpt>
      <trkpt lat="45.38961" lon="5.65061">
        <ele>367.84155273438</ele>
        <time>2010-10-17T09:12:06Z</time>
      </trkpt>
      <trkpt lat="45.38952" lon="5.65066">
        <ele>367.36096191406</ele>
        <time>2010-10-17T09:12:10Z</time>
      </trkpt>
      <trkpt lat="45.38942" lon="5.65065">
        <ele>367.36096191406</ele>
        <time>2010-10-17T09:12:14Z</time>
      </trkpt>
      <trkpt lat="45.38932" lon="5.65066">
        <ele>367.36096191406</ele>
        <time>2010-10-17T09:12:18Z</time>
      </trkpt>
      <trkpt lat="45.38922" lon="5.6507">
        <ele>367.84155273438</ele>
        <time>2010-10-17T09:12:22Z</time>
      </trkpt>
      <trkpt lat="45.38912" lon="5.6507">
        <ele>367.36096191406</ele>
        <time>2010-10-17T09:12:26Z</time>
      </trkpt>
      <trkpt lat="45.38902" lon="5.65071">
        <ele>366.88024902344</ele>
        <time>2010-10-17T09:12:30Z</time>
      </trkpt>
      <trkpt lat="45.38892" lon="5.65073">
        <ele>367.36096191406</ele>
        <time>2010-10-17T09:12:34Z</time>
      </trkpt>
      <trkpt lat="45.38882" lon="5.65077">
        <ele>367.36096191406</ele>
        <time>2010-10-17T09:12:38Z</time>
      </trkpt>
      <trkpt lat="45.38873" lon="5.65079">
        <ele>366.88024902344</ele>
        <time>2010-10-17T09:12:42Z</time>
      </trkpt>
      <trkpt lat="45.38862" lon="5.65083">
        <ele>366.88024902344</ele>
        <time>2010-10-17T09:12:46Z</time>
      </trkpt>
      <trkpt lat="45.38852" lon="5.65085">
        <ele>366.39953613281</ele>
        <time>2010-10-17T09:12:50Z</time>
      </trkpt>
      <trkpt lat="45.38843" lon="5.65091">
        <ele>366.39953613281</ele>
        <time>2010-10-17T09:12:54Z</time>
      </trkpt>
      <trkpt lat="45.38834" lon="5.65093">
        <ele>365.9189453125</ele>
        <time>2010-10-17T09:12:58Z</time>
      </trkpt>
      <trkpt lat="45.38824" lon="5.65096">
        <ele>365.43835449219</ele>
        <time>2010-10-17T09:13:02Z</time>
      </trkpt>
      <trkpt lat="45.38814" lon="5.65097">
        <ele>365.9189453125</ele>
        <time>2010-10-17T09:13:06Z</time>
      </trkpt>
      <trkpt lat="45.38804" lon="5.65099">
        <ele>365.9189453125</ele>
        <time>2010-10-17T09:13:10Z</time>
      </trkpt>
      <trkpt lat="45.38795" lon="5.65104">
        <ele>364.95764160156</ele>
        <time>2010-10-17T09:13:14Z</time>
      </trkpt>
      <trkpt lat="45.38785" lon="5.65108">
        <ele>364.95764160156</ele>
        <time>2010-10-17T09:13:18Z</time>
      </trkpt>
      <trkpt lat="45.38776" lon="5.65113">
        <ele>364.95764160156</ele>
        <time>2010-10-17T09:13:22Z</time>
      </trkpt>
      <trkpt lat="45.38766" lon="5.65115">
        <ele>364.47692871094</ele>
        <time>2010-10-17T09:13:26Z</time>
      </trkpt>
      <trkpt lat="45.38757" lon="5.65118">
        <ele>363.99633789062</ele>
        <time>2010-10-17T09:13:30Z</time>
      </trkpt>
      <trkpt lat="45.38747" lon="5.6512">
        <ele>364.47692871094</ele>
        <time>2010-10-17T09:13:34Z</time>
      </trkpt>
      <trkpt lat="45.38737" lon="5.6512">
        <ele>363.99633789062</ele>
        <time>2010-10-17T09:13:38Z</time>
      </trkpt>
      <trkpt lat="45.38727" lon="5.65123">
        <ele>363.99633789062</ele>
        <time>2010-10-17T09:13:42Z</time>
      </trkpt>
      <trkpt lat="45.38717" lon="5.65127">
        <ele>363.03503417969</ele>
        <time>2010-10-17T09:13:46Z</time>
      </trkpt>
      <trkpt lat="45.38708" lon="5.65132">
        <ele>363.03503417969</ele>
        <time>2010-10-17T09:13:50Z</time>
      </trkpt>
      <trkpt lat="45.38698" lon="5.65133">
        <ele>363.03503417969</ele>
        <time>2010-10-17T09:13:54Z</time>
      </trkpt>
      <trkpt lat="45.38689" lon="5.65137">
        <ele>362.55432128906</ele>
        <time>2010-10-17T09:13:58Z</time>
      </trkpt>
      <trkpt lat="45.3868" lon="5.65137">
        <ele>362.55432128906</ele>
        <time>2010-10-17T09:14:02Z</time>
      </trkpt>
      <trkpt lat="45.3867" lon="5.65139">
        <ele>362.07373046875</ele>
        <time>2010-10-17T09:14:06Z</time>
      </trkpt>
      <trkpt lat="45.3866" lon="5.65142">
        <ele>362.07373046875</ele>
        <time>2010-10-17T09:14:10Z</time>
      </trkpt>
      <trkpt lat="45.38651" lon="5.65145">
        <ele>361.59313964844</ele>
        <time>2010-10-17T09:14:14Z</time>
      </trkpt>
      <trkpt lat="45.38642" lon="5.6515">
        <ele>361.59313964844</ele>
        <time>2010-10-17T09:14:18Z</time>
      </trkpt>
      <trkpt lat="45.38633" lon="5.65155">
        <ele>361.59313964844</ele>
        <time>2010-10-17T09:14:22Z</time>
      </trkpt>
      <trkpt lat="45.38627" lon="5.65149">
        <ele>361.11242675781</ele>
        <time>2010-10-17T09:14:27Z</time>
      </trkpt>
      <trkpt lat="45.38623" lon="5.65134">
        <ele>361.11242675781</ele>
        <time>2010-10-17T09:14:34Z</time>
      </trkpt>
      <trkpt lat="45.38617" lon="5.65116">
        <ele>361.11242675781</ele>
        <time>2010-10-17T09:14:40Z</time>
      </trkpt>
      <trkpt lat="45.38618" lon="5.65098">
        <ele>361.59313964844</ele>
        <time>2010-10-17T09:14:47Z</time>
      </trkpt>
      <trkpt lat="45.3861" lon="5.65074">
        <ele>361.59313964844</ele>
        <time>2010-10-17T09:14:56Z</time>
      </trkpt>
      <trkpt lat="45.38599" lon="5.65061">
        <ele>361.59313964844</ele>
        <time>2010-10-17T09:15:07Z</time>
      </trkpt>
      <trkpt lat="45.38591" lon="5.65069">
        <ele>362.07373046875</ele>
        <time>2010-10-17T09:15:17Z</time>
      </trkpt>
      <trkpt lat="45.3858" lon="5.65067">
        <ele>363.99633789062</ele>
        <time>2010-10-17T09:15:28Z</time>
      </trkpt>
      <trkpt lat="45.38572" lon="5.65061">
        <ele>365.43835449219</ele>
        <time>2010-10-17T09:15:35Z</time>
      </trkpt>
      <trkpt lat="45.38564" lon="5.65052">
        <ele>367.84155273438</ele>
        <time>2010-10-17T09:15:41Z</time>
      </trkpt>
      <trkpt lat="45.38556" lon="5.65039">
        <ele>368.80297851562</ele>
        <time>2010-10-17T09:15:47Z</time>
      </trkpt>
      <trkpt lat="45.38552" lon="5.65025">
        <ele>369.28369140625</ele>
        <time>2010-10-17T09:15:52Z</time>
      </trkpt>
      <trkpt lat="45.3855" lon="5.65009">
        <ele>370.24487304688</ele>
        <time>2010-10-17T09:15:57Z</time>
      </trkpt>
      <trkpt lat="45.38549" lon="5.64995">
        <ele>370.24487304688</ele>
        <time>2010-10-17T09:16:02Z</time>
      </trkpt>
      <trkpt lat="45.38541" lon="5.64985">
        <ele>370.24487304688</ele>
        <time>2010-10-17T09:16:06Z</time>
      </trkpt>
      <trkpt lat="45.38532" lon="5.64978">
        <ele>370.24487304688</ele>
        <time>2010-10-17T09:16:11Z</time>
      </trkpt>
      <trkpt lat="45.38524" lon="5.6497">
        <ele>370.24487304688</ele>
        <time>2010-10-17T09:16:15Z</time>
      </trkpt>
      <trkpt lat="45.38516" lon="5.64963">
        <ele>370.24487304688</ele>
        <time>2010-10-17T09:16:19Z</time>
      </trkpt>
      <trkpt lat="45.38509" lon="5.64956">
        <ele>371.20629882812</ele>
        <time>2010-10-17T09:16:23Z</time>
      </trkpt>
      <trkpt lat="45.38499" lon="5.64948">
        <ele>371.20629882812</ele>
        <time>2010-10-17T09:16:28Z</time>
      </trkpt>
      <trkpt lat="45.3849" lon="5.64941">
        <ele>371.68688964844</ele>
        <time>2010-10-17T09:16:32Z</time>
      </trkpt>
      <trkpt lat="45.38481" lon="5.64934">
        <ele>371.68688964844</ele>
        <time>2010-10-17T09:16:36Z</time>
      </trkpt>
      <trkpt lat="45.38472" lon="5.64928">
        <ele>372.16748046875</ele>
        <time>2010-10-17T09:16:40Z</time>
      </trkpt>
      <trkpt lat="45.38463" lon="5.64922">
        <ele>372.16748046875</ele>
        <time>2010-10-17T09:16:44Z</time>
      </trkpt>
      <trkpt lat="45.38454" lon="5.64913">
        <ele>372.64819335938</ele>
        <time>2010-10-17T09:16:49Z</time>
      </trkpt>
      <trkpt lat="45.38445" lon="5.64904">
        <ele>373.12890625</ele>
        <time>2010-10-17T09:16:54Z</time>
      </trkpt>
      <trkpt lat="45.38433" lon="5.64901">
        <ele>373.60949707031</ele>
        <time>2010-10-17T09:16:59Z</time>
      </trkpt>
      <trkpt lat="45.38424" lon="5.64901">
        <ele>374.09008789062</ele>
        <time>2010-10-17T09:17:03Z</time>
      </trkpt>
      <trkpt lat="45.38415" lon="5.64901">
        <ele>374.57080078125</ele>
        <time>2010-10-17T09:17:07Z</time>
      </trkpt>
      <trkpt lat="45.38405" lon="5.64899">
        <ele>374.57080078125</ele>
        <time>2010-10-17T09:17:11Z</time>
      </trkpt>
      <trkpt lat="45.38396" lon="5.649">
        <ele>375.53210449219</ele>
        <time>2010-10-17T09:17:15Z</time>
      </trkpt>
      <trkpt lat="45.38386" lon="5.64897">
        <ele>375.05151367188</ele>
        <time>2010-10-17T09:17:19Z</time>
      </trkpt>
      <trkpt lat="45.38377" lon="5.64897">
        <ele>375.05151367188</ele>
        <time>2010-10-17T09:17:23Z</time>
      </trkpt>
      <trkpt lat="45.38367" lon="5.64896">
        <ele>375.53210449219</ele>
        <time>2010-10-17T09:17:27Z</time>
      </trkpt>
      <trkpt lat="45.38358" lon="5.64894">
        <ele>376.01281738281</ele>
        <time>2010-10-17T09:17:31Z</time>
      </trkpt>
      <trkpt lat="45.38348" lon="5.64892">
        <ele>376.01281738281</ele>
        <time>2010-10-17T09:17:35Z</time>
      </trkpt>
      <trkpt lat="45.38339" lon="5.64892">
        <ele>376.49353027344</ele>
        <time>2010-10-17T09:17:39Z</time>
      </trkpt>
      <trkpt lat="45.3833" lon="5.6489">
        <ele>376.97424316406</ele>
        <time>2010-10-17T09:17:43Z</time>
      </trkpt>
      <trkpt lat="45.38326" lon="5.6488">
        <ele>377.93542480469</ele>
        <time>2010-10-17T09:17:48Z</time>
      </trkpt>
      <trkpt lat="45.38328" lon="5.64867">
        <ele>377.45483398438</ele>
        <time>2010-10-17T09:17:52Z</time>
      </trkpt>
      <trkpt lat="45.38327" lon="5.64854">
        <ele>377.93542480469</ele>
        <time>2010-10-17T09:17:56Z</time>
      </trkpt>
      <trkpt lat="45.38327" lon="5.64838">
        <ele>377.93542480469</ele>
        <time>2010-10-17T09:18:01Z</time>
      </trkpt>
      <trkpt lat="45.38326" lon="5.64819">
        <ele>377.93542480469</ele>
        <time>2010-10-17T09:18:06Z</time>
      </trkpt>
      <trkpt lat="45.38326" lon="5.64805">
        <ele>377.93542480469</ele>
        <time>2010-10-17T09:18:10Z</time>
      </trkpt>
      <trkpt lat="45.38326" lon="5.64791">
        <ele>377.93542480469</ele>
        <time>2010-10-17T09:18:14Z</time>
      </trkpt>
      <trkpt lat="45.38326" lon="5.64777">
        <ele>377.93542480469</ele>
        <time>2010-10-17T09:18:18Z</time>
      </trkpt>
      <trkpt lat="45.38326" lon="5.64762">
        <ele>377.93542480469</ele>
        <time>2010-10-17T09:18:22Z</time>
      </trkpt>
      <trkpt lat="45.38326" lon="5.64749">
        <ele>377.93542480469</ele>
        <time>2010-10-17T09:18:26Z</time>
      </trkpt>
      <trkpt lat="45.38324" lon="5.64732">
        <ele>378.41613769531</ele>
        <time>2010-10-17T09:18:32Z</time>
      </trkpt>
      <trkpt lat="45.38322" lon="5.64715">
        <ele>377.93542480469</ele>
        <time>2010-10-17T09:18:37Z</time>
      </trkpt>
      <trkpt lat="45.38321" lon="5.64699">
        <ele>377.93542480469</ele>
        <time>2010-10-17T09:18:41Z</time>
      </trkpt>
      <trkpt lat="45.38318" lon="5.64683">
        <ele>378.41613769531</ele>
        <time>2010-10-17T09:18:45Z</time>
      </trkpt>
      <trkpt lat="45.38316" lon="5.64668">
        <ele>378.89685058594</ele>
        <time>2010-10-17T09:18:49Z</time>
      </trkpt>
      <trkpt lat="45.38313" lon="5.64655">
        <ele>378.89685058594</ele>
        <time>2010-10-17T09:18:53Z</time>
      </trkpt>
      <trkpt lat="45.38309" lon="5.64639">
        <ele>378.41613769531</ele>
        <time>2010-10-17T09:18:58Z</time>
      </trkpt>
      <trkpt lat="45.38305" lon="5.64622">
        <ele>378.89685058594</ele>
        <time>2010-10-17T09:19:03Z</time>
      </trkpt>
      <trkpt lat="45.38302" lon="5.64606">
        <ele>379.37744140625</ele>
        <time>2010-10-17T09:19:08Z</time>
      </trkpt>
      <trkpt lat="45.38297" lon="5.64589">
        <ele>379.37744140625</ele>
        <time>2010-10-17T09:19:13Z</time>
      </trkpt>
      <trkpt lat="45.38293" lon="5.64573">
        <ele>379.37744140625</ele>
        <time>2010-10-17T09:19:18Z</time>
      </trkpt>
      <trkpt lat="45.3829" lon="5.64554">
        <ele>379.85803222656</ele>
        <time>2010-10-17T09:19:23Z</time>
      </trkpt>
      <trkpt lat="45.38286" lon="5.6454">
        <ele>379.85803222656</ele>
        <time>2010-10-17T09:19:27Z</time>
      </trkpt>
      <trkpt lat="45.38279" lon="5.64529">
        <ele>379.85803222656</ele>
        <time>2010-10-17T09:19:32Z</time>
      </trkpt>
      <trkpt lat="45.38275" lon="5.64516">
        <ele>380.33874511719</ele>
        <time>2010-10-17T09:19:36Z</time>
      </trkpt>
      <trkpt lat="45.38266" lon="5.64507">
        <ele>380.81945800781</ele>
        <time>2010-10-17T09:19:40Z</time>
      </trkpt>
      <trkpt lat="45.38255" lon="5.64497">
        <ele>380.33874511719</ele>
        <time>2010-10-17T09:19:45Z</time>
      </trkpt>
      <trkpt lat="45.38253" lon="5.64477">
        <ele>380.33874511719</ele>
        <time>2010-10-17T09:19:50Z</time>
      </trkpt>
      <trkpt lat="45.38244" lon="5.64463">
        <ele>380.33874511719</ele>
        <time>2010-10-17T09:19:54Z</time>
      </trkpt>
      <trkpt lat="45.38237" lon="5.64452">
        <ele>380.81945800781</ele>
        <time>2010-10-17T09:19:58Z</time>
      </trkpt>
      <trkpt lat="45.3823" lon="5.6444">
        <ele>381.30004882812</ele>
        <time>2010-10-17T09:20:03Z</time>
      </trkpt>
      <trkpt lat="45.38223" lon="5.64428">
        <ele>381.30004882812</ele>
        <time>2010-10-17T09:20:07Z</time>
      </trkpt>
      <trkpt lat="45.38215" lon="5.64417">
        <ele>381.78063964844</ele>
        <time>2010-10-17T09:20:11Z</time>
      </trkpt>
      <trkpt lat="45.38213" lon="5.64404">
        <ele>381.30004882812</ele>
        <time>2010-10-17T09:20:15Z</time>
      </trkpt>
      <trkpt lat="45.38218" lon="5.6439">
        <ele>381.30004882812</ele>
        <time>2010-10-17T09:20:19Z</time>
      </trkpt>
      <trkpt lat="45.3822" lon="5.64375">
        <ele>381.30004882812</ele>
        <time>2010-10-17T09:20:23Z</time>
      </trkpt>
      <trkpt lat="45.38226" lon="5.64364">
        <ele>381.30004882812</ele>
        <time>2010-10-17T09:20:27Z</time>
      </trkpt>
      <trkpt lat="45.38231" lon="5.64352">
        <ele>381.78063964844</ele>
        <time>2010-10-17T09:20:31Z</time>
      </trkpt>
      <trkpt lat="45.38232" lon="5.64338">
        <ele>381.78063964844</ele>
        <time>2010-10-17T09:20:36Z</time>
      </trkpt>
      <trkpt lat="45.38229" lon="5.64324">
        <ele>380.81945800781</ele>
        <time>2010-10-17T09:20:40Z</time>
      </trkpt>
      <trkpt lat="45.38229" lon="5.64306">
        <ele>381.30004882812</ele>
        <time>2010-10-17T09:20:44Z</time>
      </trkpt>
      <trkpt lat="45.38227" lon="5.6429">
        <ele>381.30004882812</ele>
        <time>2010-10-17T09:20:48Z</time>
      </trkpt>
      <trkpt lat="45.38223" lon="5.64274">
        <ele>381.30004882812</ele>
        <time>2010-10-17T09:20:53Z</time>
      </trkpt>
      <trkpt lat="45.38221" lon="5.64259">
        <ele>381.78063964844</ele>
        <time>2010-10-17T09:20:57Z</time>
      </trkpt>
      <trkpt lat="45.38219" lon="5.64244">
        <ele>381.78063964844</ele>
        <time>2010-10-17T09:21:01Z</time>
      </trkpt>
      <trkpt lat="45.38215" lon="5.64228">
        <ele>382.26135253906</ele>
        <time>2010-10-17T09:21:06Z</time>
      </trkpt>
      <trkpt lat="45.38212" lon="5.64215">
        <ele>382.26135253906</ele>
        <time>2010-10-17T09:21:10Z</time>
      </trkpt>
      <trkpt lat="45.38207" lon="5.64199">
        <ele>382.74206542969</ele>
        <time>2010-10-17T09:21:14Z</time>
      </trkpt>
      <trkpt lat="45.38202" lon="5.64185">
        <ele>382.74206542969</ele>
        <time>2010-10-17T09:21:19Z</time>
      </trkpt>
      <trkpt lat="45.38198" lon="5.64171">
        <ele>382.26135253906</ele>
        <time>2010-10-17T09:21:23Z</time>
      </trkpt>
      <trkpt lat="45.38192" lon="5.64155">
        <ele>382.26135253906</ele>
        <time>2010-10-17T09:21:27Z</time>
      </trkpt>
      <trkpt lat="45.38189" lon="5.64139">
        <ele>382.26135253906</ele>
        <time>2010-10-17T09:21:31Z</time>
      </trkpt>
      <trkpt lat="45.38184" lon="5.64124">
        <ele>382.26135253906</ele>
        <time>2010-10-17T09:21:36Z</time>
      </trkpt>
      <trkpt lat="45.38179" lon="5.64112">
        <ele>382.26135253906</ele>
        <time>2010-10-17T09:21:40Z</time>
      </trkpt>
      <trkpt lat="45.38175" lon="5.64097">
        <ele>382.26135253906</ele>
        <time>2010-10-17T09:21:44Z</time>
      </trkpt>
      <trkpt lat="45.38173" lon="5.64078">
        <ele>381.78063964844</ele>
        <time>2010-10-17T09:21:48Z</time>
      </trkpt>
      <trkpt lat="45.38169" lon="5.64063">
        <ele>381.78063964844</ele>
        <time>2010-10-17T09:21:52Z</time>
      </trkpt>
      <trkpt lat="45.38164" lon="5.6405">
        <ele>381.30004882812</ele>
        <time>2010-10-17T09:21:56Z</time>
      </trkpt>
      <trkpt lat="45.38161" lon="5.64035">
        <ele>381.30004882812</ele>
        <time>2010-10-17T09:22:00Z</time>
      </trkpt>
      <trkpt lat="45.38158" lon="5.64021">
        <ele>380.81945800781</ele>
        <time>2010-10-17T09:22:04Z</time>
      </trkpt>
      <trkpt lat="45.38157" lon="5.64002">
        <ele>381.30004882812</ele>
        <time>2010-10-17T09:22:08Z</time>
      </trkpt>
      <trkpt lat="45.38156" lon="5.63986">
        <ele>381.30004882812</ele>
        <time>2010-10-17T09:22:12Z</time>
      </trkpt>
      <trkpt lat="45.3816" lon="5.63971">
        <ele>381.30004882812</ele>
        <time>2010-10-17T09:22:16Z</time>
      </trkpt>
      <trkpt lat="45.38159" lon="5.63952">
        <ele>380.81945800781</ele>
        <time>2010-10-17T09:22:20Z</time>
      </trkpt>
      <trkpt lat="45.38158" lon="5.63937">
        <ele>380.81945800781</ele>
        <time>2010-10-17T09:22:24Z</time>
      </trkpt>
      <trkpt lat="45.38157" lon="5.63922">
        <ele>380.81945800781</ele>
        <time>2010-10-17T09:22:28Z</time>
      </trkpt>
      <trkpt lat="45.38154" lon="5.63909">
        <ele>380.33874511719</ele>
        <time>2010-10-17T09:22:32Z</time>
      </trkpt>
      <trkpt lat="45.3815" lon="5.63894">
        <ele>379.85803222656</ele>
        <time>2010-10-17T09:22:36Z</time>
      </trkpt>
      <trkpt lat="45.38147" lon="5.6388">
        <ele>380.33874511719</ele>
        <time>2010-10-17T09:22:40Z</time>
      </trkpt>
      <trkpt lat="45.38144" lon="5.63866">
        <ele>380.33874511719</ele>
        <time>2010-10-17T09:22:44Z</time>
      </trkpt>
      <trkpt lat="45.3814" lon="5.63852">
        <ele>380.81945800781</ele>
        <time>2010-10-17T09:22:48Z</time>
      </trkpt>
      <trkpt lat="45.38138" lon="5.63837">
        <ele>380.33874511719</ele>
        <time>2010-10-17T09:22:52Z</time>
      </trkpt>
      <trkpt lat="45.38135" lon="5.63822">
        <ele>380.33874511719</ele>
        <time>2010-10-17T09:22:56Z</time>
      </trkpt>
      <trkpt lat="45.38129" lon="5.63805">
        <ele>380.33874511719</ele>
        <time>2010-10-17T09:23:01Z</time>
      </trkpt>
      <trkpt lat="45.38127" lon="5.63785">
        <ele>380.81945800781</ele>
        <time>2010-10-17T09:23:06Z</time>
      </trkpt>
      <trkpt lat="45.38123" lon="5.63769">
        <ele>380.81945800781</ele>
        <time>2010-10-17T09:23:10Z</time>
      </trkpt>
      <trkpt lat="45.38116" lon="5.63754">
        <ele>380.33874511719</ele>
        <time>2010-10-17T09:23:14Z</time>
      </trkpt>
      <trkpt lat="45.38111" lon="5.63737">
        <ele>380.81945800781</ele>
        <time>2010-10-17T09:23:19Z</time>
      </trkpt>
      <trkpt lat="45.38107" lon="5.63724">
        <ele>380.81945800781</ele>
        <time>2010-10-17T09:23:23Z</time>
      </trkpt>
      <trkpt lat="45.381" lon="5.63709">
        <ele>380.81945800781</ele>
        <time>2010-10-17T09:23:28Z</time>
      </trkpt>
      <trkpt lat="45.38094" lon="5.63695">
        <ele>381.30004882812</ele>
        <time>2010-10-17T09:23:33Z</time>
      </trkpt>
      <trkpt lat="45.38089" lon="5.63679">
        <ele>380.81945800781</ele>
        <time>2010-10-17T09:23:38Z</time>
      </trkpt>
      <trkpt lat="45.38083" lon="5.63667">
        <ele>381.30004882812</ele>
        <time>2010-10-17T09:23:42Z</time>
      </trkpt>
      <trkpt lat="45.38075" lon="5.63656">
        <ele>381.30004882812</ele>
        <time>2010-10-17T09:23:46Z</time>
      </trkpt>
      <trkpt lat="45.38067" lon="5.63647">
        <ele>381.78063964844</ele>
        <time>2010-10-17T09:23:51Z</time>
      </trkpt>
      <trkpt lat="45.38058" lon="5.63634">
        <ele>381.78063964844</ele>
        <time>2010-10-17T09:23:56Z</time>
      </trkpt>
      <trkpt lat="45.38051" lon="5.63621">
        <ele>383.22265625</ele>
        <time>2010-10-17T09:24:00Z</time>
      </trkpt>
      <trkpt lat="45.38045" lon="5.63609">
        <ele>382.74206542969</ele>
        <time>2010-10-17T09:24:04Z</time>
      </trkpt>
      <trkpt lat="45.38037" lon="5.63602">
        <ele>383.22265625</ele>
        <time>2010-10-17T09:24:09Z</time>
      </trkpt>
      <trkpt lat="45.38031" lon="5.63588">
        <ele>383.70324707031</ele>
        <time>2010-10-17T09:24:15Z</time>
      </trkpt>
      <trkpt lat="45.38022" lon="5.63597">
        <ele>385.14538574219</ele>
        <time>2010-10-17T09:24:23Z</time>
      </trkpt>
      <trkpt lat="45.38017" lon="5.63611">
        <ele>385.6259765625</ele>
        <time>2010-10-17T09:24:27Z</time>
      </trkpt>
      <trkpt lat="45.3801" lon="5.63625">
        <ele>386.10668945312</ele>
        <time>2010-10-17T09:24:31Z</time>
      </trkpt>
      <trkpt lat="45.38005" lon="5.63638">
        <ele>386.10668945312</ele>
        <time>2010-10-17T09:24:35Z</time>
      </trkpt>
      <trkpt lat="45.38001" lon="5.6365">
        <ele>386.58740234375</ele>
        <time>2010-10-17T09:24:39Z</time>
      </trkpt>
      <trkpt lat="45.37996" lon="5.63666">
        <ele>387.06799316406</ele>
        <time>2010-10-17T09:24:43Z</time>
      </trkpt>
      <trkpt lat="45.37991" lon="5.63678">
        <ele>387.06799316406</ele>
        <time>2010-10-17T09:24:47Z</time>
      </trkpt>
      <trkpt lat="45.37988" lon="5.63691">
        <ele>387.06799316406</ele>
        <time>2010-10-17T09:24:52Z</time>
      </trkpt>
      <trkpt lat="45.37984" lon="5.63704">
        <ele>387.54858398438</ele>
        <time>2010-10-17T09:24:56Z</time>
      </trkpt>
      <trkpt lat="45.3798" lon="5.63718">
        <ele>387.54858398438</ele>
        <time>2010-10-17T09:25:00Z</time>
      </trkpt>
      <trkpt lat="45.37977" lon="5.63732">
        <ele>388.029296875</ele>
        <time>2010-10-17T09:25:04Z</time>
      </trkpt>
      <trkpt lat="45.37973" lon="5.63746">
        <ele>387.54858398438</ele>
        <time>2010-10-17T09:25:08Z</time>
      </trkpt>
      <trkpt lat="45.3797" lon="5.6376">
        <ele>388.51000976562</ele>
        <time>2010-10-17T09:25:12Z</time>
      </trkpt>
      <trkpt lat="45.37967" lon="5.63778">
        <ele>388.029296875</ele>
        <time>2010-10-17T09:25:16Z</time>
      </trkpt>
      <trkpt lat="45.37962" lon="5.63795">
        <ele>388.99060058594</ele>
        <time>2010-10-17T09:25:20Z</time>
      </trkpt>
      <trkpt lat="45.3796" lon="5.6381">
        <ele>388.99060058594</ele>
        <time>2010-10-17T09:25:24Z</time>
      </trkpt>
      <trkpt lat="45.37956" lon="5.63824">
        <ele>388.99060058594</ele>
        <time>2010-10-17T09:25:28Z</time>
      </trkpt>
      <trkpt lat="45.37954" lon="5.63841">
        <ele>389.47119140625</ele>
        <time>2010-10-17T09:25:32Z</time>
      </trkpt>
      <trkpt lat="45.3795" lon="5.63855">
        <ele>389.95190429688</ele>
        <time>2010-10-17T09:25:36Z</time>
      </trkpt>
      <trkpt lat="45.37946" lon="5.63867">
        <ele>389.95190429688</ele>
        <time>2010-10-17T09:25:40Z</time>
      </trkpt>
      <trkpt lat="45.37945" lon="5.63883">
        <ele>389.95190429688</ele>
        <time>2010-10-17T09:25:44Z</time>
      </trkpt>
      <trkpt lat="45.3794" lon="5.63898">
        <ele>390.4326171875</ele>
        <time>2010-10-17T09:25:48Z</time>
      </trkpt>
      <trkpt lat="45.37934" lon="5.63912">
        <ele>390.91320800781</ele>
        <time>2010-10-17T09:25:52Z</time>
      </trkpt>
      <trkpt lat="45.3793" lon="5.63926">
        <ele>390.91320800781</ele>
        <time>2010-10-17T09:25:55Z</time>
      </trkpt>
      <trkpt lat="45.37931" lon="5.63942">
        <ele>390.91320800781</ele>
        <time>2010-10-17T09:25:59Z</time>
      </trkpt>
      <trkpt lat="45.37936" lon="5.63958">
        <ele>390.91320800781</ele>
        <time>2010-10-17T09:26:03Z</time>
      </trkpt>
      <trkpt lat="45.37941" lon="5.63968">
        <ele>391.39379882812</ele>
        <time>2010-10-17T09:26:06Z</time>
      </trkpt>
      <trkpt lat="45.37948" lon="5.63979">
        <ele>390.91320800781</ele>
        <time>2010-10-17T09:26:10Z</time>
      </trkpt>
      <trkpt lat="45.37955" lon="5.63978">
        <ele>392.35534667969</ele>
        <time>2010-10-17T09:26:50Z</time>
      </trkpt>
      <trkpt lat="45.37966" lon="5.63982">
        <ele>392.35534667969</ele>
        <time>2010-10-17T09:27:03Z</time>
      </trkpt>
      <trkpt lat="45.37967" lon="5.63994">
        <ele>392.8359375</ele>
        <time>2010-10-17T09:27:13Z</time>
      </trkpt>
      <trkpt lat="45.37976" lon="5.63986">
        <ele>393.79724121094</ele>
        <time>2010-10-17T09:27:29Z</time>
      </trkpt>
      <trkpt lat="45.3796" lon="5.63979">
        <ele>399.56506347656</ele>
        <time>2010-10-17T09:31:56Z</time>
      </trkpt>
      <trkpt lat="45.37965" lon="5.63999">
        <ele>401.00708007812</ele>
        <time>2010-10-17T09:32:25Z</time>
      </trkpt>
      <trkpt lat="45.37963" lon="5.63999">
        <ele>401.96850585938</ele>
        <time>2010-10-17T09:32:56Z</time>
      </trkpt>
      <trkpt lat="45.37965" lon="5.63978">
        <ele>402.9296875</ele>
        <time>2010-10-17T09:33:21Z</time>
      </trkpt>
      <trkpt lat="45.37964" lon="5.64028">
        <ele>403.41040039062</ele>
        <time>2010-10-17T09:33:56Z</time>
      </trkpt>
      <trkpt lat="45.37971" lon="5.64053">
        <ele>403.41040039062</ele>
        <time>2010-10-17T09:34:05Z</time>
      </trkpt>
      <trkpt lat="45.37986" lon="5.64069">
        <ele>403.41040039062</ele>
        <time>2010-10-17T09:34:14Z</time>
      </trkpt>
      <trkpt lat="45.38002" lon="5.64081">
        <ele>403.89111328125</ele>
        <time>2010-10-17T09:34:20Z</time>
      </trkpt>
      <trkpt lat="45.38009" lon="5.64089">
        <ele>404.37170410156</ele>
        <time>2010-10-17T09:34:25Z</time>
      </trkpt>
      <trkpt lat="45.38015" lon="5.64098">
        <ele>403.89111328125</ele>
        <time>2010-10-17T09:34:30Z</time>
      </trkpt>
      <trkpt lat="45.38022" lon="5.64107">
        <ele>403.89111328125</ele>
        <time>2010-10-17T09:34:35Z</time>
      </trkpt>
      <trkpt lat="45.38029" lon="5.64116">
        <ele>403.41040039062</ele>
        <time>2010-10-17T09:34:40Z</time>
      </trkpt>
      <trkpt lat="45.38054" lon="5.64081">
        <ele>403.41040039062</ele>
        <time>2010-10-17T09:34:46Z</time>
      </trkpt>
      <trkpt lat="45.38064" lon="5.64094">
        <ele>403.89111328125</ele>
        <time>2010-10-17T09:34:56Z</time>
      </trkpt>
      <trkpt lat="45.38065" lon="5.64107">
        <ele>403.89111328125</ele>
        <time>2010-10-17T09:35:05Z</time>
      </trkpt>
      <trkpt lat="45.38067" lon="5.6412">
        <ele>403.41040039062</ele>
        <time>2010-10-17T09:35:14Z</time>
      </trkpt>
      <trkpt lat="45.38069" lon="5.64133">
        <ele>402.9296875</ele>
        <time>2010-10-17T09:35:23Z</time>
      </trkpt>
    </trkseg>
  </trk>
</gpx>